Wetterdaten: Mittwoch, 26.09.2018
Datum Zeit Temp. A. Pool Temp. Temp. 5cm Feuchte A. Luftdruck Regen Wind Richtung Richtung Sonnenschein ET UV Solar Taupunkt Windchill Windben Empfang
26.09.2018 00:00 2,9 C 16,7 C 0,0 C 87 % 1039,0 hPa 0,0 l/m 2,4 km/h (1 Bft) S-SW 195 0 min 0,000 mm 0,0 UV-I 0 W/m 1,0 C 2,9 C 3,2 km/h (1 Bft) 93,62 %
26.09.2018 00:02 2,8 C 16,7 C 0,0 C 87 % 1039,0 hPa 0,0 l/m 2,1 km/h (1 Bft) S-SW 195 0 min 0,000 mm 0,0 UV-I 0 W/m 0,9 C 2,8 C 3,2 km/h (1 Bft) 92,31 %
26.09.2018 00:04 2,8 C 16,7 C 0,0 C 88 % 1039,0 hPa 0,0 l/m 0,8 km/h (0 Bft) S-SW 195 0 min 0,000 mm 0,0 UV-I 0 W/m 1,0 C 2,8 C 1,6 km/h (1 Bft) 98,00 %
26.09.2018 00:06 2,9 C 16,7 C 0,0 C 88 % 1039,0 hPa 0,0 l/m 1,0 km/h (0 Bft) S-SW 195 0 min 0,000 mm 0,0 UV-I 0 W/m 1,1 C 2,9 C 1,6 km/h (1 Bft) 95,74 %
26.09.2018 00:08 3,1 C 16,7 C 0,0 C 87 % 1039,1 hPa 0,0 l/m 1,7 km/h (1 Bft) S-SW 195 0 min 0,000 mm 0,0 UV-I 0 W/m 1,2 C 3,1 C 3,2 km/h (1 Bft) 97,87 %
26.09.2018 00:10 3,2 C 16,7 C 0,0 C 87 % 1039,1 hPa 0,0 l/m 2,3 km/h (1 Bft) S-SW 195 0 min 0,000 mm 0,0 UV-I 0 W/m 1,2 C 3,2 C 3,2 km/h (1 Bft) 97,87 %
26.09.2018 00:12 3,2 C 16,7 C 0,6 C 87 % 1039,1 hPa 0,0 l/m 1,5 km/h (1 Bft) S-SW 195 0 min 0,000 mm 0,0 UV-I 0 W/m 1,2 C 3,2 C 3,2 km/h (1 Bft) 95,74 %
26.09.2018 00:14 3,1 C 16,7 C 0,6 C 87 % 1039,1 hPa 0,0 l/m 1,2 km/h (1 Bft) S-SW 195 0 min 0,000 mm 0,0 UV-I 0 W/m 1,2 C 3,1 C 1,6 km/h (1 Bft) 97,22 %
26.09.2018 00:16 3,0 C 16,7 C 0,6 C 87 % 1039,0 hPa 0,0 l/m 2,3 km/h (1 Bft) S-SW 195 0 min 0,000 mm 0,0 UV-I 0 W/m 1,1 C 3,0 C 3,2 km/h (1 Bft) 98,00 %
26.09.2018 00:18 2,8 C 16,7 C 0,0 C 87 % 1039,0 hPa 0,0 l/m 2,8 km/h (1 Bft) S-SW 194 0 min 0,000 mm 0,0 UV-I 0 W/m 0,9 C 2,8 C 3,2 km/h (1 Bft) 97,92 %
26.09.2018 00:20 2,5 C 16,7 C 0,0 C 87 % 1038,9 hPa 0,0 l/m 2,8 km/h (1 Bft) S-SW 194 0 min 0,000 mm 0,0 UV-I 0 W/m 0,6 C 2,5 C 3,2 km/h (1 Bft) 95,74 %
26.09.2018 00:22 2,3 C 16,7 C 0,0 C 87 % 1039,0 hPa 0,0 l/m 3,0 km/h (1 Bft) S-SW 194 0 min 0,000 mm 0,0 UV-I 0 W/m 0,4 C 2,3 C 3,2 km/h (1 Bft) 100,00 %
26.09.2018 00:24 2,3 C 16,7 C 0,0 C 88 % 1039,0 hPa 0,0 l/m 3,6 km/h (1 Bft) S-SW 194 0 min 0,000 mm 0,0 UV-I 0 W/m 0,5 C 2,3 C 4,8 km/h (1 Bft) 100,00 %
26.09.2018 00:26 2,3 C 16,7 C 0,0 C 88 % 1039,0 hPa 0,0 l/m 2,1 km/h (1 Bft) S-SW 194 0 min 0,000 mm 0,0 UV-I 0 W/m 0,5 C 2,3 C 3,2 km/h (1 Bft) 100,00 %
26.09.2018 00:28 2,4 C 16,7 C 0,0 C 89 % 1039,0 hPa 0,0 l/m 0,4 km/h (0 Bft) S-SW 194 0 min 0,000 mm 0,0 UV-I 0 W/m 0,8 C 2,4 C 1,6 km/h (1 Bft) 96,00 %
26.09.2018 00:30 2,6 C 16,7 C 0,0 C 89 % 1039,1 hPa 0,0 l/m 0,0 km/h (0 Bft) S-SW 194 0 min 0,000 mm 0,0 UV-I 0 W/m 1,0 C 2,6 C 0,0 km/h (0 Bft) 100,00 %
26.09.2018 00:32 2,7 C 16,7 C 0,0 C 89 % 1039,1 hPa 0,0 l/m 0,0 km/h (0 Bft) S-SW 194 0 min 0,000 mm 0,0 UV-I 0 W/m 1,1 C 2,7 C 0,0 km/h (0 Bft) 97,87 %
26.09.2018 00:34 2,6 C 16,7 C -0,6 C 89 % 1039,1 hPa 0,0 l/m 0,0 km/h (0 Bft) S-SW 194 0 min 0,000 mm 0,0 UV-I 0 W/m 1,0 C 2,6 C 0,0 km/h (0 Bft) 97,87 %
26.09.2018 00:36 2,6 C 16,7 C -0,6 C 89 % 1039,1 hPa 0,0 l/m 0,0 km/h (0 Bft) S-SW 194 0 min 0,000 mm 0,0 UV-I 0 W/m 1,0 C 2,6 C 0,0 km/h (0 Bft) 95,74 %
26.09.2018 00:38 2,6 C 16,7 C -0,6 C 90 % 1039,1 hPa 0,0 l/m 0,3 km/h (0 Bft) S-SW 194 0 min 0,000 mm 0,0 UV-I 0 W/m 1,1 C 2,6 C 1,6 km/h (1 Bft) 95,74 %
26.09.2018 00:40 2,6 C 16,7 C 0,0 C 90 % 1039,1 hPa 0,0 l/m 1,3 km/h (1 Bft) S-SW 194 0 min 0,000 mm 0,0 UV-I 0 W/m 1,1 C 2,6 C 1,6 km/h (1 Bft) 95,74 %
26.09.2018 00:42 2,3 C 16,7 C 0,0 C 89 % 1039,0 hPa 0,0 l/m 1,9 km/h (1 Bft) S-SW 194 0 min 0,000 mm 0,0 UV-I 0 W/m 0,7 C 2,3 C 3,2 km/h (1 Bft) 95,74 %
26.09.2018 00:44 2,1 C 16,7 C 0,0 C 88 % 1038,9 hPa 0,0 l/m 2,7 km/h (1 Bft) S-SW 194 0 min 0,000 mm 0,0 UV-I 0 W/m 0,3 C 2,1 C 3,2 km/h (1 Bft) 91,49 %
26.09.2018 00:46 1,8 C 16,7 C 0,0 C 89 % 1038,9 hPa 0,0 l/m 3,2 km/h (1 Bft) S-SW 194 0 min 0,000 mm 0,0 UV-I 0 W/m 0,2 C 1,8 C 4,8 km/h (1 Bft) 95,74 %
26.09.2018 00:48 1,8 C 16,7 C 0,0 C 90 % 1038,9 hPa 0,0 l/m 3,2 km/h (1 Bft) S-SW 194 0 min 0,000 mm 0,0 UV-I 0 W/m 0,3 C 1,8 C 3,2 km/h (1 Bft) 96,00 %
26.09.2018 00:50 2,0 C 16,7 C 0,0 C 90 % 1038,9 hPa 0,0 l/m 3,1 km/h (1 Bft) S-SW 194 0 min 0,000 mm 0,0 UV-I 0 W/m 0,5 C 2,0 C 3,2 km/h (1 Bft) 95,24 %
26.09.2018 00:52 2,1 C 16,7 C 0,0 C 90 % 1039,0 hPa 0,0 l/m 1,0 km/h (0 Bft) S-SW 194 0 min 0,000 mm 0,0 UV-I 0 W/m 0,6 C 2,1 C 3,2 km/h (1 Bft) 93,62 %
26.09.2018 00:54 2,2 C 16,7 C 0,0 C 90 % 1038,9 hPa 0,0 l/m 0,0 km/h (0 Bft) S-SW 194 0 min 0,000 mm 0,0 UV-I 0 W/m 0,7 C 2,2 C 0,0 km/h (0 Bft) 94,00 %
26.09.2018 00:56 2,4 C 16,7 C -0,6 C 90 % 1038,9 hPa 0,0 l/m 0,0 km/h (0 Bft) S-SW 194 0 min 0,000 mm 0,0 UV-I 0 W/m 0,9 C 2,4 C 0,0 km/h (0 Bft) 95,74 %
26.09.2018 00:58 2,6 C 16,7 C 0,0 C 90 % 1039,0 hPa 0,0 l/m 0,0 km/h (0 Bft) S-SW 194 0 min 0,000 mm 0,0 UV-I 0 W/m 1,1 C 2,6 C 0,0 km/h (0 Bft) 97,87 %
26.09.2018 01:00 2,6 C 16,7 C 0,0 C 89 % 1039,0 hPa 0,0 l/m 0,0 km/h (0 Bft) S-SW 194 0 min 0,000 mm 0,0 UV-I 0 W/m 1,0 C 2,6 C 0,0 km/h (0 Bft) 97,87 %
26.09.2018 01:02 2,6 C 16,7 C -0,6 C 89 % 1038,9 hPa 0,0 l/m 0,0 km/h (0 Bft) S-SW 194 0 min 0,000 mm 0,0 UV-I 0 W/m 1,0 C 2,6 C 0,0 km/h (0 Bft) 98,00 %
26.09.2018 01:04 2,5 C 16,7 C -0,6 C 89 % 1038,9 hPa 0,0 l/m 0,0 km/h (0 Bft) S-SW 194 0 min 0,000 mm 0,0 UV-I 0 W/m 0,9 C 2,5 C 0,0 km/h (0 Bft) 94,74 %
26.09.2018 01:06 2,3 C 16,7 C -0,6 C 89 % 1039,0 hPa 0,0 l/m 0,0 km/h (0 Bft) S-SW 194 0 min 0,000 mm 0,0 UV-I 0 W/m 0,7 C 2,3 C 0,0 km/h (0 Bft) 93,62 %
26.09.2018 01:08 2,1 C 16,7 C -0,6 C 88 % 1038,9 hPa 0,0 l/m 0,5 km/h (0 Bft) S-SW 194 0 min 0,000 mm 0,0 UV-I 0 W/m 0,3 C 2,1 C 1,6 km/h (1 Bft) 93,62 %
26.09.2018 01:10 1,9 C 16,7 C -0,6 C 89 % 1038,9 hPa 0,0 l/m 1,4 km/h (1 Bft) S-SW 194 0 min 0,000 mm 0,0 UV-I 0 W/m 0,3 C 1,9 C 3,2 km/h (1 Bft) 93,62 %
26.09.2018 01:12 1,8 C 16,7 C 0,0 C 89 % 1038,9 hPa 0,0 l/m 1,0 km/h (0 Bft) S-SW 194 0 min 0,000 mm 0,0 UV-I 0 W/m 0,2 C 1,8 C 1,6 km/h (1 Bft) 93,62 %
26.09.2018 01:14 1,8 C 16,7 C -0,6 C 90 % 1039,0 hPa 0,0 l/m 0,6 km/h (0 Bft) S-SW 194 0 min 0,000 mm 0,0 UV-I 0 W/m 0,3 C 1,8 C 1,6 km/h (1 Bft) 95,74 %
26.09.2018 01:16 1,9 C 16,7 C -0,6 C 90 % 1038,9 hPa 0,0 l/m 0,0 km/h (0 Bft) S-SW 194 0 min 0,000 mm 0,0 UV-I 0 W/m 0,4 C 1,9 C 0,0 km/h (0 Bft) 97,87 %
26.09.2018 01:18 2,1 C 16,7 C -0,6 C 91 % 1039,0 hPa 0,0 l/m 0,0 km/h (0 Bft) S-SW 194 0 min 0,000 mm 0,0 UV-I 0 W/m 0,8 C 2,1 C 0,0 km/h (0 Bft) 97,87 %
26.09.2018 01:20 2,1 C 16,7 C -0,6 C 90 % 1038,9 hPa 0,0 l/m 0,0 km/h (0 Bft) S-SW 194 0 min 0,000 mm 0,0 UV-I 0 W/m 0,6 C 2,1 C 0,0 km/h (0 Bft) 96,00 %
26.09.2018 01:22 1,9 C 16,7 C -0,6 C 90 % 1038,9 hPa 0,0 l/m 0,0 km/h (0 Bft) S-SW 194 0 min 0,000 mm 0,0 UV-I 0 W/m 0,4 C 1,9 C 0,0 km/h (0 Bft) 100,00 %
26.09.2018 01:24 1,9 C 16,7 C -0,6 C 90 % 1038,9 hPa 0,0 l/m 0,0 km/h (0 Bft) S-SW 194 0 min 0,000 mm 0,0 UV-I 0 W/m 0,4 C 1,9 C 0,0 km/h (0 Bft) 100,00 %
26.09.2018 01:26 2,0 C 16,7 C -0,6 C 91 % 1038,9 hPa 0,0 l/m 0,0 km/h (0 Bft) S-SW 194 0 min 0,000 mm 0,0 UV-I 0 W/m 0,7 C 2,0 C 0,0 km/h (0 Bft) 100,00 %
26.09.2018 01:28 2,2 C 16,7 C -0,6 C 91 % 1038,8 hPa 0,0 l/m 0,0 km/h (0 Bft) S-SW 194 0 min 0,000 mm 0,0 UV-I 0 W/m 0,9 C 2,2 C 0,0 km/h (0 Bft) 98,11 %
26.09.2018 01:30 2,2 C 16,7 C -1,1 C 90 % 1038,8 hPa 0,0 l/m 0,0 km/h (0 Bft) S-SW 194 0 min 0,000 mm 0,0 UV-I 0 W/m 0,7 C 2,2 C 0,0 km/h (0 Bft) 100,00 %
26.09.2018 01:32 2,2 C 16,7 C -1,1 C 90 % 1038,8 hPa 0,0 l/m 0,0 km/h (0 Bft) S-SW 194 0 min 0,000 mm 0,0 UV-I 0 W/m 0,7 C 2,2 C 0,0 km/h (0 Bft) 100,00 %
26.09.2018 01:34 2,2 C 16,7 C -1,1 C 90 % 1038,7 hPa 0,0 l/m 0,0 km/h (0 Bft) S-SW 194 0 min 0,000 mm 0,0 UV-I 0 W/m 0,7 C 2,2 C 0,0 km/h (0 Bft) 100,00 %
26.09.2018 01:36 2,1 C 16,7 C -0,6 C 90 % 1038,7 hPa 0,0 l/m 0,0 km/h (0 Bft) S-SW 194 0 min 0,000 mm 0,0 UV-I 0 W/m 0,6 C 2,1 C 0,0 km/h (0 Bft) 100,00 %
26.09.2018 01:38 2,0 C 16,7 C -1,1 C 90 % 1038,7 hPa 0,0 l/m 0,0 km/h (0 Bft) S-SW 194 0 min 0,000 mm 0,0 UV-I 0 W/m 0,5 C 2,0 C 0,0 km/h (0 Bft) 100,00 %
26.09.2018 01:40 1,9 C 16,7 C -1,1 C 90 % 1038,8 hPa 0,0 l/m 0,0 km/h (0 Bft) S-SW 194 0 min 0,000 mm 0,0 UV-I 0 W/m 0,4 C 1,9 C 0,0 km/h (0 Bft) 100,00 %
26.09.2018 01:42 1,9 C 16,7 C -1,1 C 90 % 1038,7 hPa 0,0 l/m 0,0 km/h (0 Bft) S-SW 194 0 min 0,000 mm 0,0 UV-I 0 W/m 0,4 C 1,9 C 0,0 km/h (0 Bft) 95,74 %
26.09.2018 01:44 1,8 C 16,7 C -1,1 C 90 % 1038,7 hPa 0,0 l/m 0,0 km/h (0 Bft) S-SW 194 0 min 0,000 mm 0,0 UV-I 0 W/m 0,3 C 1,8 C 0,0 km/h (0 Bft) 100,00 %
26.09.2018 01:46 1,8 C 16,7 C -1,1 C 90 % 1038,6 hPa 0,0 l/m 0,0 km/h (0 Bft) S-SW 194 0 min 0,000 mm 0,0 UV-I 0 W/m 0,3 C 1,8 C 0,0 km/h (0 Bft) 97,87 %
26.09.2018 01:48 1,7 C 16,7 C -1,1 C 91 % 1038,6 hPa 0,0 l/m 0,3 km/h (0 Bft) S-SW 194 0 min 0,000 mm 0,0 UV-I 0 W/m 0,4 C 1,7 C 1,6 km/h (1 Bft) 98,00 %
26.09.2018 01:50 1,7 C 16,7 C -0,6 C 90 % 1038,6 hPa 0,0 l/m 1,0 km/h (0 Bft) S-SW 194 0 min 0,000 mm 0,0 UV-I 0 W/m 0,2 C 1,7 C 1,6 km/h (1 Bft) 98,00 %
26.09.2018 01:52 1,7 C 16,7 C -0,6 C 91 % 1038,6 hPa 0,0 l/m 0,9 km/h (0 Bft) S-SW 194 0 min 0,000 mm 0,0 UV-I 0 W/m 0,4 C 1,7 C 1,6 km/h (1 Bft) 95,74 %
26.09.2018 01:54 1,7 C 16,7 C -0,6 C 90 % 1038,6 hPa 0,0 l/m 0,6 km/h (0 Bft) S-SW 194 0 min 0,000 mm 0,0 UV-I 0 W/m 0,2 C 1,7 C 1,6 km/h (1 Bft) 93,62 %
26.09.2018 01:56 1,6 C 16,7 C -0,6 C 90 % 1038,6 hPa 0,0 l/m 0,0 km/h (0 Bft) S-SW 194 0 min 0,000 mm 0,0 UV-I 0 W/m 0,1 C 1,6 C 0,0 km/h (0 Bft) 97,87 %
26.09.2018 01:58 1,5 C 16,7 C -1,1 C 90 % 1038,6 hPa 0,0 l/m 0,0 km/h (0 Bft) S-SW 194 0 min 0,000 mm 0,0 UV-I 0 W/m 0,0 C 1,5 C 0,0 km/h (0 Bft) 95,83 %
26.09.2018 02:00 1,6 C 16,7 C -1,1 C 91 % 1038,6 hPa 0,0 l/m 0,6 km/h (0 Bft) S-SW 194 0 min 0,000 mm 0,0 UV-I 0 W/m 0,3 C 1,6 C 1,6 km/h (1 Bft) 98,44 %
26.09.2018 02:02 1,6 C 16,7 C -1,1 C 91 % 1038,7 hPa 0,0 l/m 0,4 km/h (0 Bft) S-SW 194 0 min 0,000 mm 0,0 UV-I 0 W/m 0,3 C 1,6 C 1,6 km/h (1 Bft) 94,00 %
26.09.2018 02:04 1,6 C 16,7 C -1,1 C 91 % 1038,7 hPa 0,0 l/m 0,0 km/h (0 Bft) S-SW 194 0 min 0,000 mm 0,0 UV-I 0 W/m 0,3 C 1,6 C 0,0 km/h (0 Bft) 93,62 %
26.09.2018 02:06 1,7 C 16,7 C -1,1 C 91 % 1038,7 hPa 0,0 l/m 0,0 km/h (0 Bft) S-SW 194 0 min 0,000 mm 0,0 UV-I 0 W/m 0,4 C 1,7 C 0,0 km/h (0 Bft) 97,87 %
26.09.2018 02:08 1,7 C 16,7 C -1,1 C 91 % 1038,6 hPa 0,0 l/m 0,0 km/h (0 Bft) S-SW 194 0 min 0,000 mm 0,0 UV-I 0 W/m 0,4 C 1,7 C 0,0 km/h (0 Bft) 97,87 %
26.09.2018 02:10 1,6 C 16,7 C -1,1 C 91 % 1038,6 hPa 0,0 l/m 0,0 km/h (0 Bft) S-SW 194 0 min 0,000 mm 0,0 UV-I 0 W/m 0,3 C 1,6 C 0,0 km/h (0 Bft) 97,92 %
26.09.2018 02:12 1,5 C 16,7 C -1,1 C 91 % 1038,6 hPa 0,0 l/m 0,4 km/h (0 Bft) S-SW 194 0 min 0,000 mm 0,0 UV-I 0 W/m 0,2 C 1,5 C 1,6 km/h (1 Bft) 98,00 %
26.09.2018 02:14 1,6 C 16,7 C -1,1 C 91 % 1038,5 hPa 0,0 l/m 1,3 km/h (1 Bft) S-SW 194 0 min 0,000 mm 0,0 UV-I 0 W/m 0,3 C 1,6 C 1,6 km/h (1 Bft) 97,87 %
26.09.2018 02:16 1,6 C 16,7 C -1,7 C 92 % 1038,5 hPa 0,0 l/m 1,5 km/h (1 Bft) S-SW 194 0 min 0,000 mm 0,0 UV-I 0 W/m 0,4 C 1,6 C 3,2 km/h (1 Bft) 97,87 %
26.09.2018 02:18 1,7 C 16,7 C -1,7 C 92 % 1038,6 hPa 0,0 l/m 2,8 km/h (1 Bft) S-SW 194 0 min 0,000 mm 0,0 UV-I 0 W/m 0,5 C 1,7 C 3,2 km/h (1 Bft) 97,87 %
26.09.2018 02:20 1,7 C 16,7 C -1,1 C 92 % 1038,6 hPa 0,0 l/m 2,7 km/h (1 Bft) S-SW 194 0 min 0,000 mm 0,0 UV-I 0 W/m 0,5 C 1,7 C 3,2 km/h (1 Bft) 97,37 %
26.09.2018 02:22 1,7 C 16,7 C -1,1 C 91 % 1038,6 hPa 0,0 l/m 3,7 km/h (1 Bft) NO 49 0 min 0,000 mm 0,0 UV-I 0 W/m 0,4 C 1,7 C 4,8 km/h (1 Bft) 97,87 %
26.09.2018 02:24 1,7 C 16,7 C -1,1 C 92 % 1038,5 hPa 0,0 l/m 3,2 km/h (1 Bft) NO 50 0 min 0,000 mm 0,0 UV-I 0 W/m 0,5 C 1,7 C 4,8 km/h (1 Bft) 97,87 %
26.09.2018 02:26 1,7 C 16,7 C -1,1 C 92 % 1038,5 hPa 0,0 l/m 4,1 km/h (1 Bft) O-NO 62 0 min 0,000 mm 0,0 UV-I 0 W/m 0,5 C 1,7 C 6,4 km/h (2 Bft) 94,34 %
26.09.2018 02:28 1,8 C 16,7 C -0,6 C 92 % 1038,5 hPa 0,0 l/m 4,4 km/h (1 Bft) O-NO 68 0 min 0,000 mm 0,0 UV-I 0 W/m 0,6 C 1,8 C 6,4 km/h (2 Bft) 94,74 %
26.09.2018 02:30 1,8 C 16,7 C -0,6 C 92 % 1038,5 hPa 0,0 l/m 5,6 km/h (1 Bft) O-NO 59 0 min 0,000 mm 0,0 UV-I 0 W/m 0,6 C 1,8 C 6,4 km/h (2 Bft) 97,87 %
26.09.2018 02:32 1,9 C 16,7 C 0,0 C 92 % 1038,5 hPa 0,0 l/m 4,4 km/h (1 Bft) NO 56 0 min 0,000 mm 0,0 UV-I 0 W/m 0,7 C 1,9 C 6,4 km/h (2 Bft) 97,87 %
26.09.2018 02:34 1,8 C 16,7 C 0,0 C 92 % 1038,4 hPa 0,0 l/m 3,6 km/h (1 Bft) NO 56 0 min 0,000 mm 0,0 UV-I 0 W/m 0,6 C 1,8 C 4,8 km/h (1 Bft) 93,62 %
26.09.2018 02:36 1,8 C 16,7 C -0,6 C 92 % 1038,4 hPa 0,0 l/m 3,8 km/h (1 Bft) O-NO 61 0 min 0,000 mm 0,0 UV-I 0 W/m 0,6 C 1,8 C 4,8 km/h (1 Bft) 97,87 %
26.09.2018 02:38 1,9 C 16,7 C -0,6 C 92 % 1038,4 hPa 0,0 l/m 4,9 km/h (1 Bft) O-NO 67 0 min 0,000 mm 0,0 UV-I 0 W/m 0,7 C 1,9 C 6,4 km/h (2 Bft) 98,00 %
26.09.2018 02:40 2,2 C 16,7 C 0,0 C 92 % 1038,3 hPa 0,0 l/m 5,6 km/h (1 Bft) O-NO 74 0 min 0,000 mm 0,0 UV-I 0 W/m 1,0 C 2,2 C 8,0 km/h (2 Bft) 95,74 %
26.09.2018 02:42 2,3 C 16,7 C 0,0 C 92 % 1038,3 hPa 0,0 l/m 5,2 km/h (1 Bft) O-NO 71 0 min 0,000 mm 0,0 UV-I 0 W/m 1,1 C 2,3 C 6,4 km/h (2 Bft) 100,00 %
26.09.2018 02:44 2,4 C 16,7 C 0,0 C 92 % 1038,3 hPa 0,0 l/m 4,5 km/h (1 Bft) O-NO 71 0 min 0,000 mm 0,0 UV-I 0 W/m 1,2 C 2,4 C 6,4 km/h (2 Bft) 100,00 %
26.09.2018 02:46 2,6 C 16,7 C 0,0 C 91 % 1038,2 hPa 0,0 l/m 4,3 km/h (1 Bft) O-NO 71 0 min 0,000 mm 0,0 UV-I 0 W/m 1,3 C 2,6 C 6,4 km/h (2 Bft) 100,00 %
26.09.2018 02:48 2,6 C 16,7 C 0,0 C 91 % 1038,2 hPa 0,0 l/m 4,0 km/h (1 Bft) O-NO 71 0 min 0,000 mm 0,0 UV-I 0 W/m 1,3 C 2,6 C 6,4 km/h (2 Bft) 100,00 %
26.09.2018 02:50 2,5 C 16,7 C 0,0 C 91 % 1038,2 hPa 0,0 l/m 4,7 km/h (1 Bft) O-NO 71 0 min 0,000 mm 0,0 UV-I 0 W/m 1,2 C 2,5 C 6,4 km/h (2 Bft) 97,92 %
26.09.2018 02:52 2,5 C 16,7 C 0,0 C 91 % 1038,2 hPa 0,0 l/m 5,4 km/h (1 Bft) O-NO 68 0 min 0,000 mm 0,0 UV-I 0 W/m 1,2 C 2,5 C 6,4 km/h (2 Bft) 95,74 %
26.09.2018 02:54 2,4 C 16,7 C 0,0 C 91 % 1038,2 hPa 0,0 l/m 4,2 km/h (1 Bft) O-NO 68 0 min 0,000 mm 0,0 UV-I 0 W/m 1,1 C 2,4 C 4,8 km/h (1 Bft) 92,11 %
26.09.2018 02:56 2,4 C 16,7 C 0,0 C 91 % 1038,3 hPa 0,0 l/m 2,9 km/h (1 Bft) O-NO 68 0 min 0,000 mm 0,0 UV-I 0 W/m 1,1 C 2,4 C 4,8 km/h (1 Bft) 96,00 %
26.09.2018 02:58 2,4 C 16,7 C 0,0 C 91 % 1038,2 hPa 0,0 l/m 2,4 km/h (1 Bft) O-NO 68 0 min 0,000 mm 0,0 UV-I 0 W/m 1,1 C 2,4 C 4,8 km/h (1 Bft) 95,74 %
26.09.2018 03:00 2,3 C 16,7 C -0,6 C 91 % 1038,2 hPa 0,0 l/m 1,9 km/h (1 Bft) O-NO 68 0 min 0,000 mm 0,0 UV-I 0 W/m 1,0 C 2,3 C 3,2 km/h (1 Bft) 91,49 %
26.09.2018 03:02 2,2 C 16,7 C -0,6 C 90 % 1038,2 hPa 0,0 l/m 1,5 km/h (1 Bft) O-NO 68 0 min 0,000 mm 0,0 UV-I 0 W/m 0,7 C 2,2 C 3,2 km/h (1 Bft) 96,00 %
26.09.2018 03:04 2,0 C 16,7 C -0,6 C 90 % 1038,2 hPa 0,0 l/m 0,6 km/h (0 Bft) O-NO 68 0 min 0,000 mm 0,0 UV-I 0 W/m 0,5 C 2,0 C 1,6 km/h (1 Bft) 96,00 %
26.09.2018 03:06 1,8 C 16,7 C -0,6 C 90 % 1038,1 hPa 0,0 l/m 1,8 km/h (1 Bft) O-NO 68 0 min 0,000 mm 0,0 UV-I 0 W/m 0,3 C 1,8 C 3,2 km/h (1 Bft) 93,62 %
26.09.2018 03:08 1,6 C 16,7 C -1,1 C 91 % 1038,0 hPa 0,0 l/m 4,9 km/h (1 Bft) O-SO 107 0 min 0,000 mm 0,0 UV-I 0 W/m 0,3 C 1,6 C 9,7 km/h (2 Bft) 93,62 %
26.09.2018 03:10 1,6 C 16,7 C -1,1 C 91 % 1038,0 hPa 0,0 l/m 6,7 km/h (2 Bft) O 99 0 min 0,000 mm 0,0 UV-I 0 W/m 0,3 C 1,3 C 11,3 km/h (2 Bft) 97,37 %
26.09.2018 03:12 1,8 C 16,1 C -0,6 C 92 % 1038,0 hPa 0,0 l/m 7,1 km/h (2 Bft) O 89 0 min 0,000 mm 0,0 UV-I 0 W/m 0,6 C 1,1 C 11,3 km/h (2 Bft) 91,49 %
26.09.2018 03:14 2,1 C 16,1 C -0,6 C 92 % 1037,9 hPa 0,0 l/m 5,5 km/h (1 Bft) O-SO 102 0 min 0,000 mm 0,0 UV-I 0 W/m 0,9 C 2,1 C 9,7 km/h (2 Bft) 94,00 %
26.09.2018 03:16 2,4 C 16,1 C -0,6 C 92 % 1037,9 hPa 0,0 l/m 5,3 km/h (1 Bft) O 101 0 min 0,000 mm 0,0 UV-I 0 W/m 1,2 C 2,4 C 9,7 km/h (2 Bft) 91,49 %
26.09.2018 03:18 2,6 C 16,1 C -0,6 C 91 % 1037,9 hPa 0,0 l/m 8,8 km/h (2 Bft) O-SO 113 0 min 0,000 mm 0,0 UV-I 0 W/m 1,3 C 0,4 C 11,3 km/h (2 Bft) 93,62 %
26.09.2018 03:20 2,7 C 16,1 C -0,6 C 90 % 1037,9 hPa 0,0 l/m 7,4 km/h (2 Bft) O 90 0 min 0,000 mm 0,0 UV-I 0 W/m 1,2 C 1,7 C 11,3 km/h (2 Bft) 97,83 %
26.09.2018 03:22 2,8 C 16,1 C 0,0 C 90 % 1037,9 hPa 0,0 l/m 7,5 km/h (2 Bft) O 92 0 min 0,000 mm 0,0 UV-I 0 W/m 1,3 C 1,8 C 11,3 km/h (2 Bft) 95,74 %
26.09.2018 03:24 2,8 C 16,1 C 0,0 C 89 % 1038,0 hPa 0,0 l/m 4,5 km/h (1 Bft) O-SO 111 0 min 0,000 mm 0,0 UV-I 0 W/m 1,2 C 2,8 C 9,7 km/h (2 Bft) 97,44 %
26.09.2018 03:26 2,8 C 16,1 C 0,0 C 89 % 1038,0 hPa 0,0 l/m 5,7 km/h (1 Bft) O 90 0 min 0,000 mm 0,0 UV-I 0 W/m 1,2 C 2,8 C 9,7 km/h (2 Bft) 98,00 %
26.09.2018 03:28 2,9 C 16,1 C 0,0 C 89 % 1038,0 hPa 0,0 l/m 4,0 km/h (1 Bft) O 86 0 min 0,000 mm 0,0 UV-I 0 W/m 1,3 C 2,9 C 6,4 km/h (2 Bft) 97,87 %
26.09.2018 03:30 3,1 C 16,1 C 0,0 C 88 % 1037,9 hPa 0,0 l/m 5,1 km/h (1 Bft) O 101 0 min 0,000 mm 0,0 UV-I 0 W/m 1,3 C 3,1 C 11,3 km/h (2 Bft) 97,87 %
26.09.2018 03:32 3,1 C 16,1 C 0,0 C 88 % 1037,9 hPa 0,0 l/m 7,5 km/h (2 Bft) O 95 0 min 0,000 mm 0,0 UV-I 0 W/m 1,3 C 2,1 C 11,3 km/h (2 Bft) 97,87 %
26.09.2018 03:34 3,1 C 16,1 C 0,0 C 88 % 1037,8 hPa 0,0 l/m 7,7 km/h (2 Bft) O 94 0 min 0,000 mm 0,0 UV-I 0 W/m 1,3 C 1,9 C 11,3 km/h (2 Bft) 100,00 %
26.09.2018 03:36 3,1 C 16,1 C 0,0 C 87 % 1037,7 hPa 0,0 l/m 6,1 km/h (2 Bft) O 97 0 min 0,000 mm 0,0 UV-I 0 W/m 1,2 C 3,1 C 9,7 km/h (2 Bft) 100,00 %
26.09.2018 03:38 3,1 C 16,1 C 0,0 C 87 % 1037,7 hPa 0,0 l/m 6,8 km/h (2 Bft) O-SO 121 0 min 0,000 mm 0,0 UV-I 0 W/m 1,2 C 2,7 C 9,7 km/h (2 Bft) 100,00 %
26.09.2018 03:40 3,0 C 16,1 C 0,0 C 87 % 1037,6 hPa 0,0 l/m 7,1 km/h (2 Bft) O-SO 108 0 min 0,000 mm 0,0 UV-I 0 W/m 1,1 C 2,3 C 11,3 km/h (2 Bft) 100,00 %
26.09.2018 03:42 3,0 C 16,1 C 0,0 C 87 % 1037,6 hPa 0,0 l/m 6,9 km/h (2 Bft) O-SO 120 0 min 0,000 mm 0,0 UV-I 0 W/m 1,1 C 2,5 C 11,3 km/h (2 Bft) 93,62 %
26.09.2018 03:44 3,1 C 16,1 C 0,0 C 87 % 1037,5 hPa 0,0 l/m 7,9 km/h (2 Bft) O-SO 112 0 min 0,000 mm 0,0 UV-I 0 W/m 1,2 C 1,7 C 11,3 km/h (2 Bft) 97,87 %
26.09.2018 03:46 3,1 C 16,1 C 0,6 C 87 % 1037,5 hPa 0,0 l/m 8,4 km/h (2 Bft) O 98 0 min 0,000 mm 0,0 UV-I 0 W/m 1,2 C 1,3 C 11,3 km/h (2 Bft) 100,00 %
26.09.2018 03:48 3,1 C 16,1 C 0,6 C 87 % 1037,5 hPa 0,0 l/m 9,1 km/h (2 Bft) O-NO 70 0 min 0,000 mm 0,0 UV-I 0 W/m 1,2 C 0,7 C 11,3 km/h (2 Bft) 100,00 %
26.09.2018 03:50 3,2 C 16,1 C 0,6 C 87 % 1037,5 hPa 0,0 l/m 8,4 km/h (2 Bft) O-NO 77 0 min 0,000 mm 0,0 UV-I 0 W/m 1,2 C 1,4 C 12,9 km/h (3 Bft) 96,00 %
26.09.2018 03:52 3,1 C 16,1 C 0,6 C 86 % 1037,4 hPa 0,0 l/m 7,9 km/h (2 Bft) O 89 0 min 0,000 mm 0,0 UV-I 0 W/m 1,0 C 1,7 C 12,9 km/h (3 Bft) 97,87 %
26.09.2018 03:54 3,0 C 16,1 C 0,6 C 86 % 1037,4 hPa 0,0 l/m 7,8 km/h (2 Bft) O 89 0 min 0,000 mm 0,0 UV-I 0 W/m 0,9 C 1,7 C 11,3 km/h (2 Bft) 100,00 %
26.09.2018 03:56 2,8 C 16,1 C 0,6 C 87 % 1037,3 hPa 0,0 l/m 9,5 km/h (2 Bft) O-SO 103 0 min 0,000 mm 0,0 UV-I 0 W/m 0,9 C 0,0 C 12,9 km/h (3 Bft) 100,00 %
26.09.2018 03:58 2,8 C 16,1 C 0,6 C 87 % 1037,2 hPa 0,0 l/m 9,0 km/h (2 Bft) O 88 0 min 0,000 mm 0,0 UV-I 0 W/m 0,9 C 0,4 C 12,9 km/h (3 Bft) 100,00 %
26.09.2018 04:00 2,7 C 16,1 C 0,6 C 87 % 1037,3 hPa 0,0 l/m 6,8 km/h (2 Bft) O-NO 71 0 min 0,000 mm 0,0 UV-I 0 W/m 0,8 C 2,3 C 11,3 km/h (2 Bft) 100,00 %
26.09.2018 04:02 2,6 C 16,1 C 0,6 C 87 % 1037,3 hPa 0,0 l/m 6,8 km/h (2 Bft) O 82 0 min 0,000 mm 0,0 UV-I 0 W/m 0,7 C 2,2 C 8,0 km/h (2 Bft) 95,45 %
26.09.2018 04:04 2,6 C 16,1 C 0,0 C 88 % 1037,1 hPa 0,0 l/m 6,3 km/h (2 Bft) O 90 0 min 0,000 mm 0,0 UV-I 0 W/m 0,8 C 2,6 C 11,3 km/h (2 Bft) 100,00 %
26.09.2018 04:06 2,4 C 16,1 C 0,0 C 88 % 1036,9 hPa 0,0 l/m 6,8 km/h (2 Bft) O 92 0 min 0,000 mm 0,0 UV-I 0 W/m 0,6 C 2,0 C 11,3 km/h (2 Bft) 100,00 %
26.09.2018 04:08 2,4 C 16,1 C 0,0 C 88 % 1036,9 hPa 0,0 l/m 7,2 km/h (2 Bft) O 99 0 min 0,000 mm 0,0 UV-I 0 W/m 0,6 C 1,6 C 9,7 km/h (2 Bft) 100,00 %
26.09.2018 04:11 2,4 C 16,1 C 0,0 C 88 % 1036,9 hPa 0,0 l/m 7,7 km/h (2 Bft) O-SO 103 0 min 0,000 mm 0,0 UV-I 0 W/m 0,6 C 1,1 C 11,3 km/h (2 Bft) 96,34 %
26.09.2018 04:12 2,4 C 16,1 C 0,0 C 88 % 1036,9 hPa 0,0 l/m 8,4 km/h (2 Bft) O 96 0 min 0,000 mm 0,0 UV-I 0 W/m 0,6 C 0,5 C 11,3 km/h (2 Bft) 100,00 %
26.09.2018 04:14 2,4 C 16,1 C 0,0 C 89 % 1036,9 hPa 0,0 l/m 8,4 km/h (2 Bft) O-SO 105 0 min 0,000 mm 0,0 UV-I 0 W/m 0,8 C 0,5 C 11,3 km/h (2 Bft) 95,74 %
26.09.2018 04:16 2,4 C 16,1 C 0,0 C 89 % 1036,9 hPa 0,0 l/m 8,5 km/h (2 Bft) O-SO 108 0 min 0,000 mm 0,0 UV-I 0 W/m 0,8 C 0,4 C 12,9 km/h (3 Bft) 97,87 %
26.09.2018 04:18 2,4 C 16,1 C 0,0 C 89 % 1037,0 hPa 0,0 l/m 4,2 km/h (1 Bft) O 95 0 min 0,000 mm 0,0 UV-I 0 W/m 0,8 C 2,4 C 6,4 km/h (2 Bft) 95,74 %
26.09.2018 04:21 2,4 C 16,1 C 0,0 C 89 % 1037,0 hPa 0,0 l/m 5,5 km/h (1 Bft) O 90 0 min 0,000 mm 0,0 UV-I 0 W/m 0,8 C 2,4 C 12,9 km/h (3 Bft) 97,56 %
26.09.2018 04:22 2,4 C 16,1 C 0,0 C 89 % 1037,0 hPa 0,0 l/m 5,7 km/h (1 Bft) O-NO 77 0 min 0,000 mm 0,0 UV-I 0 W/m 0,8 C 2,4 C 6,4 km/h (2 Bft) 91,67 %
26.09.2018 04:24 2,4 C 16,1 C 0,0 C 89 % 1036,9 hPa 0,0 l/m 6,6 km/h (2 Bft) O 85 0 min 0,000 mm 0,0 UV-I 0 W/m 0,8 C 2,2 C 11,3 km/h (2 Bft) 95,74 %
26.09.2018 04:26 2,4 C 16,1 C 0,0 C 89 % 1036,9 hPa 0,0 l/m 5,8 km/h (2 Bft) O 80 0 min 0,000 mm 0,0 UV-I 0 W/m 0,8 C 2,4 C 11,3 km/h (2 Bft) 100,00 %
26.09.2018 04:28 2,3 C 16,1 C 0,0 C 88 % 1036,9 hPa 0,0 l/m 5,5 km/h (1 Bft) O-SO 103 0 min 0,000 mm 0,0 UV-I 0 W/m 0,5 C 2,3 C 9,7 km/h (2 Bft) 96,77 %
26.09.2018 04:30 2,3 C 16,1 C 0,0 C 88 % 1036,9 hPa 0,0 l/m 4,8 km/h (1 Bft) O-NO 77 0 min 0,000 mm 0,0 UV-I 0 W/m 0,5 C 2,3 C 9,7 km/h (2 Bft) 100,00 %
26.09.2018 04:32 2,2 C 16,1 C 0,0 C 88 % 1036,9 hPa 0,0 l/m 3,9 km/h (1 Bft) O-NO 77 0 min 0,000 mm 0,0 UV-I 0 W/m 0,4 C 2,2 C 6,4 km/h (2 Bft) 95,74 %
26.09.2018 04:34 2,1 C 16,1 C 0,0 C 89 % 1036,8 hPa 0,0 l/m 4,6 km/h (1 Bft) O-NO 74 0 min 0,000 mm 0,0 UV-I 0 W/m 0,5 C 2,1 C 6,4 km/h (2 Bft) 100,00 %
26.09.2018 04:36 2,1 C 16,1 C 0,0 C 89 % 1036,9 hPa 0,0 l/m 4,8 km/h (1 Bft) O 83 0 min 0,000 mm 0,0 UV-I 0 W/m 0,5 C 2,1 C 6,4 km/h (2 Bft) 100,00 %
26.09.2018 04:38 2,1 C 16,1 C 0,0 C 89 % 1036,8 hPa 0,0 l/m 4,5 km/h (1 Bft) O-NO 78 0 min 0,000 mm 0,0 UV-I 0 W/m 0,5 C 2,1 C 6,4 km/h (2 Bft) 97,87 %
26.09.2018 04:40 2,1 C 16,1 C 0,0 C 89 % 1036,8 hPa 0,0 l/m 4,4 km/h (1 Bft) O-NO 75 0 min 0,000 mm 0,0 UV-I 0 W/m 0,5 C 2,1 C 6,4 km/h (2 Bft) 100,00 %
26.09.2018 04:42 1,9 C 16,1 C -0,6 C 89 % 1036,8 hPa 0,0 l/m 3,9 km/h (1 Bft) O-NO 75 0 min 0,000 mm 0,0 UV-I 0 W/m 0,3 C 1,9 C 4,8 km/h (1 Bft) 98,00 %
26.09.2018 04:44 1,8 C 16,1 C -0,6 C 89 % 1036,8 hPa 0,0 l/m 3,9 km/h (1 Bft) O-NO 73 0 min 0,000 mm 0,0 UV-I 0 W/m 0,2 C 1,8 C 6,4 km/h (2 Bft) 96,00 %
26.09.2018 04:46 1,8 C 16,1 C -0,6 C 90 % 1036,8 hPa 0,0 l/m 3,3 km/h (1 Bft) O 88 0 min 0,000 mm 0,0 UV-I 0 W/m 0,3 C 1,8 C 4,8 km/h (1 Bft) 95,74 %
26.09.2018 04:48 1,8 C 16,1 C -0,6 C 90 % 1036,7 hPa 0,0 l/m 3,3 km/h (1 Bft) O 87 0 min 0,000 mm 0,0 UV-I 0 W/m 0,3 C 1,8 C 4,8 km/h (1 Bft) 97,87 %
26.09.2018 04:50 1,7 C 16,1 C -1,1 C 90 % 1036,8 hPa 0,0 l/m 3,7 km/h (1 Bft) O-NO 66 0 min 0,000 mm 0,0 UV-I 0 W/m 0,2 C 1,7 C 4,8 km/h (1 Bft) 97,87 %
26.09.2018 04:52 1,6 C 16,1 C -1,1 C 90 % 1036,8 hPa 0,0 l/m 3,6 km/h (1 Bft) O-NO 66 0 min 0,000 mm 0,0 UV-I 0 W/m 0,1 C 1,6 C 4,8 km/h (1 Bft) 95,74 %
26.09.2018 04:54 1,4 C 16,1 C -1,1 C 90 % 1036,9 hPa 0,0 l/m 3,4 km/h (1 Bft) NO 38 0 min 0,000 mm 0,0 UV-I 0 W/m -0,1 C 1,4 C 4,8 km/h (1 Bft) 96,00 %
26.09.2018 04:56 1,2 C 16,1 C -1,1 C 90 % 1036,9 hPa 0,0 l/m 3,6 km/h (1 Bft) NO 38 0 min 0,000 mm 0,0 UV-I 0 W/m -0,3 C 1,2 C 4,8 km/h (1 Bft) 95,74 %
26.09.2018 04:58 1,0 C 16,1 C -1,1 C 90 % 1036,9 hPa 0,0 l/m 3,9 km/h (1 Bft) NO 36 0 min 0,000 mm 0,0 UV-I 0 W/m -0,5 C 1,0 C 4,8 km/h (1 Bft) 93,62 %
26.09.2018 05:00 0,8 C 16,1 C -1,1 C 91 % 1036,9 hPa 0,0 l/m 4,4 km/h (1 Bft) NO 36 0 min 0,000 mm 0,0 UV-I 0 W/m -0,5 C 0,8 C 4,8 km/h (1 Bft) 89,36 %
26.09.2018 05:02 0,8 C 16,1 C -1,1 C 91 % 1036,9 hPa 0,0 l/m 4,7 km/h (1 Bft) NO 36 0 min 0,000 mm 0,0 UV-I 0 W/m -0,5 C 0,8 C 4,8 km/h (1 Bft) 95,74 %
26.09.2018 05:05 0,9 C 16,1 C -1,1 C 92 % 1037,0 hPa 0,0 l/m 4,8 km/h (1 Bft) NO 36 0 min 0,000 mm 0,0 UV-I 0 W/m -0,2 C 0,9 C 6,4 km/h (2 Bft) 94,92 %
26.09.2018 05:06 0,9 C 16,1 C -1,1 C 92 % 1037,0 hPa 0,0 l/m 5,9 km/h (2 Bft) NO 36 0 min 0,000 mm 0,0 UV-I 0 W/m -0,2 C 0,9 C 6,4 km/h (2 Bft) 96,15 %
26.09.2018 05:08 1,0 C 16,1 C -1,1 C 93 % 1037,0 hPa 0,0 l/m 4,7 km/h (1 Bft) NO 36 0 min 0,000 mm 0,0 UV-I 0 W/m -0,0 C 1,0 C 6,4 km/h (2 Bft) 95,74 %
26.09.2018 05:10 1,1 C 16,1 C -1,1 C 93 % 1037,1 hPa 0,0 l/m 5,4 km/h (1 Bft) NO 49 0 min 0,000 mm 0,0 UV-I 0 W/m 0,1 C 1,1 C 6,4 km/h (2 Bft) 95,74 %
26.09.2018 05:12 1,2 C 16,1 C -1,1 C 93 % 1037,0 hPa 0,0 l/m 6,3 km/h (2 Bft) NO 46 0 min 0,000 mm 0,0 UV-I 0 W/m 0,2 C 1,2 C 8,0 km/h (2 Bft) 94,00 %
26.09.2018 05:14 1,3 C 16,1 C -1,1 C 93 % 1037,1 hPa 0,0 l/m 3,9 km/h (1 Bft) NO 56 0 min 0,000 mm 0,0 UV-I 0 W/m 0,3 C 1,3 C 6,4 km/h (2 Bft) 93,62 %
26.09.2018 05:16 1,2 C 16,1 C -1,1 C 93 % 1037,1 hPa 0,0 l/m 2,2 km/h (1 Bft) NO 56 0 min 0,000 mm 0,0 UV-I 0 W/m 0,2 C 1,2 C 4,8 km/h (1 Bft) 95,74 %
26.09.2018 05:18 1,3 C 16,1 C -1,1 C 93 % 1037,0 hPa 0,0 l/m 2,6 km/h (1 Bft) NO 56 0 min 0,000 mm 0,0 UV-I 0 W/m 0,3 C 1,3 C 3,2 km/h (1 Bft) 91,49 %
26.09.2018 05:20 1,2 C 16,1 C -1,1 C 93 % 1037,0 hPa 0,0 l/m 3,7 km/h (1 Bft) NO 56 0 min 0,000 mm 0,0 UV-I 0 W/m 0,2 C 1,2 C 4,8 km/h (1 Bft) 92,00 %
26.09.2018 05:22 1,2 C 16,1 C -1,1 C 92 % 1037,0 hPa 0,0 l/m 4,1 km/h (1 Bft) NO 56 0 min 0,000 mm 0,0 UV-I 0 W/m 0,0 C 1,2 C 4,8 km/h (1 Bft) 91,67 %
26.09.2018 05:24 1,1 C 16,1 C -1,7 C 93 % 1037,0 hPa 0,0 l/m 3,9 km/h (1 Bft) NO 56 0 min 0,000 mm 0,0 UV-I 0 W/m 0,1 C 1,1 C 4,8 km/h (1 Bft) 96,00 %
26.09.2018 05:26 1,1 C 16,1 C -1,7 C 93 % 1037,0 hPa 0,0 l/m 4,6 km/h (1 Bft) NO 56 0 min 0,000 mm 0,0 UV-I 0 W/m 0,1 C 1,1 C 6,4 km/h (2 Bft) 89,36 %
26.09.2018 05:28 1,1 C 16,1 C -1,1 C 93 % 1037,1 hPa 0,0 l/m 3,9 km/h (1 Bft) NO 55 0 min 0,000 mm 0,0 UV-I 0 W/m 0,1 C 1,1 C 4,8 km/h (1 Bft) 93,62 %
26.09.2018 05:30 1,1 C 16,1 C -1,7 C 93 % 1037,1 hPa 0,0 l/m 3,6 km/h (1 Bft) NO 56 0 min 0,000 mm 0,0 UV-I 0 W/m 0,1 C 1,1 C 4,8 km/h (1 Bft) 93,62 %
26.09.2018 05:32 1,1 C 16,1 C -1,7 C 93 % 1037,1 hPa 0,0 l/m 3,2 km/h (1 Bft) NO 56 0 min 0,000 mm 0,0 UV-I 0 W/m 0,1 C 1,1 C 4,8 km/h (1 Bft) 97,87 %
26.09.2018 05:34 1,1 C 16,1 C -1,7 C 93 % 1037,1 hPa 0,0 l/m 2,6 km/h (1 Bft) NO 55 0 min 0,000 mm 0,0 UV-I 0 W/m 0,1 C 1,1 C 3,2 km/h (1 Bft) 95,74 %
26.09.2018 05:36 1,0 C 16,1 C -1,7 C 93 % 1037,1 hPa 0,0 l/m 2,6 km/h (1 Bft) NO 55 0 min 0,000 mm 0,0 UV-I 0 W/m -0,0 C 1,0 C 3,2 km/h (1 Bft) 97,87 %
26.09.2018 05:38 1,1 C 16,1 C -1,7 C 93 % 1037,3 hPa 0,0 l/m 2,5 km/h (1 Bft) NO 55 0 min 0,000 mm 0,0 UV-I 0 W/m 0,1 C 1,1 C 3,2 km/h (1 Bft) 95,74 %
26.09.2018 05:40 1,1 C 16,1 C -1,7 C 93 % 1037,3 hPa 0,0 l/m 2,2 km/h (1 Bft) NO 56 0 min 0,000 mm 0,0 UV-I 0 W/m 0,1 C 1,1 C 3,2 km/h (1 Bft) 98,00 %
26.09.2018 05:42 1,1 C 16,1 C -2,2 C 93 % 1037,2 hPa 0,0 l/m 2,4 km/h (1 Bft) NO 56 0 min 0,000 mm 0,0 UV-I 0 W/m 0,1 C 1,1 C 3,2 km/h (1 Bft) 95,74 %
26.09.2018 05:44 0,8 C 16,1 C -2,2 C 93 % 1037,2 hPa 0,0 l/m 3,0 km/h (1 Bft) NO 56 0 min 0,000 mm 0,0 UV-I 0 W/m -0,2 C 0,8 C 4,8 km/h (1 Bft) 98,00 %
26.09.2018 05:46 0,8 C 16,1 C -2,2 C 93 % 1037,1 hPa 0,0 l/m 3,3 km/h (1 Bft) NO 56 0 min 0,000 mm 0,0 UV-I 0 W/m -0,2 C 0,8 C 6,4 km/h (2 Bft) 97,87 %
26.09.2018 05:48 1,0 C 16,1 C -2,2 C 93 % 1037,1 hPa 0,0 l/m 3,8 km/h (1 Bft) O-NO 69 0 min 0,000 mm 0,0 UV-I 0 W/m -0,0 C 1,0 C 4,8 km/h (1 Bft) 100,00 %
26.09.2018 05:50 1,2 C 16,1 C -2,2 C 94 % 1037,1 hPa 0,0 l/m 2,4 km/h (1 Bft) O-NO 69 0 min 0,000 mm 0,0 UV-I 0 W/m 0,3 C 1,2 C 4,8 km/h (1 Bft) 95,74 %
26.09.2018 05:52 1,2 C 16,1 C -2,2 C 93 % 1037,1 hPa 0,0 l/m 1,4 km/h (1 Bft) O-NO 69 0 min 0,000 mm 0,0 UV-I 0 W/m 0,2 C 1,2 C 3,2 km/h (1 Bft) 100,00 %
26.09.2018 05:54 1,1 C 16,1 C -2,2 C 93 % 1037,1 hPa 0,0 l/m 1,7 km/h (1 Bft) O-NO 69 0 min 0,000 mm 0,0 UV-I 0 W/m 0,1 C 1,1 C 3,2 km/h (1 Bft) 100,00 %
26.09.2018 05:56 1,1 C 16,1 C -2,2 C 93 % 1037,1 hPa 0,0 l/m 2,5 km/h (1 Bft) O 89 0 min 0,000 mm 0,0 UV-I 0 W/m 0,1 C 1,1 C 4,8 km/h (1 Bft) 97,87 %
26.09.2018 05:58 1,2 C 16,1 C -2,2 C 93 % 1037,1 hPa 0,0 l/m 4,0 km/h (1 Bft) O 92 0 min 0,000 mm 0,0 UV-I 0 W/m 0,2 C 1,2 C 6,4 km/h (2 Bft) 97,87 %
26.09.2018 06:00 1,2 C 16,1 C -2,2 C 93 % 1037,0 hPa 0,0 l/m 3,5 km/h (1 Bft) O 93 0 min 0,000 mm 0,0 UV-I 0 W/m 0,2 C 1,2 C 6,4 km/h (2 Bft) 97,92 %
26.09.2018 06:02 1,2 C 16,1 C -2,2 C 93 % 1037,0 hPa 0,0 l/m 4,0 km/h (1 Bft) O 92 0 min 0,000 mm 0,0 UV-I 0 W/m 0,2 C 1,2 C 6,4 km/h (2 Bft) 100,00 %
26.09.2018 06:04 1,3 C 16,1 C -2,2 C 93 % 1037,0 hPa 0,0 l/m 3,5 km/h (1 Bft) O 94 0 min 0,000 mm 0,0 UV-I 0 W/m 0,3 C 1,3 C 4,8 km/h (1 Bft) 97,87 %
26.09.2018 06:06 1,3 C 16,1 C -2,2 C 93 % 1036,9 hPa 0,0 l/m 4,1 km/h (1 Bft) O 88 0 min 0,000 mm 0,0 UV-I 0 W/m 0,3 C 1,3 C 4,8 km/h (1 Bft) 97,37 %
26.09.2018 06:08 1,4 C 16,1 C -2,2 C 92 % 1037,0 hPa 0,0 l/m 4,7 km/h (1 Bft) O-SO 106 0 min 0,000 mm 0,0 UV-I 0 W/m 0,2 C 1,4 C 6,4 km/h (2 Bft) 100,00 %
26.09.2018 06:10 1,3 C 16,1 C -2,2 C 92 % 1037,0 hPa 0,0 l/m 3,9 km/h (1 Bft) O-SO 107 0 min 0,000 mm 0,0 UV-I 0 W/m 0,1 C 1,3 C 6,4 km/h (2 Bft) 95,74 %
26.09.2018 06:12 1,3 C 16,1 C -2,2 C 92 % 1037,0 hPa 0,0 l/m 3,7 km/h (1 Bft) O-SO 113 0 min 0,000 mm 0,0 UV-I 0 W/m 0,1 C 1,3 C 6,4 km/h (2 Bft) 100,00 %
26.09.2018 06:14 1,3 C 16,1 C -2,2 C 92 % 1037,1 hPa 0,0 l/m 3,8 km/h (1 Bft) SO 125 0 min 0,000 mm 0,0 UV-I 0 W/m 0,1 C 1,3 C 4,8 km/h (1 Bft) 100,00 %
26.09.2018 06:16 1,4 C 16,1 C -1,7 C 92 % 1037,1 hPa 0,0 l/m 3,2 km/h (1 Bft) SO 125 0 min 0,000 mm 0,0 UV-I 0 W/m 0,2 C 1,4 C 4,8 km/h (1 Bft) 100,00 %
26.09.2018 06:18 1,4 C 16,1 C -1,7 C 92 % 1037,0 hPa 0,0 l/m 4,7 km/h (1 Bft) SO 138 0 min 0,000 mm 0,0 UV-I 0 W/m 0,2 C 1,4 C 9,7 km/h (2 Bft) 100,00 %
26.09.2018 06:20 1,4 C 16,1 C -1,7 C 92 % 1037,0 hPa 0,0 l/m 4,6 km/h (1 Bft) SO 131 0 min 0,000 mm 0,0 UV-I 0 W/m 0,2 C 1,4 C 6,4 km/h (2 Bft) 100,00 %
26.09.2018 06:22 1,3 C 16,1 C -1,7 C 92 % 1037,0 hPa 0,0 l/m 4,8 km/h (1 Bft) SO 145 0 min 0,000 mm 0,0 UV-I 0 W/m 0,1 C 1,3 C 6,4 km/h (2 Bft) 100,00 %
26.09.2018 06:24 1,1 C 16,1 C -1,7 C 91 % 1037,0 hPa 0,0 l/m 5,0 km/h (1 Bft) SO 129 0 min 0,000 mm 0,0 UV-I 0 W/m -0,2 C 1,1 C 6,4 km/h (2 Bft) 95,74 %
26.09.2018 06:26 1,1 C 16,1 C -1,7 C 92 % 1037,0 hPa 0,0 l/m 6,1 km/h (2 Bft) SO 128 0 min 0,000 mm 0,0 UV-I 0 W/m -0,1 C 1,1 C 9,7 km/h (2 Bft) 100,00 %
26.09.2018 06:28 1,2 C 16,1 C -1,1 C 92 % 1036,9 hPa 0,0 l/m 4,6 km/h (1 Bft) SO 132 0 min 0,000 mm 0,0 UV-I 0 W/m 0,0 C 1,2 C 6,4 km/h (2 Bft) 97,87 %
26.09.2018 06:30 1,2 C 16,1 C -1,1 C 92 % 1036,9 hPa 0,0 l/m 4,8 km/h (1 Bft) SO 134 0 min 0,000 mm 0,0 UV-I 0 W/m 0,0 C 1,2 C 6,4 km/h (2 Bft) 97,87 %
26.09.2018 06:32 1,1 C 15,6 C -1,1 C 92 % 1036,8 hPa 0,0 l/m 5,5 km/h (1 Bft) O-SO 122 0 min 0,000 mm 0,0 UV-I 0 W/m -0,1 C 1,1 C 8,0 km/h (2 Bft) 97,87 %
26.09.2018 06:34 0,9 C 15,6 C -1,1 C 92 % 1036,8 hPa 0,0 l/m 6,0 km/h (2 Bft) SO 139 0 min 0,000 mm 0,0 UV-I 0 W/m -0,2 C 0,9 C 8,0 km/h (2 Bft) 100,00 %
26.09.2018 06:36 0,9 C 15,6 C -1,1 C 92 % 1036,8 hPa 0,0 l/m 7,5 km/h (2 Bft) SO 134 0 min 0,000 mm 0,0 UV-I 0 W/m -0,2 C -0,2 C 12,9 km/h (3 Bft) 95,74 %
26.09.2018 06:38 1,0 C 15,6 C -1,1 C 93 % 1036,8 hPa 0,0 l/m 9,2 km/h (2 Bft) SO 125 0 min 0,000 mm 0,0 UV-I 1 W/m -0,0 C -1,7 C 12,9 km/h (3 Bft) 97,87 %
26.09.2018 06:40 1,1 C 15,6 C -0,6 C 93 % 1036,7 hPa 0,0 l/m 7,8 km/h (2 Bft) O-SO 118 0 min 0,000 mm 0,0 UV-I 5 W/m 0,1 C -0,3 C 12,9 km/h (3 Bft) 95,74 %
26.09.2018 06:42 1,1 C 15,6 C -0,6 C 93 % 1036,6 hPa 0,0 l/m 10,1 km/h (2 Bft) SO 132 0 min 0,000 mm 0,0 UV-I 5 W/m 0,1 C -2,3 C 14,5 km/h (3 Bft) 97,87 %
26.09.2018 06:44 1,2 C 15,6 C -0,6 C 93 % 1036,6 hPa 0,0 l/m 8,7 km/h (2 Bft) SO 128 0 min 0,000 mm 0,0 UV-I 7 W/m 0,2 C -1,0 C 14,5 km/h (3 Bft) 97,87 %
26.09.2018 06:46 1,3 C 15,6 C -0,6 C 93 % 1036,6 hPa 0,0 l/m 7,5 km/h (2 Bft) SO 132 0 min 0,000 mm 0,0 UV-I 7 W/m 0,3 C 0,2 C 12,9 km/h (3 Bft) 93,62 %
26.09.2018 06:48 1,3 C 15,6 C -0,6 C 93 % 1036,5 hPa 0,0 l/m 10,3 km/h (2 Bft) SO 130 0 min 0,000 mm 0,0 UV-I 8 W/m 0,3 C -2,3 C 14,5 km/h (3 Bft) 95,74 %
26.09.2018 06:50 1,3 C 15,6 C 0,0 C 93 % 1036,5 hPa 0,0 l/m 9,0 km/h (2 Bft) SO 138 0 min 0,000 mm 0,0 UV-I 9 W/m 0,3 C -1,2 C 14,5 km/h (3 Bft) 97,87 %
26.09.2018 06:52 1,4 C 15,6 C 0,0 C 93 % 1036,5 hPa 0,0 l/m 9,9 km/h (2 Bft) O-SO 105 0 min 0,000 mm 0,0 UV-I 9 W/m 0,4 C -1,8 C 14,5 km/h (3 Bft) 97,87 %
26.09.2018 06:54 1,5 C 15,6 C 0,0 C 93 % 1036,6 hPa 0,0 l/m 6,4 km/h (2 Bft) O-SO 107 0 min 0,000 mm 0,0 UV-I 9 W/m 0,5 C 1,5 C 12,9 km/h (3 Bft) 96,00 %
26.09.2018 06:56 1,6 C 15,6 C 0,0 C 93 % 1036,6 hPa 0,0 l/m 8,0 km/h (2 Bft) SO 142 0 min 0,000 mm 0,0 UV-I 10 W/m 0,6 C 0,0 C 12,9 km/h (3 Bft) 97,87 %
26.09.2018 06:58 1,6 C 15,6 C 0,0 C 92 % 1036,6 hPa 0,0 l/m 7,5 km/h (2 Bft) SO 125 0 min 0,000 mm 0,0 UV-I 11 W/m 0,4 C 0,5 C 14,5 km/h (3 Bft) 97,87 %
26.09.2018 07:00 1,6 C 15,6 C -0,6 C 92 % 1036,6 hPa 0,0 l/m 9,2 km/h (2 Bft) S-SO 147 0 min 0,000 mm 0,0 UV-I 12 W/m 0,4 C -1,0 C 16,1 km/h (3 Bft) 97,87 %
26.09.2018 07:02 1,6 C 15,6 C -0,6 C 92 % 1036,6 hPa 0,0 l/m 10,3 km/h (2 Bft) S 169 0 min 0,000 mm 0,0 UV-I 15 W/m 0,4 C -1,9 C 17,7 km/h (3 Bft) 95,74 %
26.09.2018 07:04 1,6 C 15,6 C 0,0 C 92 % 1036,7 hPa 0,0 l/m 9,4 km/h (2 Bft) SO 126 0 min 0,000 mm 0,0 UV-I 19 W/m 0,4 C -1,2 C 16,1 km/h (3 Bft) 100,00 %
26.09.2018 07:06 1,7 C 15,6 C 0,0 C 92 % 1036,7 hPa 0,0 l/m 6,3 km/h (2 Bft) O-SO 110 2 min 0,000 mm 0,0 UV-I 16 W/m 0,5 C 1,7 C 12,9 km/h (3 Bft) 97,87 %
26.09.2018 07:08 1,7 C 15,6 C 0,0 C 92 % 1036,7 hPa 0,0 l/m 7,5 km/h (2 Bft) SO 127 2 min 0,000 mm 0,0 UV-I 28 W/m 0,5 C 0,6 C 12,9 km/h (3 Bft) 100,00 %
26.09.2018 07:10 1,7 C 15,6 C 0,0 C 92 % 1036,7 hPa 0,0 l/m 7,8 km/h (2 Bft) O-SO 112 2 min 0,000 mm 0,0 UV-I 32 W/m 0,5 C 0,3 C 12,9 km/h (3 Bft) 95,74 %
26.09.2018 07:12 1,7 C 15,6 C -0,6 C 92 % 1036,8 hPa 0,0 l/m 7,0 km/h (2 Bft) O-SO 115 2 min 0,000 mm 0,0 UV-I 37 W/m 0,5 C 1,1 C 14,5 km/h (3 Bft) 93,62 %
26.09.2018 07:14 1,7 C 15,6 C 0,0 C 92 % 1036,8 hPa 0,0 l/m 4,9 km/h (1 Bft) O-SO 108 2 min 0,000 mm 0,0 UV-I 38 W/m 0,5 C 1,7 C 11,3 km/h (2 Bft) 97,87 %
26.09.2018 07:16 1,7 C 15,6 C 0,0 C 91 % 1036,8 hPa 0,0 l/m 3,9 km/h (1 Bft) O-SO 103 2 min 0,000 mm 0,0 UV-I 42 W/m 0,4 C 1,7 C 6,4 km/h (2 Bft) 97,22 %
26.09.2018 07:18 1,7 C 15,6 C -0,6 C 91 % 1036,8 hPa 0,0 l/m 4,8 km/h (1 Bft) O-SO 112 2 min 0,000 mm 0,0 UV-I 41 W/m 0,4 C 1,7 C 9,7 km/h (2 Bft) 94,00 %
26.09.2018 07:20 1,7 C 15,6 C -0,6 C 91 % 1036,8 hPa 0,0 l/m 4,8 km/h (1 Bft) O 94 2 min 0,000 mm 0,0 UV-I 44 W/m 0,4 C 1,7 C 6,4 km/h (2 Bft) 97,87 %
26.09.2018 07:22 1,7 C 15,6 C -0,6 C 91 % 1036,7 hPa 0,0 l/m 5,7 km/h (1 Bft) O-SO 107 2 min 0,000 mm 0,0 UV-I 44 W/m 0,4 C 1,7 C 11,3 km/h (2 Bft) 96,00 %
26.09.2018 07:24 1,7 C 15,6 C -0,6 C 91 % 1036,6 hPa 0,0 l/m 6,3 km/h (2 Bft) O-SO 105 2 min 0,000 mm 0,0 UV-I 55 W/m 0,4 C 1,7 C 9,7 km/h (2 Bft) 93,62 %
26.09.2018 07:26 1,6 C 15,6 C -0,6 C 91 % 1036,6 hPa 0,0 l/m 5,8 km/h (2 Bft) O 98 2 min 0,000 mm 0,0 UV-I 61 W/m 0,3 C 1,6 C 8,0 km/h (2 Bft) 95,74 %
26.09.2018 07:28 1,6 C 15,6 C -0,6 C 91 % 1036,4 hPa 0,0 l/m 6,2 km/h (2 Bft) O 95 2 min 0,000 mm 0,0 UV-I 64 W/m 0,3 C 1,6 C 9,7 km/h (2 Bft) 94,34 %
26.09.2018 07:30 1,5 C 15,6 C -0,6 C 91 % 1036,4 hPa 0,0 l/m 5,6 km/h (1 Bft) O 94 2 min 0,000 mm 0,0 UV-I 70 W/m 0,2 C 1,5 C 9,7 km/h (2 Bft) 97,14 %
26.09.2018 07:32 1,5 C 15,6 C -0,6 C 91 % 1036,4 hPa 0,0 l/m 4,7 km/h (1 Bft) O 96 2 min 0,000 mm 0,0 UV-I 77 W/m 0,2 C 1,5 C 6,4 km/h (2 Bft) 92,86 %
26.09.2018 07:34 1,5 C 15,6 C -0,6 C 91 % 1036,5 hPa 0,0 l/m 5,4 km/h (1 Bft) O 94 2 min 0,000 mm 0,0 UV-I 77 W/m 0,2 C 1,5 C 6,4 km/h (2 Bft) 95,74 %
26.09.2018 07:36 1,5 C 15,6 C 0,0 C 92 % 1036,4 hPa 0,0 l/m 4,3 km/h (1 Bft) O 92 2 min 0,000 mm 0,0 UV-I 80 W/m 0,3 C 1,5 C 6,4 km/h (2 Bft) 93,62 %
26.09.2018 07:38 1,6 C 15,6 C 0,0 C 92 % 1036,5 hPa 0,0 l/m 3,8 km/h (1 Bft) O 92 2 min 0,000 mm 0,0 UV-I 82 W/m 0,4 C 1,6 C 6,4 km/h (2 Bft) 91,49 %
26.09.2018 07:40 1,6 C 15,6 C 0,0 C 92 % 1036,5 hPa 0,0 l/m 4,6 km/h (1 Bft) O-NO 73 2 min 0,000 mm 0,0 UV-I 85 W/m 0,4 C 1,6 C 6,4 km/h (2 Bft) 97,37 %
26.09.2018 07:42 1,6 C 15,6 C 0,0 C 91 % 1036,4 hPa 0,0 l/m 3,1 km/h (1 Bft) O-NO 73 2 min 0,000 mm 0,0 UV-I 89 W/m 0,3 C 1,6 C 4,8 km/h (1 Bft) 95,74 %
26.09.2018 07:44 1,4 C 15,6 C 0,0 C 91 % 1036,4 hPa 0,0 l/m 3,0 km/h (1 Bft) O-NO 73 2 min 0,000 mm 0,0 UV-I 99 W/m 0,1 C 1,4 C 4,8 km/h (1 Bft) 94,23 %
26.09.2018 07:46 1,4 C 15,6 C -0,6 C 92 % 1036,4 hPa 0,0 l/m 2,7 km/h (1 Bft) O-NO 73 2 min 0,000 mm 0,0 UV-I 104 W/m 0,2 C 1,4 C 4,8 km/h (1 Bft) 94,00 %
26.09.2018 07:48 1,4 C 15,6 C 0,0 C 92 % 1036,4 hPa 0,0 l/m 3,4 km/h (1 Bft) O-NO 73 2 min 0,000 mm 0,0 UV-I 110 W/m 0,2 C 1,4 C 4,8 km/h (1 Bft) 89,36 %
26.09.2018 07:50 1,4 C 15,6 C 0,0 C 92 % 1036,4 hPa 0,0 l/m 3,8 km/h (1 Bft) O-NO 73 2 min 0,000 mm 0,0 UV-I 113 W/m 0,2 C 1,4 C 4,8 km/h (1 Bft) 94,87 %
26.09.2018 07:52 1,5 C 15,6 C 0,0 C 92 % 1036,4 hPa 0,0 l/m 2,3 km/h (1 Bft) O-NO 73 2 min 0,000 mm 0,0 UV-I 127 W/m 0,3 C 1,5 C 3,2 km/h (1 Bft) 93,62 %
26.09.2018 07:54 1,6 C 15,6 C 0,0 C 92 % 1036,4 hPa 0,0 l/m 3,8 km/h (1 Bft) O-NO 73 2 min 0,000 mm 0,0 UV-I 147 W/m 0,4 C 1,6 C 4,8 km/h (1 Bft) 95,74 %
26.09.2018 07:56 1,7 C 15,6 C 0,6 C 92 % 1036,3 hPa 0,0 l/m 3,7 km/h (1 Bft) O-NO 65 2 min 0,000 mm 0,0 UV-I 156 W/m 0,5 C 1,7 C 6,4 km/h (2 Bft) 95,74 %
26.09.2018 07:58 1,8 C 15,6 C 0,6 C 92 % 1036,3 hPa 0,0 l/m 4,0 km/h (1 Bft) O-NO 57 2 min 0,000 mm 0,0 UV-I 167 W/m 0,6 C 1,8 C 6,4 km/h (2 Bft) 91,49 %
26.09.2018 08:00 1,9 C 15,6 C 0,6 C 92 % 1036,2 hPa 0,0 l/m 5,5 km/h (1 Bft) O-NO 61 2 min 0,025 mm 0,0 UV-I 174 W/m 0,7 C 1,9 C 8,0 km/h (2 Bft) 95,92 %
26.09.2018 08:02 2,0 C 15,6 C 1,1 C 92 % 1036,1 hPa 0,0 l/m 5,3 km/h (1 Bft) NO 54 2 min 0,000 mm 0,0 UV-I 180 W/m 0,8 C 2,0 C 8,0 km/h (2 Bft) 95,74 %
26.09.2018 08:04 2,1 C 15,6 C 1,1 C 92 % 1036,1 hPa 0,0 l/m 4,4 km/h (1 Bft) O 80 2 min 0,000 mm 0,0 UV-I 184 W/m 0,9 C 2,1 C 6,4 km/h (2 Bft) 93,62 %
26.09.2018 08:06 2,2 C 15,6 C 1,1 C 92 % 1036,1 hPa 0,0 l/m 5,0 km/h (1 Bft) NO 51 2 min 0,000 mm 0,0 UV-I 193 W/m 1,0 C 2,2 C 8,0 km/h (2 Bft) 98,00 %
26.09.2018 08:08 2,3 C 15,6 C 1,1 C 91 % 1036,1 hPa 0,0 l/m 4,9 km/h (1 Bft) NO 42 2 min 0,000 mm 0,0 UV-I 206 W/m 1,0 C 2,3 C 6,4 km/h (2 Bft) 98,00 %
26.09.2018 08:10 2,5 C 15,6 C 1,7 C 92 % 1036,1 hPa 0,0 l/m 6,1 km/h (2 Bft) O-NO 61 2 min 0,000 mm 0,0 UV-I 209 W/m 1,3 C 2,5 C 8,0 km/h (2 Bft) 97,87 %
26.09.2018 08:12 2,6 C 15,6 C 1,7 C 91 % 1036,1 hPa 0,0 l/m 3,6 km/h (1 Bft) O-NO 63 2 min 0,000 mm 0,0 UV-I 217 W/m 1,3 C 2,6 C 6,4 km/h (2 Bft) 97,87 %
26.09.2018 08:15 2,9 C 15,6 C 1,7 C 91 % 1036,1 hPa 0,0 l/m 4,4 km/h (1 Bft) NO 40 3 min 0,000 mm 0,0 UV-I 226 W/m 1,6 C 2,9 C 8,0 km/h (2 Bft) 97,26 %
26.09.2018 08:16 3,0 C 15,6 C 2,2 C 91 % 1036,1 hPa 0,0 l/m 5,5 km/h (1 Bft) NO 45 1 min 0,000 mm 0,0 UV-I 215 W/m 1,7 C 3,0 C 6,4 km/h (2 Bft) 100,00 %
26.09.2018 08:18 3,1 C 15,6 C 2,2 C 90 % 1036,1 hPa 0,0 l/m 4,9 km/h (1 Bft) NO 55 2 min 0,000 mm 0,0 UV-I 216 W/m 1,6 C 3,1 C 8,0 km/h (2 Bft) 100,00 %
26.09.2018 08:20 3,1 C 15,6 C 2,2 C 90 % 1036,2 hPa 0,0 l/m 5,8 km/h (2 Bft) NO 34 2 min 0,000 mm 0,0 UV-I 227 W/m 1,6 C 3,1 C 8,0 km/h (2 Bft) 98,00 %
26.09.2018 08:22 3,2 C 15,6 C 2,2 C 90 % 1036,2 hPa 0,0 l/m 6,0 km/h (2 Bft) N-NO 33 2 min 0,000 mm 0,0 UV-I 215 W/m 1,7 C 3,2 C 8,0 km/h (2 Bft) 95,74 %
26.09.2018 08:24 3,3 C 15,6 C 2,8 C 90 % 1036,3 hPa 0,0 l/m 5,0 km/h (1 Bft) NO 42 2 min 0,000 mm 0,0 UV-I 226 W/m 1,8 C 3,3 C 8,0 km/h (2 Bft) 100,00 %
26.09.2018 08:26 3,4 C 15,6 C 2,8 C 89 % 1036,3 hPa 0,0 l/m 5,0 km/h (1 Bft) N-NO 30 2 min 0,000 mm 0,0 UV-I 242 W/m 1,8 C 3,4 C 9,7 km/h (2 Bft) 97,87 %
26.09.2018 08:28 3,6 C 15,6 C 2,8 C 89 % 1036,3 hPa 0,0 l/m 5,1 km/h (1 Bft) N-NO 23 2 min 0,000 mm 0,0 UV-I 250 W/m 2,0 C 3,6 C 6,4 km/h (2 Bft) 97,87 %
26.09.2018 08:30 3,6 C 15,6 C 2,8 C 89 % 1036,2 hPa 0,0 l/m 5,1 km/h (1 Bft) N-NO 24 2 min 0,000 mm 0,0 UV-I 254 W/m 2,0 C 3,6 C 6,4 km/h (2 Bft) 100,00 %
26.09.2018 08:32 3,6 C 15,6 C 2,8 C 89 % 1036,3 hPa 0,0 l/m 4,4 km/h (1 Bft) N-NO 24 2 min 0,000 mm 0,0 UV-I 242 W/m 2,0 C 3,6 C 6,4 km/h (2 Bft) 100,00 %
26.09.2018 08:34 3,7 C 15,6 C 2,8 C 88 % 1036,4 hPa 0,0 l/m 4,6 km/h (1 Bft) O-NO 57 2 min 0,000 mm 0,0 UV-I 254 W/m 1,9 C 3,7 C 8,0 km/h (2 Bft) 100,00 %
26.09.2018 08:36 3,8 C 15,6 C 2,8 C 88 % 1036,4 hPa 0,0 l/m 4,6 km/h (1 Bft) NO 38 2 min 0,000 mm 0,0 UV-I 257 W/m 2,0 C 3,8 C 6,4 km/h (2 Bft) 97,87 %
26.09.2018 08:38 3,9 C 15,6 C 2,8 C 88 % 1036,4 hPa 0,0 l/m 6,6 km/h (2 Bft) N-NO 17 2 min 0,000 mm 0,0 UV-I 262 W/m 2,1 C 3,7 C 9,7 km/h (2 Bft) 97,37 %
26.09.2018 08:40 4,1 C 15,6 C 3,3 C 88 % 1036,4 hPa 0,0 l/m 5,9 km/h (2 Bft) N-NO 21 2 min 0,000 mm 0,5 UV-I 270 W/m 2,3 C 4,1 C 8,0 km/h (2 Bft) 100,00 %
26.09.2018 08:42 4,2 C 15,6 C 3,3 C 87 % 1036,5 hPa 0,0 l/m 5,8 km/h (2 Bft) NO 53 2 min 0,000 mm 0,5 UV-I 231 W/m 2,2 C 4,2 C 8,0 km/h (2 Bft) 95,74 %
26.09.2018 08:44 4,3 C 15,6 C 3,3 C 87 % 1036,5 hPa 0,0 l/m 6,2 km/h (2 Bft) N-NO 17 2 min 0,000 mm 0,5 UV-I 272 W/m 2,3 C 4,3 C 11,3 km/h (2 Bft) 97,87 %
26.09.2018 08:46 4,3 C 15,6 C 3,3 C 86 % 1036,5 hPa 0,0 l/m 7,9 km/h (2 Bft) N 5 2 min 0,000 mm 0,5 UV-I 261 W/m 2,2 C 3,0 C 9,7 km/h (2 Bft) 97,87 %
26.09.2018 08:48 4,4 C 15,6 C 3,3 C 86 % 1036,5 hPa 0,0 l/m 8,0 km/h (2 Bft) NO 45 2 min 0,000 mm 0,5 UV-I 268 W/m 2,3 C 3,0 C 9,7 km/h (2 Bft) 100,00 %
26.09.2018 08:50 4,4 C 15,6 C 3,3 C 85 % 1036,5 hPa 0,0 l/m 6,4 km/h (2 Bft) NO 47 2 min 0,000 mm 0,5 UV-I 249 W/m 2,1 C 4,4 C 9,7 km/h (2 Bft) 97,87 %
26.09.2018 08:52 4,4 C 15,6 C 3,3 C 85 % 1036,5 hPa 0,0 l/m 5,5 km/h (1 Bft) N-NO 15 2 min 0,000 mm 0,5 UV-I 198 W/m 2,1 C 4,4 C 8,0 km/h (2 Bft) 93,62 %
26.09.2018 08:54 4,5 C 15,6 C 3,3 C 85 % 1036,5 hPa 0,0 l/m 6,5 km/h (2 Bft) NO 55 2 min 0,000 mm 0,6 UV-I 256 W/m 2,2 C 4,4 C 11,3 km/h (2 Bft) 95,74 %
26.09.2018 08:56 4,6 C 15,6 C 3,9 C 85 % 1036,6 hPa 0,0 l/m 6,9 km/h (2 Bft) NO 53 2 min 0,000 mm 0,6 UV-I 298 W/m 2,3 C 4,2 C 9,7 km/h (2 Bft) 97,87 %
26.09.2018 08:58 4,7 C 15,6 C 3,9 C 85 % 1036,6 hPa 0,0 l/m 6,7 km/h (2 Bft) NO 48 2 min 0,000 mm 0,6 UV-I 299 W/m 2,4 C 4,4 C 9,7 km/h (2 Bft) 93,62 %
26.09.2018 09:00 4,7 C 15,6 C 3,9 C 85 % 1036,6 hPa 0,0 l/m 7,7 km/h (2 Bft) NO 51 2 min 0,102 mm 0,6 UV-I 236 W/m 2,4 C 3,5 C 11,3 km/h (2 Bft) 96,00 %
26.09.2018 09:02 4,8 C 15,6 C 4,4 C 84 % 1036,6 hPa 0,0 l/m 8,1 km/h (2 Bft) O-NO 68 2 min 0,000 mm 0,7 UV-I 308 W/m 2,3 C 3,3 C 9,7 km/h (2 Bft) 93,62 %
26.09.2018 09:04 4,8 C 15,6 C 4,4 C 84 % 1036,5 hPa 0,0 l/m 7,2 km/h (2 Bft) NO 46 2 min 0,000 mm 0,7 UV-I 270 W/m 2,3 C 4,1 C 11,3 km/h (2 Bft) 96,00 %
26.09.2018 09:06 4,8 C 15,6 C 4,4 C 84 % 1036,5 hPa 0,0 l/m 6,4 km/h (2 Bft) NO 34 2 min 0,000 mm 0,7 UV-I 220 W/m 2,3 C 4,8 C 8,0 km/h (2 Bft) 94,44 %
26.09.2018 09:08 4,9 C 15,6 C 4,4 C 84 % 1036,5 hPa 0,0 l/m 7,2 km/h (2 Bft) NO 43 2 min 0,000 mm 0,7 UV-I 243 W/m 2,4 C 4,2 C 9,7 km/h (2 Bft) 98,00 %
26.09.2018 09:10 4,9 C 15,6 C 4,4 C 84 % 1036,5 hPa 0,0 l/m 7,1 km/h (2 Bft) NO 35 2 min 0,000 mm 0,8 UV-I 266 W/m 2,4 C 4,3 C 9,7 km/h (2 Bft) 97,87 %
26.09.2018 09:12 5,0 C 15,6 C 4,4 C 84 % 1036,5 hPa 0,0 l/m 5,9 km/h (2 Bft) NO 42 2 min 0,000 mm 0,8 UV-I 344 W/m 2,5 C 5,0 C 9,7 km/h (2 Bft) 94,00 %
26.09.2018 09:14 5,1 C 15,6 C 4,4 C 84 % 1036,5 hPa 0,0 l/m 5,5 km/h (1 Bft) O-NO 65 2 min 0,000 mm 0,8 UV-I 346 W/m 2,6 C 5,1 C 9,7 km/h (2 Bft) 96,00 %
26.09.2018 09:16 5,3 C 15,6 C 5,0 C 84 % 1036,5 hPa 0,0 l/m 4,7 km/h (1 Bft) O-NO 57 2 min 0,000 mm 0,8 UV-I 350 W/m 2,8 C 5,3 C 8,0 km/h (2 Bft) 97,87 %
26.09.2018 09:18 5,5 C 15,6 C 5,0 C 83 % 1036,5 hPa 0,0 l/m 6,0 km/h (2 Bft) O-NO 57 2 min 0,000 mm 0,9 UV-I 354 W/m 2,8 C 5,5 C 8,0 km/h (2 Bft) 97,87 %
26.09.2018 09:20 5,6 C 15,6 C 5,0 C 83 % 1036,5 hPa 0,0 l/m 6,4 km/h (2 Bft) O 90 2 min 0,000 mm 0,9 UV-I 358 W/m 2,9 C 5,6 C 11,3 km/h (2 Bft) 100,00 %
26.09.2018 09:22 5,7 C 15,6 C 5,0 C 81 % 1036,5 hPa 0,0 l/m 8,2 km/h (2 Bft) O 98 2 min 0,000 mm 0,9 UV-I 355 W/m 2,7 C 4,2 C 14,5 km/h (3 Bft) 98,00 %
26.09.2018 09:24 5,7 C 15,6 C 5,0 C 79 % 1036,5 hPa 0,0 l/m 8,3 km/h (2 Bft) SO 125 2 min 0,000 mm 0,9 UV-I 361 W/m 2,3 C 4,1 C 12,9 km/h (3 Bft) 97,87 %
26.09.2018 09:26 5,7 C 15,6 C 5,0 C 79 % 1036,5 hPa 0,0 l/m 5,9 km/h (2 Bft) NO 46 2 min 0,000 mm 1,0 UV-I 372 W/m 2,3 C 5,7 C 8,0 km/h (2 Bft) 100,00 %
26.09.2018 09:28 5,8 C 15,6 C 5,0 C 79 % 1036,5 hPa 0,0 l/m 5,2 km/h (1 Bft) O-NO 71 2 min 0,000 mm 1,0 UV-I 376 W/m 2,4 C 5,8 C 6,4 km/h (2 Bft) 100,00 %
26.09.2018 09:30 6,1 C 15,6 C 5,0 C 80 % 1036,5 hPa 0,0 l/m 5,7 km/h (1 Bft) NO 37 2 min 0,000 mm 1,0 UV-I 380 W/m 2,9 C 6,1 C 8,0 km/h (2 Bft) 98,00 %
26.09.2018 09:32 6,3 C 15,6 C 5,6 C 81 % 1036,4 hPa 0,0 l/m 6,2 km/h (2 Bft) NO 49 2 min 0,000 mm 1,0 UV-I 385 W/m 3,3 C 6,3 C 8,0 km/h (2 Bft) 100,00 %
26.09.2018 09:34 6,3 C 15,6 C 5,6 C 80 % 1036,4 hPa 0,0 l/m 5,5 km/h (1 Bft) NO 45 2 min 0,000 mm 1,1 UV-I 390 W/m 3,1 C 6,3 C 9,7 km/h (2 Bft) 100,00 %
26.09.2018 09:36 6,4 C 15,6 C 5,6 C 79 % 1036,5 hPa 0,0 l/m 3,9 km/h (1 Bft) NO 53 2 min 0,000 mm 1,1 UV-I 395 W/m 3,0 C 6,4 C 6,4 km/h (2 Bft) 100,00 %
26.09.2018 09:38 6,6 C 15,6 C 5,6 C 78 % 1036,4 hPa 0,0 l/m 5,8 km/h (2 Bft) O-SO 107 2 min 0,000 mm 1,1 UV-I 400 W/m 3,0 C 6,6 C 11,3 km/h (2 Bft) 100,00 %
26.09.2018 09:40 6,7 C 15,6 C 6,1 C 76 % 1036,4 hPa 0,0 l/m 4,7 km/h (1 Bft) O-NO 63 2 min 0,000 mm 1,2 UV-I 404 W/m 2,8 C 6,7 C 9,7 km/h (2 Bft) 100,00 %
26.09.2018 09:42 6,7 C 15,6 C 6,1 C 77 % 1036,4 hPa 0,0 l/m 7,2 km/h (2 Bft) O-SO 110 2 min 0,000 mm 1,2 UV-I 409 W/m 3,0 C 6,0 C 11,3 km/h (2 Bft) 100,00 %
26.09.2018 09:44 6,7 C 15,6 C 6,1 C 76 % 1036,3 hPa 0,0 l/m 3,7 km/h (1 Bft) O-SO 108 2 min 0,000 mm 1,2 UV-I 414 W/m 2,8 C 6,7 C 8,0 km/h (2 Bft) 100,00 %
26.09.2018 09:46 6,8 C 15,6 C 6,1 C 76 % 1036,3 hPa 0,0 l/m 5,0 km/h (1 Bft) O-NO 64 2 min 0,000 mm 1,2 UV-I 418 W/m 2,9 C 6,8 C 8,0 km/h (2 Bft) 100,00 %
26.09.2018 09:48 6,9 C 15,6 C 6,7 C 74 % 1036,3 hPa 0,0 l/m 5,3 km/h (1 Bft) O-NO 65 2 min 0,000 mm 1,3 UV-I 422 W/m 2,6 C 6,9 C 11,3 km/h (2 Bft) 100,00 %
26.09.2018 09:50 7,0 C 15,6 C 7,2 C 75 % 1036,3 hPa 0,0 l/m 7,8 km/h (2 Bft) O-NO 63 2 min 0,000 mm 1,3 UV-I 406 W/m 2,9 C 5,9 C 12,9 km/h (3 Bft) 97,87 %
26.09.2018 09:52 7,1 C 15,6 C 7,8 C 74 % 1036,4 hPa 0,0 l/m 9,0 km/h (2 Bft) O-SO 107 2 min 0,000 mm 1,3 UV-I 420 W/m 2,8 C 5,1 C 12,9 km/h (3 Bft) 100,00 %
26.09.2018 09:54 7,1 C 15,6 C 8,9 C 73 % 1036,4 hPa 0,0 l/m 10,5 km/h (2 Bft) O 96 2 min 0,000 mm 1,3 UV-I 433 W/m 2,6 C 4,1 C 12,9 km/h (3 Bft) 97,87 %
26.09.2018 09:56 7,1 C 15,6 C 9,4 C 72 % 1036,4 hPa 0,0 l/m 12,7 km/h (3 Bft) O 92 2 min 0,000 mm 1,3 UV-I 437 W/m 2,4 C 2,8 C 20,9 km/h (4 Bft) 96,43 %
26.09.2018 09:58 6,9 C 15,6 C 10,6 C 72 % 1036,5 hPa 0,0 l/m 10,5 km/h (2 Bft) O-NO 59 2 min 0,000 mm 1,4 UV-I 435 W/m 2,2 C 3,8 C 16,1 km/h (3 Bft) 95,74 %
26.09.2018 10:00 6,8 C 15,6 C 11,1 C 73 % 1036,5 hPa 0,0 l/m 12,1 km/h (2 Bft) O-NO 67 2 min 0,152 mm 1,4 UV-I 441 W/m 2,3 C 2,8 C 16,1 km/h (3 Bft) 95,74 %
26.09.2018 10:02 6,9 C 15,6 C 11,7 C 74 % 1036,5 hPa 0,0 l/m 8,6 km/h (2 Bft) O-NO 78 2 min 0,000 mm 1,4 UV-I 444 W/m 2,6 C 5,1 C 12,9 km/h (3 Bft) 97,14 %
26.09.2018 10:04 7,1 C 15,6 C 13,3 C 73 % 1036,6 hPa 0,0 l/m 8,9 km/h (2 Bft) O 96 2 min 0,000 mm 1,5 UV-I 457 W/m 2,6 C 5,1 C 14,5 km/h (3 Bft) 98,31 %
26.09.2018 10:06 7,2 C 15,6 C 14,4 C 73 % 1036,6 hPa 0,0 l/m 7,6 km/h (2 Bft) O-NO 69 2 min 0,000 mm 1,5 UV-I 455 W/m 2,7 C 6,2 C 12,9 km/h (3 Bft) 91,43 %
26.09.2018 10:08 7,2 C 15,6 C 15,6 C 72 % 1036,6 hPa 0,0 l/m 10,9 km/h (2 Bft) O-SO 103 2 min 0,000 mm 1,5 UV-I 464 W/m 2,5 C 3,9 C 14,5 km/h (3 Bft) 96,00 %
26.09.2018 10:10 7,3 C 15,6 C 16,7 C 72 % 1036,6 hPa 0,0 l/m 8,5 km/h (2 Bft) O-NO 62 2 min 0,000 mm 1,6 UV-I 470 W/m 2,6 C 5,6 C 12,9 km/h (3 Bft) 97,87 %
26.09.2018 10:12 7,4 C 15,6 C 17,2 C 72 % 1036,6 hPa 0,0 l/m 10,3 km/h (2 Bft) O 86 2 min 0,000 mm 1,6 UV-I 474 W/m 2,7 C 4,5 C 14,5 km/h (3 Bft) 95,74 %
26.09.2018 10:14 7,4 C 15,6 C 18,3 C 72 % 1036,6 hPa 0,0 l/m 9,9 km/h (2 Bft) O 82 2 min 0,000 mm 1,6 UV-I 477 W/m 2,7 C 4,8 C 14,5 km/h (3 Bft) 98,00 %
26.09.2018 10:16 7,4 C 15,6 C 18,3 C 71 % 1036,6 hPa 0,0 l/m 10,4 km/h (2 Bft) O 95 2 min 0,000 mm 1,6 UV-I 478 W/m 2,5 C 4,5 C 17,7 km/h (3 Bft) 97,87 %
26.09.2018 10:18 7,3 C 15,6 C 18,9 C 71 % 1036,6 hPa 0,0 l/m 10,5 km/h (2 Bft) O-SO 109 2 min 0,000 mm 1,6 UV-I 482 W/m 2,4 C 4,3 C 14,5 km/h (3 Bft) 97,87 %
26.09.2018 10:20 7,6 C 15,6 C 20,0 C 73 % 1036,6 hPa 0,0 l/m 9,2 km/h (2 Bft) O-SO 117 2 min 0,000 mm 1,7 UV-I 485 W/m 3,1 C 5,5 C 12,9 km/h (3 Bft) 97,87 %
26.09.2018 10:22 7,9 C 15,6 C 20,6 C 72 % 1036,6 hPa 0,0 l/m 8,3 km/h (2 Bft) O-NO 78 2 min 0,000 mm 1,7 UV-I 487 W/m 3,2 C 6,4 C 16,1 km/h (3 Bft) 95,74 %
26.09.2018 10:24 7,9 C 15,6 C 20,6 C 71 % 1036,6 hPa 0,0 l/m 10,5 km/h (2 Bft) O-NO 69 2 min 0,000 mm 1,7 UV-I 491 W/m 3,0 C 5,0 C 16,1 km/h (3 Bft) 96,00 %
26.09.2018 10:26 7,9 C 15,6 C 20,6 C 71 % 1036,6 hPa 0,0 l/m 8,2 km/h (2 Bft) O-NO 76 2 min 0,000 mm 1,8 UV-I 498 W/m 3,0 C 6,5 C 12,9 km/h (3 Bft) 97,87 %
26.09.2018 10:28 8,1 C 15,6 C 21,1 C 71 % 1036,6 hPa 0,0 l/m 8,7 km/h (2 Bft) O-NO 66 2 min 0,000 mm 1,8 UV-I 499 W/m 3,2 C 6,4 C 12,9 km/h (3 Bft) 97,92 %
26.09.2018 10:30 8,2 C 15,6 C 21,7 C 70 % 1036,6 hPa 0,0 l/m 9,9 km/h (2 Bft) O 101 2 min 0,000 mm 1,8 UV-I 504 W/m 3,1 C 5,7 C 14,5 km/h (3 Bft) 97,87 %
26.09.2018 10:32 8,2 C 15,6 C 21,7 C 71 % 1036,6 hPa 0,0 l/m 8,1 km/h (2 Bft) NO 34 2 min 0,000 mm 1,9 UV-I 513 W/m 3,3 C 6,9 C 12,9 km/h (3 Bft) 97,14 %
26.09.2018 10:34 8,4 C 15,6 C 21,7 C 72 % 1036,6 hPa 0,0 l/m 8,6 km/h (2 Bft) O-NO 76 2 min 0,000 mm 1,9 UV-I 505 W/m 3,7 C 6,7 C 12,9 km/h (3 Bft) 97,87 %
26.09.2018 10:36 8,4 C 15,6 C 22,2 C 71 % 1036,6 hPa 0,0 l/m 8,8 km/h (2 Bft) O-NO 61 2 min 0,000 mm 1,9 UV-I 507 W/m 3,5 C 6,6 C 14,5 km/h (3 Bft) 95,74 %
26.09.2018 10:38 8,6 C 15,6 C 21,7 C 71 % 1036,5 hPa 0,0 l/m 10,9 km/h (2 Bft) NO 56 2 min 0,000 mm 1,9 UV-I 518 W/m 3,6 C 5,5 C 16,1 km/h (3 Bft) 100,00 %
26.09.2018 10:40 8,7 C 15,6 C 21,7 C 69 % 1036,5 hPa 0,0 l/m 9,4 km/h (2 Bft) SO 131 2 min 0,000 mm 2,0 UV-I 515 W/m 3,3 C 6,5 C 14,5 km/h (3 Bft) 100,00 %
26.09.2018 10:42 8,7 C 15,6 C 22,8 C 70 % 1036,6 hPa 0,0 l/m 7,1 km/h (2 Bft) SO 136 2 min 0,000 mm 2,0 UV-I 522 W/m 3,5 C 8,2 C 11,3 km/h (2 Bft) 100,00 %
26.09.2018 10:44 8,9 C 15,6 C 23,3 C 69 % 1036,6 hPa 0,0 l/m 3,7 km/h (1 Bft) O-NO 73 2 min 0,000 mm 2,0 UV-I 529 W/m 3,5 C 8,9 C 8,0 km/h (2 Bft) 97,87 %
26.09.2018 10:46 9,1 C 15,6 C 23,3 C 69 % 1036,6 hPa 0,0 l/m 8,9 km/h (2 Bft) O 97 2 min 0,000 mm 2,1 UV-I 538 W/m 3,7 C 7,3 C 14,5 km/h (3 Bft) 100,00 %
26.09.2018 10:48 9,3 C 15,6 C 23,9 C 69 % 1036,6 hPa 0,0 l/m 7,1 km/h (2 Bft) O 80 2 min 0,000 mm 2,1 UV-I 542 W/m 3,9 C 8,8 C 12,9 km/h (3 Bft) 97,87 %
26.09.2018 10:50 9,3 C 15,6 C 23,9 C 69 % 1036,6 hPa 0,0 l/m 5,8 km/h (2 Bft) SO 133 2 min 0,000 mm 2,1 UV-I 545 W/m 3,9 C 9,3 C 12,9 km/h (3 Bft) 97,87 %
26.09.2018 10:52 9,3 C 15,6 C 24,4 C 67 % 1036,5 hPa 0,0 l/m 6,1 km/h (2 Bft) O 80 2 min 0,000 mm 2,2 UV-I 548 W/m 3,5 C 9,3 C 11,3 km/h (2 Bft) 97,87 %
26.09.2018 10:54 9,5 C 15,6 C 25,0 C 68 % 1036,5 hPa 0,0 l/m 5,3 km/h (1 Bft) O-SO 105 2 min 0,000 mm 2,2 UV-I 551 W/m 3,9 C 9,5 C 11,3 km/h (2 Bft) 98,00 %
26.09.2018 10:56 9,6 C 15,6 C 25,0 C 67 % 1036,6 hPa 0,0 l/m 5,6 km/h (1 Bft) O-SO 106 2 min 0,000 mm 2,2 UV-I 554 W/m 3,8 C 9,6 C 9,7 km/h (2 Bft) 97,87 %
26.09.2018 10:58 9,6 C 15,6 C 25,0 C 65 % 1036,6 hPa 0,0 l/m 5,6 km/h (1 Bft) S-SO 161 2 min 0,000 mm 2,2 UV-I 554 W/m 3,4 C 9,6 C 12,9 km/h (3 Bft) 100,00 %
26.09.2018 11:00 9,4 C 15,6 C 24,4 C 64 % 1036,5 hPa 0,0 l/m 9,5 km/h (2 Bft) SO 128 2 min 0,254 mm 2,2 UV-I 560 W/m 2,9 C 7,2 C 16,1 km/h (3 Bft) 100,00 %
26.09.2018 11:02 9,3 C 15,6 C 23,9 C 64 % 1036,5 hPa 0,0 l/m 7,3 km/h (2 Bft) S-SO 155 2 min 0,000 mm 2,3 UV-I 563 W/m 2,8 C 8,6 C 12,9 km/h (3 Bft) 95,74 %
26.09.2018 11:04 9,5 C 15,6 C 23,9 C 67 % 1036,5 hPa 0,0 l/m 5,2 km/h (1 Bft) O-NO 77 2 min 0,000 mm 2,3 UV-I 564 W/m 3,7 C 9,5 C 8,0 km/h (2 Bft) 95,74 %
26.09.2018 11:06 9,8 C 15,6 C 23,9 C 70 % 1036,5 hPa 0,0 l/m 7,3 km/h (2 Bft) O-NO 66 2 min 0,000 mm 2,3 UV-I 567 W/m 4,6 C 9,1 C 11,3 km/h (2 Bft) 96,00 %
26.09.2018 11:08 9,7 C 15,6 C 23,9 C 64 % 1036,5 hPa 0,0 l/m 8,1 km/h (2 Bft) O-SO 102 2 min 0,000 mm 2,4 UV-I 571 W/m 3,2 C 8,5 C 12,9 km/h (3 Bft) 95,74 %
26.09.2018 11:10 9,6 C 15,6 C 24,4 C 65 % 1036,5 hPa 0,0 l/m 4,9 km/h (1 Bft) O-SO 121 2 min 0,000 mm 2,4 UV-I 573 W/m 3,4 C 9,6 C 9,7 km/h (2 Bft) 97,87 %
26.09.2018 11:12 9,7 C 15,6 C 25,0 C 65 % 1036,5 hPa 0,0 l/m 6,9 km/h (2 Bft) O 94 2 min 0,000 mm 2,4 UV-I 574 W/m 3,4 C 9,3 C 11,3 km/h (2 Bft) 97,87 %
26.09.2018 11:14 9,8 C 15,6 C 25,0 C 66 % 1036,6 hPa 0,0 l/m 4,8 km/h (1 Bft) O-SO 123 2 min 0,000 mm 2,4 UV-I 578 W/m 3,8 C 9,8 C 9,7 km/h (2 Bft) 97,87 %
26.09.2018 11:16 9,9 C 15,6 C 25,0 C 66 % 1036,5 hPa 0,0 l/m 4,7 km/h (1 Bft) NO 55 2 min 0,000 mm 2,4 UV-I 580 W/m 3,9 C 9,9 C 9,7 km/h (2 Bft) 98,00 %
26.09.2018 11:18 10,2 C 15,6 C 25,0 C 67 % 1036,4 hPa 0,0 l/m 5,9 km/h (2 Bft) O 92 2 min 0,000 mm 2,5 UV-I 583 W/m 4,4 C 10,2 C 9,7 km/h (2 Bft) 97,87 %
26.09.2018 11:20 10,4 C 15,6 C 25,6 C 63 % 1036,4 hPa 0,0 l/m 6,1 km/h (2 Bft) O 85 2 min 0,000 mm 2,5 UV-I 586 W/m 3,7 C 10,4 C 11,3 km/h (2 Bft) 96,00 %
26.09.2018 11:22 10,3 C 15,6 C 25,0 C 65 % 1036,4 hPa 0,0 l/m 8,4 km/h (2 Bft) O 96 2 min 0,000 mm 2,5 UV-I 589 W/m 4,0 C 8,9 C 12,9 km/h (3 Bft) 97,37 %
26.09.2018 11:24 10,2 C 15,6 C 25,6 C 62 % 1036,4 hPa 0,0 l/m 6,7 km/h (2 Bft) O-SO 121 2 min 0,000 mm 2,6 UV-I 590 W/m 3,3 C 10,0 C 11,3 km/h (2 Bft) 97,87 %
26.09.2018 11:26 9,9 C 15,6 C 25,0 C 63 % 1036,4 hPa 0,0 l/m 2,5 km/h (1 Bft) O-SO 107 2 min 0,000 mm 2,6 UV-I 594 W/m 3,2 C 9,9 C 6,4 km/h (2 Bft) 100,00 %
26.09.2018 11:28 10,0 C 15,6 C 25,0 C 66 % 1036,4 hPa 0,0 l/m 3,7 km/h (1 Bft) NO 42 2 min 0,000 mm 2,6 UV-I 595 W/m 3,9 C 10,0 C 9,7 km/h (2 Bft) 100,00 %
26.09.2018 11:30 10,3 C 15,6 C 25,0 C 66 % 1036,4 hPa 0,0 l/m 9,0 km/h (2 Bft) O-SO 113 2 min 0,000 mm 2,6 UV-I 597 W/m 4,2 C 8,5 C 12,9 km/h (3 Bft) 100,00 %
26.09.2018 11:32 10,5 C 15,6 C 26,1 C 64 % 1036,3 hPa 0,0 l/m 6,1 km/h (2 Bft) O 86 2 min 0,000 mm 2,7 UV-I 601 W/m 4,0 C 10,5 C 11,3 km/h (2 Bft) 100,00 %
26.09.2018 11:34 10,5 C 15,6 C 26,1 C 64 % 1036,2 hPa 0,0 l/m 4,8 km/h (1 Bft) O-SO 115 2 min 0,000 mm 2,7 UV-I 604 W/m 4,0 C 10,5 C 11,3 km/h (2 Bft) 100,00 %
26.09.2018 11:36 10,7 C 15,6 C 26,7 C 64 % 1036,2 hPa 0,0 l/m 7,8 km/h (2 Bft) O-SO 123 2 min 0,000 mm 2,7 UV-I 606 W/m 4,2 C 9,7 C 14,5 km/h (3 Bft) 97,92 %
26.09.2018 11:38 10,8 C 15,6 C 26,7 C 63 % 1036,1 hPa 0,0 l/m 7,1 km/h (2 Bft) O-NO 61 2 min 0,000 mm 2,7 UV-I 609 W/m 4,0 C 10,3 C 12,9 km/h (3 Bft) 97,87 %
26.09.2018 11:40 10,9 C 15,6 C 26,1 C 64 % 1036,1 hPa 0,0 l/m 5,3 km/h (1 Bft) O-NO 75 2 min 0,000 mm 2,7 UV-I 611 W/m 4,4 C 10,9 C 11,3 km/h (2 Bft) 96,00 %
26.09.2018 11:42 10,9 C 15,6 C 26,1 C 63 % 1036,0 hPa 0,0 l/m 7,7 km/h (2 Bft) O 92 2 min 0,000 mm 2,8 UV-I 612 W/m 4,1 C 10,0 C 16,1 km/h (3 Bft) 98,00 %
26.09.2018 11:44 11,1 C 15,6 C 25,6 C 61 % 1036,0 hPa 0,0 l/m 11,7 km/h (2 Bft) O 98 2 min 0,000 mm 2,8 UV-I 615 W/m 3,9 C 7,9 C 16,1 km/h (3 Bft) 97,87 %
26.09.2018 11:46 11,2 C 15,6 C 26,1 C 62 % 1035,9 hPa 0,0 l/m 8,2 km/h (2 Bft) O-SO 116 2 min 0,000 mm 2,8 UV-I 616 W/m 4,2 C 10,0 C 14,5 km/h (3 Bft) 97,56 %
26.09.2018 11:49 11,1 C 15,6 C 25,6 C 59 % 1035,8 hPa 0,0 l/m 7,0 km/h (2 Bft) S 173 3 min 0,000 mm 2,8 UV-I 617 W/m 3,4 C 10,7 C 12,9 km/h (3 Bft) 97,26 %
26.09.2018 11:50 11,1 C 15,6 C 26,1 C 61 % 1035,8 hPa 0,0 l/m 2,6 km/h (1 Bft) N-NO 14 1 min 0,000 mm 2,8 UV-I 621 W/m 3,9 C 11,1 C 4,8 km/h (1 Bft) 95,83 %
26.09.2018 11:52 11,3 C 15,6 C 26,7 C 63 % 1035,8 hPa 0,0 l/m 4,8 km/h (1 Bft) SO 126 2 min 0,000 mm 2,8 UV-I 621 W/m 4,5 C 11,3 C 8,0 km/h (2 Bft) 100,00 %
26.09.2018 11:54 11,4 C 15,6 C 26,7 C 61 % 1035,9 hPa 0,0 l/m 5,0 km/h (1 Bft) SO 132 2 min 0,000 mm 2,9 UV-I 622 W/m 4,2 C 11,4 C 8,0 km/h (2 Bft) 92,45 %
26.09.2018 11:56 11,4 C 15,6 C 26,1 C 61 % 1035,8 hPa 0,0 l/m 9,4 km/h (2 Bft) N-NO 21 2 min 0,000 mm 2,9 UV-I 622 W/m 4,2 C 9,5 C 14,5 km/h (3 Bft) 95,74 %
26.09.2018 11:58 11,7 C 15,6 C 26,1 C 60 % 1035,8 hPa 0,0 l/m 10,7 km/h (2 Bft) O 91 2 min 0,000 mm 2,9 UV-I 622 W/m 4,2 C 9,1 C 16,1 km/h (3 Bft) 97,87 %
26.09.2018 12:00 11,8 C 15,6 C 26,1 C 58 % 1035,8 hPa 0,0 l/m 11,4 km/h (2 Bft) O 94 2 min 0,000 mm 2,9 UV-I 626 W/m 3,8 C 8,9 C 16,1 km/h (3 Bft) 97,87 %
26.09.2018 12:02 11,9 C 15,6 C 26,7 C 56 % 1035,8 hPa 0,0 l/m 7,9 km/h (2 Bft) O 82 2 min 0,305 mm 2,9 UV-I 628 W/m 3,4 C 10,9 C 12,9 km/h (3 Bft) 96,00 %
26.09.2018 12:04 12,1 C 15,6 C 26,7 C 56 % 1035,8 hPa 0,0 l/m 8,5 km/h (2 Bft) NO 44 2 min 0,000 mm 2,9 UV-I 629 W/m 3,6 C 10,8 C 12,9 km/h (3 Bft) 97,87 %
26.09.2018 12:06 11,9 C 15,6 C 26,1 C 55 % 1035,8 hPa 0,0 l/m 8,3 km/h (2 Bft) O-NO 67 2 min 0,000 mm 3,0 UV-I 630 W/m 3,2 C 10,7 C 14,5 km/h (3 Bft) 100,00 %
26.09.2018 12:08 11,9 C 15,6 C 25,0 C 55 % 1035,9 hPa 0,0 l/m 11,3 km/h (2 Bft) O-NO 69 2 min 0,000 mm 3,0 UV-I 631 W/m 3,2 C 9,0 C 16,1 km/h (3 Bft) 100,00 %
26.09.2018 12:10 11,8 C 15,6 C 25,0 C 54 % 1035,8 hPa 0,0 l/m 9,8 km/h (2 Bft) NO 39 2 min 0,000 mm 3,0 UV-I 633 W/m 2,8 C 9,7 C 14,5 km/h (3 Bft) 100,00 %
26.09.2018 12:12 11,8 C 15,6 C 25,0 C 58 % 1035,8 hPa 0,0 l/m 10,1 km/h (2 Bft) O-NO 59 2 min 0,000 mm 3,0 UV-I 633 W/m 3,8 C 9,5 C 16,1 km/h (3 Bft) 100,00 %
26.09.2018 12:14 11,9 C 15,6 C 25,6 C 54 % 1035,8 hPa 0,0 l/m 6,3 km/h (2 Bft) O-NO 74 2 min 0,000 mm 3,0 UV-I 636 W/m 2,9 C 11,9 C 12,9 km/h (3 Bft) 100,00 %
26.09.2018 12:16 12,1 C 15,6 C 24,4 C 58 % 1035,7 hPa 0,0 l/m 10,2 km/h (2 Bft) N-NO 26 2 min 0,000 mm 3,0 UV-I 639 W/m 4,1 C 9,8 C 17,7 km/h (3 Bft) 100,00 %
26.09.2018 12:18 12,2 C 15,6 C 24,4 C 53 % 1035,8 hPa 0,0 l/m 13,6 km/h (3 Bft) O-NO 67 2 min 0,000 mm 3,1 UV-I 643 W/m 2,9 C 8,4 C 19,3 km/h (3 Bft) 100,00 %
26.09.2018 12:20 12,2 C 15,6 C 24,4 C 53 % 1035,9 hPa 0,0 l/m 10,5 km/h (2 Bft) O 93 2 min 0,000 mm 2,9 UV-I 609 W/m 2,9 C 9,8 C 14,5 km/h (3 Bft) 100,00 %
26.09.2018 12:22 12,1 C 15,6 C 25,0 C 53 % 1035,9 hPa 0,0 l/m 6,0 km/h (2 Bft) O-NO 76 2 min 0,000 mm 2,9 UV-I 591 W/m 2,8 C 12,1 C 12,9 km/h (3 Bft) 98,11 %
26.09.2018 12:24 12,1 C 15,6 C 25,0 C 54 % 1035,9 hPa 0,0 l/m 10,1 km/h (2 Bft) O-NO 65 2 min 0,000 mm 3,1 UV-I 644 W/m 3,1 C 9,9 C 14,5 km/h (3 Bft) 96,23 %
26.09.2018 12:26 12,2 C 15,6 C 26,1 C 57 % 1035,9 hPa 0,0 l/m 7,5 km/h (2 Bft) NO 47 2 min 0,000 mm 3,1 UV-I 647 W/m 3,9 C 11,5 C 12,9 km/h (3 Bft) 97,87 %
26.09.2018 12:28 12,4 C 15,6 C 26,1 C 54 % 1035,8 hPa 0,0 l/m 6,7 km/h (2 Bft) NO 40 2 min 0,000 mm 3,1 UV-I 646 W/m 3,4 C 12,2 C 14,5 km/h (3 Bft) 94,74 %
26.09.2018 12:30 12,6 C 15,6 C 26,1 C 52 % 1035,8 hPa 0,0 l/m 7,9 km/h (2 Bft) O-NO 64 2 min 0,000 mm 3,1 UV-I 642 W/m 3,0 C 11,6 C 11,3 km/h (2 Bft) 96,23 %
26.09.2018 12:32 12,7 C 15,6 C 26,7 C 52 % 1035,7 hPa 0,0 l/m 7,6 km/h (2 Bft) O-NO 67 2 min 0,000 mm 3,1 UV-I 642 W/m 3,1 C 11,9 C 12,9 km/h (3 Bft) 97,87 %
26.09.2018 12:34 12,7 C 15,6 C 26,7 C 52 % 1035,7 hPa 0,0 l/m 9,1 km/h (2 Bft) O-SO 109 2 min 0,000 mm 3,1 UV-I 650 W/m 3,1 C 11,1 C 16,1 km/h (3 Bft) 95,74 %
26.09.2018 12:36 12,6 C 15,6 C 26,7 C 52 % 1035,6 hPa 0,0 l/m 9,5 km/h (2 Bft) O 101 2 min 0,000 mm 3,1 UV-I 651 W/m 3,0 C 10,7 C 14,5 km/h (3 Bft) 96,00 %
26.09.2018 12:38 12,7 C 15,6 C 27,2 C 51 % 1035,7 hPa 0,0 l/m 8,5 km/h (2 Bft) O-NO 67 2 min 0,000 mm 3,1 UV-I 654 W/m 2,8 C 11,4 C 12,9 km/h (3 Bft) 97,37 %
26.09.2018 12:40 12,9 C 15,6 C 27,2 C 52 % 1035,6 hPa 0,0 l/m 6,7 km/h (2 Bft) O-NO 67 2 min 0,000 mm 3,1 UV-I 653 W/m 3,3 C 12,7 C 11,3 km/h (2 Bft) 95,74 %
26.09.2018 12:42 12,9 C 15,6 C 26,1 C 49 % 1035,5 hPa 0,0 l/m 6,5 km/h (2 Bft) O-NO 64 2 min 0,000 mm 2,9 UV-I 565 W/m 2,5 C 12,9 C 11,3 km/h (2 Bft) 95,74 %
26.09.2018 12:44 12,7 C 15,6 C 24,4 C 52 % 1035,5 hPa 0,0 l/m 8,3 km/h (2 Bft) NO 34 2 min 0,000 mm 3,0 UV-I 525 W/m 3,1 C 11,5 C 12,9 km/h (3 Bft) 100,00 %
26.09.2018 12:46 12,8 C 15,6 C 25,6 C 52 % 1035,5 hPa 0,0 l/m 7,2 km/h (2 Bft) O 94 2 min 0,000 mm 3,1 UV-I 627 W/m 3,2 C 12,3 C 12,9 km/h (3 Bft) 97,87 %
26.09.2018 12:48 12,8 C 15,6 C 25,0 C 50 % 1035,5 hPa 0,0 l/m 7,8 km/h (2 Bft) O-SO 105 2 min 0,000 mm 3,0 UV-I 581 W/m 2,6 C 11,9 C 12,9 km/h (3 Bft) 100,00 %
26.09.2018 12:50 12,9 C 15,6 C 25,6 C 50 % 1035,5 hPa 0,0 l/m 8,9 km/h (2 Bft) SO 128 2 min 0,000 mm 3,1 UV-I 605 W/m 2,7 C 11,4 C 12,9 km/h (3 Bft) 100,00 %
26.09.2018 12:52 12,8 C 15,6 C 26,1 C 50 % 1035,5 hPa 0,0 l/m 4,9 km/h (1 Bft) O-SO 107 2 min 0,000 mm 3,2 UV-I 656 W/m 2,6 C 12,8 C 9,7 km/h (2 Bft) 100,00 %
26.09.2018 12:54 12,9 C 15,6 C 26,7 C 51 % 1035,5 hPa 0,0 l/m 4,5 km/h (1 Bft) NO 50 2 min 0,000 mm 3,2 UV-I 652 W/m 3,0 C 12,9 C 14,5 km/h (3 Bft) 96,00 %
26.09.2018 12:56 12,9 C 15,6 C 25,6 C 52 % 1035,5 hPa 0,0 l/m 5,9 km/h (2 Bft) N-NO 31 2 min 0,000 mm 3,2 UV-I 650 W/m 3,3 C 12,9 C 14,5 km/h (3 Bft) 100,00 %
26.09.2018 12:58 13,0 C 15,6 C 25,6 C 56 % 1035,4 hPa 0,0 l/m 7,6 km/h (2 Bft) N-NO 26 2 min 0,000 mm 3,2 UV-I 647 W/m 4,4 C 12,2 C 11,3 km/h (2 Bft) 100,00 %
26.09.2018 13:00 13,2 C 15,6 C 25,6 C 60 % 1035,4 hPa 0,0 l/m 8,4 km/h (2 Bft) O 96 2 min 0,000 mm 3,1 UV-I 635 W/m 5,6 C 12,0 C 14,5 km/h (3 Bft) 95,74 %
26.09.2018 13:02 13,3 C 15,6 C 26,7 C 52 % 1035,4 hPa 0,0 l/m 8,1 km/h (2 Bft) O 101 2 min 0,356 mm 3,1 UV-I 640 W/m 3,7 C 12,3 C 12,9 km/h (3 Bft) 100,00 %
26.09.2018 13:04 13,4 C 15,6 C 26,7 C 49 % 1035,3 hPa 0,0 l/m 9,3 km/h (2 Bft) O-NO 75 2 min 0,000 mm 3,1 UV-I 640 W/m 2,9 C 11,7 C 12,9 km/h (3 Bft) 100,00 %
26.09.2018 13:06 13,3 C 15,6 C 26,7 C 48 % 1035,2 hPa 0,0 l/m 3,8 km/h (1 Bft) S 180 2 min 0,000 mm 3,1 UV-I 627 W/m 2,5 C 13,3 C 6,4 km/h (2 Bft) 100,00 %
26.09.2018 13:08 13,2 C 15,6 C 27,2 C 51 % 1035,0 hPa 0,0 l/m 6,4 km/h (2 Bft) O 90 2 min 0,000 mm 3,2 UV-I 641 W/m 3,3 C 13,2 C 14,5 km/h (3 Bft) 100,00 %
26.09.2018 13:10 13,4 C 15,6 C 26,7 C 52 % 1035,0 hPa 0,0 l/m 12,6 km/h (3 Bft) O 96 2 min 0,000 mm 3,2 UV-I 642 W/m 3,7 C 10,2 C 17,7 km/h (3 Bft) 100,00 %
26.09.2018 13:12 13,6 C 15,6 C 27,2 C 49 % 1035,1 hPa 0,0 l/m 12,3 km/h (3 Bft) O-SO 110 2 min 0,000 mm 3,2 UV-I 641 W/m 3,1 C 10,5 C 19,3 km/h (3 Bft) 97,87 %
26.09.2018 13:14 13,7 C 15,6 C 27,8 C 50 % 1035,1 hPa 0,0 l/m 9,9 km/h (2 Bft) O 82 2 min 0,000 mm 3,1 UV-I 636 W/m 3,5 C 11,7 C 12,9 km/h (3 Bft) 98,00 %
26.09.2018 13:16 13,6 C 15,6 C 27,2 C 48 % 1035,0 hPa 0,0 l/m 5,0 km/h (1 Bft) O 88 2 min 0,000 mm 3,1 UV-I 636 W/m 2,8 C 13,6 C 11,3 km/h (2 Bft) 97,87 %
26.09.2018 13:18 13,6 C 15,6 C 27,2 C 53 % 1035,0 hPa 0,0 l/m 8,5 km/h (2 Bft) O-NO 78 2 min 0,000 mm 3,1 UV-I 634 W/m 4,2 C 12,4 C 14,5 km/h (3 Bft) 95,74 %
26.09.2018 13:20 13,8 C 15,6 C 27,2 C 54 % 1035,0 hPa 0,0 l/m 6,2 km/h (2 Bft) NO 35 2 min 0,000 mm 3,1 UV-I 633 W/m 4,7 C 13,8 C 11,3 km/h (2 Bft) 95,74 %
26.09.2018 13:22 13,9 C 15,6 C 26,7 C 55 % 1034,9 hPa 0,0 l/m 8,8 km/h (2 Bft) O-NO 76 2 min 0,000 mm 3,1 UV-I 634 W/m 5,0 C 12,5 C 14,5 km/h (3 Bft) 97,87 %
26.09.2018 13:24 14,0 C 15,6 C 26,1 C 55 % 1034,9 hPa 0,0 l/m 9,8 km/h (2 Bft) N-NO 31 2 min 0,000 mm 3,1 UV-I 631 W/m 5,1 C 12,1 C 14,5 km/h (3 Bft) 98,00 %
26.09.2018 13:26 14,0 C 15,6 C 25,6 C 50 % 1034,8 hPa 0,0 l/m 12,0 km/h (2 Bft) O-NO 74 2 min 0,000 mm 3,1 UV-I 632 W/m 3,7 C 11,1 C 16,1 km/h (3 Bft) 95,74 %
26.09.2018 13:28 13,9 C 15,6 C 26,1 C 50 % 1034,8 hPa 0,0 l/m 10,9 km/h (2 Bft) O-NO 67 2 min 0,000 mm 3,1 UV-I 632 W/m 3,7 C 11,5 C 16,1 km/h (3 Bft) 95,74 %
26.09.2018 13:30 14,1 C 15,6 C 26,7 C 48 % 1034,8 hPa 0,0 l/m 10,3 km/h (2 Bft) O 88 2 min 0,000 mm 3,1 UV-I 630 W/m 3,3 C 12,0 C 16,1 km/h (3 Bft) 97,87 %
26.09.2018 13:32 14,2 C 15,6 C 27,2 C 46 % 1034,8 hPa 0,0 l/m 8,3 km/h (2 Bft) O-SO 121 2 min 0,000 mm 3,1 UV-I 630 W/m 2,8 C 13,1 C 14,5 km/h (3 Bft) 96,00 %
26.09.2018 13:34 14,4 C 15,6 C 27,8 C 48 % 1034,8 hPa 0,0 l/m 6,7 km/h (2 Bft) N 10 2 min 0,000 mm 3,1 UV-I 627 W/m 3,5 C 14,2 C 9,7 km/h (2 Bft) 100,00 %
26.09.2018 13:36 14,4 C 15,6 C 27,2 C 50 % 1034,7 hPa 0,0 l/m 8,8 km/h (2 Bft) O 82 2 min 0,000 mm 3,1 UV-I 626 W/m 4,1 C 13,0 C 14,5 km/h (3 Bft) 93,62 %
26.09.2018 13:38 14,5 C 15,6 C 27,8 C 48 % 1034,7 hPa 0,0 l/m 4,4 km/h (1 Bft) O 86 2 min 0,000 mm 3,1 UV-I 624 W/m 3,6 C 14,5 C 12,9 km/h (3 Bft) 95,74 %
26.09.2018 13:40 14,4 C 15,6 C 28,3 C 48 % 1034,7 hPa 0,0 l/m 2,1 km/h (1 Bft) N-NO 19 2 min 0,000 mm 3,1 UV-I 626 W/m 3,5 C 14,4 C 4,8 km/h (1 Bft) 97,87 %
26.09.2018 13:42 14,4 C 15,6 C 27,2 C 50 % 1034,7 hPa 0,0 l/m 10,3 km/h (2 Bft) NO 55 2 min 0,000 mm 3,1 UV-I 625 W/m 4,1 C 12,3 C 16,1 km/h (3 Bft) 100,00 %
26.09.2018 13:44 14,5 C 15,6 C 27,2 C 46 % 1034,6 hPa 0,0 l/m 10,1 km/h (2 Bft) O-SO 105 2 min 0,000 mm 3,1 UV-I 612 W/m 3,0 C 12,5 C 17,7 km/h (3 Bft) 97,87 %
26.09.2018 13:46 14,3 C 15,6 C 27,2 C 45 % 1034,6 hPa 0,0 l/m 7,0 km/h (2 Bft) O-NO 78 2 min 0,000 mm 3,0 UV-I 620 W/m 2,5 C 13,9 C 14,5 km/h (3 Bft) 93,62 %
26.09.2018 13:48 14,3 C 15,6 C 27,2 C 46 % 1034,5 hPa 0,0 l/m 5,6 km/h (1 Bft) O-SO 115 2 min 0,000 mm 2,9 UV-I 626 W/m 2,8 C 14,3 C 11,3 km/h (2 Bft) 95,74 %
26.09.2018 13:50 14,3 C 15,6 C 27,2 C 46 % 1034,5 hPa 0,0 l/m 3,8 km/h (1 Bft) O 80 2 min 0,000 mm 3,0 UV-I 614 W/m 2,8 C 14,3 C 8,0 km/h (2 Bft) 98,11 %
26.09.2018 13:52 14,5 C 15,6 C 27,8 C 48 % 1034,4 hPa 0,0 l/m 7,3 km/h (2 Bft) O 86 2 min 0,000 mm 3,0 UV-I 612 W/m 3,6 C 14,0 C 11,3 km/h (2 Bft) 97,87 %
26.09.2018 13:54 14,7 C 15,6 C 27,8 C 48 % 1034,3 hPa 0,0 l/m 7,8 km/h (2 Bft) O-SO 103 2 min 0,000 mm 3,0 UV-I 610 W/m 3,8 C 13,9 C 11,3 km/h (2 Bft) 97,87 %
26.09.2018 13:56 14,8 C 15,6 C 27,8 C 46 % 1034,3 hPa 0,0 l/m 9,0 km/h (2 Bft) O-SO 109 2 min 0,000 mm 3,0 UV-I 608 W/m 3,3 C 13,4 C 11,3 km/h (2 Bft) 94,29 %
26.09.2018 13:58 15,1 C 15,6 C 27,8 C 45 % 1034,3 hPa 0,0 l/m 10,3 km/h (2 Bft) O 89 2 min 0,000 mm 3,0 UV-I 607 W/m 3,3 C 13,1 C 16,1 km/h (3 Bft) 96,23 %
26.09.2018 14:00 14,9 C 15,6 C 27,8 C 43 % 1034,3 hPa 0,0 l/m 7,5 km/h (2 Bft) SO 132 2 min 0,355 mm 2,9 UV-I 605 W/m 2,4 C 14,3 C 11,3 km/h (2 Bft) 97,87 %
26.09.2018 14:02 14,8 C 15,6 C 27,8 C 44 % 1034,3 hPa 0,0 l/m 4,4 km/h (1 Bft) SO 142 2 min 0,000 mm 2,9 UV-I 603 W/m 2,7 C 14,8 C 8,0 km/h (2 Bft) 95,74 %
26.09.2018 14:04 14,9 C 15,6 C 27,2 C 44 % 1034,2 hPa 0,0 l/m 9,7 km/h (2 Bft) O-NO 74 2 min 0,000 mm 2,9 UV-I 601 W/m 2,8 C 13,1 C 16,1 km/h (3 Bft) 97,87 %
26.09.2018 14:06 14,8 C 15,6 C 26,7 C 45 % 1034,2 hPa 0,0 l/m 8,5 km/h (2 Bft) O-NO 59 2 min 0,000 mm 2,9 UV-I 598 W/m 3,0 C 13,6 C 12,9 km/h (3 Bft) 100,00 %
26.09.2018 14:08 14,8 C 15,6 C 25,6 C 46 % 1034,2 hPa 0,0 l/m 8,1 km/h (2 Bft) NO 53 2 min 0,000 mm 2,8 UV-I 595 W/m 3,3 C 13,8 C 16,1 km/h (3 Bft) 100,00 %
26.09.2018 14:10 14,8 C 15,6 C 26,1 C 46 % 1034,2 hPa 0,0 l/m 8,5 km/h (2 Bft) O-NO 74 2 min 0,000 mm 2,8 UV-I 592 W/m 3,3 C 13,6 C 17,7 km/h (3 Bft) 100,00 %
26.09.2018 14:12 14,9 C 15,6 C 26,1 C 48 % 1034,2 hPa 0,0 l/m 6,8 km/h (2 Bft) O 100 2 min 0,000 mm 2,8 UV-I 591 W/m 4,0 C 14,7 C 11,3 km/h (2 Bft) 95,74 %
26.09.2018 14:14 14,8 C 15,6 C 26,7 C 44 % 1034,2 hPa 0,0 l/m 5,7 km/h (1 Bft) NO 56 2 min 0,000 mm 2,8 UV-I 588 W/m 2,7 C 14,8 C 8,0 km/h (2 Bft) 100,00 %
26.09.2018 14:16 14,8 C 15,6 C 26,7 C 47 % 1034,2 hPa 0,0 l/m 5,0 km/h (1 Bft) N-NO 27 2 min 0,000 mm 2,8 UV-I 586 W/m 3,6 C 14,8 C 8,0 km/h (2 Bft) 97,87 %
26.09.2018 14:18 15,0 C 15,6 C 26,7 C 45 % 1034,1 hPa 0,0 l/m 10,2 km/h (2 Bft) O 80 2 min 0,000 mm 2,8 UV-I 583 W/m 3,2 C 13,0 C 17,7 km/h (3 Bft) 96,00 %
26.09.2018 14:20 15,2 C 15,6 C 26,7 C 46 % 1034,1 hPa 0,0 l/m 5,3 km/h (1 Bft) NO 34 2 min 0,000 mm 2,7 UV-I 582 W/m 3,7 C 15,2 C 11,3 km/h (2 Bft) 100,00 %
26.09.2018 14:22 15,4 C 15,6 C 26,7 C 47 % 1034,1 hPa 0,0 l/m 6,4 km/h (2 Bft) O-SO 103 2 min 0,000 mm 2,7 UV-I 578 W/m 4,1 C 15,4 C 9,7 km/h (2 Bft) 100,00 %
26.09.2018 14:24 15,4 C 15,6 C 26,7 C 43 % 1034,1 hPa 0,0 l/m 6,0 km/h (2 Bft) O-NO 70 2 min 0,000 mm 2,7 UV-I 577 W/m 2,9 C 15,4 C 11,3 km/h (2 Bft) 100,00 %
26.09.2018 14:26 15,5 C 15,6 C 26,7 C 46 % 1034,1 hPa 0,0 l/m 8,0 km/h (2 Bft) O-NO 74 2 min 0,000 mm 2,7 UV-I 573 W/m 3,9 C 14,6 C 12,9 km/h (3 Bft) 100,00 %
26.09.2018 14:28 15,4 C 15,6 C 26,1 C 43 % 1034,0 hPa 0,0 l/m 7,3 km/h (2 Bft) O-NO 78 2 min 0,000 mm 2,6 UV-I 570 W/m 2,9 C 14,9 C 11,3 km/h (2 Bft) 100,00 %
26.09.2018 14:30 15,4 C 15,6 C 26,1 C 44 % 1034,1 hPa 0,0 l/m 8,5 km/h (2 Bft) NO 53 2 min 0,000 mm 2,6 UV-I 569 W/m 3,2 C 14,3 C 12,9 km/h (3 Bft) 100,00 %
26.09.2018 14:32 15,3 C 15,6 C 23,9 C 44 % 1034,1 hPa 0,0 l/m 7,6 km/h (2 Bft) NO 54 2 min 0,000 mm 2,6 UV-I 565 W/m 3,1 C 14,6 C 14,5 km/h (3 Bft) 100,00 %
26.09.2018 14:34 15,2 C 15,6 C 23,9 C 44 % 1034,1 hPa 0,0 l/m 6,0 km/h (2 Bft) O-SO 113 2 min 0,000 mm 2,6 UV-I 563 W/m 3,0 C 15,2 C 9,7 km/h (2 Bft) 100,00 %
26.09.2018 14:36 15,2 C 15,6 C 24,4 C 43 % 1034,0 hPa 0,0 l/m 3,3 km/h (1 Bft) O-SO 112 2 min 0,000 mm 2,6 UV-I 561 W/m 2,7 C 15,2 C 6,4 km/h (2 Bft) 100,00 %
26.09.2018 14:38 15,4 C 15,6 C 23,9 C 42 % 1034,1 hPa 0,0 l/m 7,4 km/h (2 Bft) O 94 2 min 0,000 mm 2,5 UV-I 560 W/m 2,6 C 14,8 C 12,9 km/h (3 Bft) 100,00 %
26.09.2018 14:40 15,3 C 15,6 C 22,2 C 41 % 1034,1 hPa 0,0 l/m 5,4 km/h (1 Bft) NO 36 2 min 0,000 mm 2,5 UV-I 557 W/m 2,1 C 15,3 C 11,3 km/h (2 Bft) 97,87 %
26.09.2018 14:42 15,6 C 15,6 C 21,7 C 46 % 1034,1 hPa 0,0 l/m 10,3 km/h (2 Bft) O 91 2 min 0,000 mm 2,5 UV-I 553 W/m 4,0 C 13,7 C 16,1 km/h (3 Bft) 97,87 %
26.09.2018 14:44 15,6 C 15,6 C 21,1 C 43 % 1034,1 hPa 0,0 l/m 7,6 km/h (2 Bft) NO 43 2 min 0,000 mm 2,5 UV-I 551 W/m 3,1 C 14,9 C 12,9 km/h (3 Bft) 97,87 %
26.09.2018 14:46 15,7 C 15,6 C 21,1 C 46 % 1034,0 hPa 0,0 l/m 5,6 km/h (1 Bft) O-NO 59 2 min 0,000 mm 2,4 UV-I 548 W/m 4,1 C 15,7 C 12,9 km/h (3 Bft) 97,87 %
26.09.2018 14:48 15,6 C 15,6 C 21,7 C 43 % 1034,0 hPa 0,0 l/m 2,7 km/h (1 Bft) O 94 2 min 0,000 mm 2,4 UV-I 546 W/m 3,1 C 15,6 C 8,0 km/h (2 Bft) 97,87 %
26.09.2018 14:50 15,6 C 15,6 C 21,7 C 42 % 1034,0 hPa 0,0 l/m 5,8 km/h (2 Bft) O 80 2 min 0,000 mm 2,4 UV-I 544 W/m 2,7 C 15,6 C 12,9 km/h (3 Bft) 97,92 %
26.09.2018 14:52 15,6 C 15,6 C 22,2 C 44 % 1034,0 hPa 0,0 l/m 6,1 km/h (2 Bft) O 80 2 min 0,000 mm 2,4 UV-I 538 W/m 3,4 C 15,6 C 9,7 km/h (2 Bft) 100,00 %
26.09.2018 14:54 15,6 C 15,6 C 22,2 C 43 % 1033,9 hPa 0,0 l/m 3,5 km/h (1 Bft) O-NO 77 2 min 0,000 mm 2,4 UV-I 537 W/m 3,1 C 15,6 C 8,0 km/h (2 Bft) 100,00 %
26.09.2018 14:56 15,6 C 15,6 C 22,2 C 44 % 1034,0 hPa 0,0 l/m 5,5 km/h (1 Bft) N-NO 16 2 min 0,000 mm 2,3 UV-I 534 W/m 3,4 C 15,6 C 11,3 km/h (2 Bft) 95,74 %
26.09.2018 14:58 15,7 C 15,6 C 22,2 C 48 % 1033,9 hPa 0,0 l/m 6,3 km/h (2 Bft) O-NO 70 2 min 0,000 mm 2,3 UV-I 532 W/m 4,7 C 15,7 C 9,7 km/h (2 Bft) 97,87 %
26.09.2018 15:00 15,9 C 15,6 C 21,7 C 43 % 1033,9 hPa 0,0 l/m 6,3 km/h (2 Bft) O-SO 107 2 min 0,000 mm 2,3 UV-I 528 W/m 3,3 C 15,9 C 11,3 km/h (2 Bft) 93,62 %
26.09.2018 15:02 15,9 C 15,6 C 21,7 C 41 % 1033,9 hPa 0,0 l/m 6,8 km/h (2 Bft) SO 126 2 min 0,331 mm 2,2 UV-I 526 W/m 2,7 C 15,7 C 11,3 km/h (2 Bft) 96,23 %
26.09.2018 15:04 15,9 C 15,6 C 21,7 C 42 % 1033,9 hPa 0,0 l/m 7,9 km/h (2 Bft) O-NO 63 2 min 0,000 mm 2,2 UV-I 522 W/m 3,0 C 15,1 C 14,5 km/h (3 Bft) 97,87 %
26.09.2018 15:06 15,9 C 15,6 C 21,7 C 43 % 1033,9 hPa 0,0 l/m 3,2 km/h (1 Bft) O-NO 75 2 min 0,000 mm 2,2 UV-I 506 W/m 3,3 C 15,9 C 8,0 km/h (2 Bft) 97,87 %
26.09.2018 15:08 15,8 C 15,6 C 23,3 C 42 % 1033,8 hPa 0,0 l/m 2,3 km/h (1 Bft) NO 36 2 min 0,000 mm 2,2 UV-I 499 W/m 2,9 C 15,8 C 4,8 km/h (1 Bft) 93,62 %
26.09.2018 15:10 15,8 C 15,6 C 22,8 C 45 % 1033,8 hPa 0,0 l/m 5,8 km/h (2 Bft) NO 40 2 min 0,000 mm 2,1 UV-I 477 W/m 3,9 C 15,8 C 8,0 km/h (2 Bft) 95,74 %
26.09.2018 15:12 15,8 C 15,6 C 21,1 C 45 % 1033,8 hPa 0,0 l/m 6,7 km/h (2 Bft) O-SO 121 2 min 0,000 mm 2,1 UV-I 509 W/m 3,9 C 15,6 C 12,9 km/h (3 Bft) 97,37 %
26.09.2018 15:14 15,9 C 15,6 C 21,1 C 42 % 1033,7 hPa 0,0 l/m 9,3 km/h (2 Bft) O-SO 111 2 min 0,000 mm 2,1 UV-I 501 W/m 3,0 C 14,4 C 12,9 km/h (3 Bft) 91,49 %
26.09.2018 15:16 16,0 C 15,6 C 21,1 C 42 % 1033,7 hPa 0,0 l/m 6,7 km/h (2 Bft) O 84 2 min 0,000 mm 2,1 UV-I 495 W/m 3,1 C 15,8 C 11,3 km/h (2 Bft) 96,00 %
26.09.2018 15:18 16,1 C 15,6 C 21,1 C 41 % 1033,7 hPa 0,0 l/m 8,8 km/h (2 Bft) O 94 2 min 0,000 mm 2,0 UV-I 491 W/m 2,8 C 14,9 C 12,9 km/h (3 Bft) 94,00 %
26.09.2018 15:20 16,0 C 15,6 C 21,7 C 43 % 1033,6 hPa 0,0 l/m 6,9 km/h (2 Bft) O-NO 74 2 min 0,000 mm 2,0 UV-I 486 W/m 3,4 C 15,7 C 11,3 km/h (2 Bft) 91,49 %
26.09.2018 15:22 15,9 C 15,6 C 20,6 C 45 % 1033,6 hPa 0,0 l/m 8,4 km/h (2 Bft) O-NO 59 2 min 0,000 mm 2,0 UV-I 483 W/m 4,0 C 14,8 C 12,9 km/h (3 Bft) 95,74 %
26.09.2018 15:24 15,9 C 15,6 C 19,4 C 45 % 1033,6 hPa 0,0 l/m 5,8 km/h (2 Bft) NO 52 2 min 0,000 mm 1,9 UV-I 477 W/m 4,0 C 15,9 C 8,0 km/h (2 Bft) 97,87 %
26.09.2018 15:26 16,1 C 15,6 C 18,9 C 45 % 1033,5 hPa 0,0 l/m 5,4 km/h (1 Bft) N-NO 22 2 min 0,000 mm 1,9 UV-I 472 W/m 4,2 C 16,1 C 8,0 km/h (2 Bft) 97,22 %
26.09.2018 15:28 16,2 C 15,6 C 17,8 C 43 % 1033,5 hPa 0,0 l/m 6,0 km/h (2 Bft) N-NO 23 2 min 0,000 mm 1,9 UV-I 469 W/m 3,6 C 16,2 C 11,3 km/h (2 Bft) 98,28 %
26.09.2018 15:30 16,1 C 15,6 C 17,2 C 43 % 1033,4 hPa 0,0 l/m 7,0 km/h (2 Bft) O-NO 63 2 min 0,000 mm 1,8 UV-I 466 W/m 3,5 C 15,8 C 14,5 km/h (3 Bft) 95,74 %
26.09.2018 15:32 16,1 C 15,6 C 16,7 C 42 % 1033,5 hPa 0,0 l/m 7,7 km/h (2 Bft) O-SO 112 2 min 0,000 mm 1,8 UV-I 462 W/m 3,2 C 15,4 C 12,9 km/h (3 Bft) 97,87 %
26.09.2018 15:34 16,2 C 15,6 C 16,7 C 45 % 1033,4 hPa 0,0 l/m 8,4 km/h (2 Bft) O 92 2 min 0,000 mm 1,8 UV-I 458 W/m 4,3 C 15,2 C 14,5 km/h (3 Bft) 97,87 %
26.09.2018 15:36 16,3 C 15,6 C 16,7 C 45 % 1033,4 hPa 0,0 l/m 8,5 km/h (2 Bft) O-NO 62 2 min 0,000 mm 1,7 UV-I 453 W/m 4,3 C 15,2 C 14,5 km/h (3 Bft) 100,00 %
26.09.2018 15:38 16,2 C 15,6 C 16,1 C 43 % 1033,4 hPa 0,0 l/m 3,9 km/h (1 Bft) N-NO 28 2 min 0,000 mm 1,7 UV-I 448 W/m 3,6 C 16,2 C 6,4 km/h (2 Bft) 97,87 %
26.09.2018 15:40 16,2 C 15,6 C 16,1 C 44 % 1033,4 hPa 0,0 l/m 6,1 km/h (2 Bft) O-NO 65 2 min 0,000 mm 1,7 UV-I 446 W/m 3,9 C 16,2 C 12,9 km/h (3 Bft) 100,00 %
26.09.2018 15:42 16,2 C 15,6 C 15,6 C 43 % 1033,3 hPa 0,0 l/m 6,7 km/h (2 Bft) O-NO 57 2 min 0,000 mm 1,6 UV-I 441 W/m 3,6 C 16,1 C 14,5 km/h (3 Bft) 95,65 %
26.09.2018 15:44 16,2 C 15,6 C 15,6 C 42 % 1033,3 hPa 0,0 l/m 2,8 km/h (1 Bft) O-NO 76 2 min 0,000 mm 1,6 UV-I 438 W/m 3,3 C 16,2 C 6,4 km/h (2 Bft) 100,00 %
26.09.2018 15:46 16,1 C 15,6 C 15,6 C 41 % 1033,4 hPa 0,0 l/m 5,2 km/h (1 Bft) O-NO 77 2 min 0,000 mm 1,6 UV-I 434 W/m 2,8 C 16,1 C 9,7 km/h (2 Bft) 100,00 %
26.09.2018 15:48 16,1 C 15,6 C 15,6 C 43 % 1033,3 hPa 0,0 l/m 8,1 km/h (2 Bft) N-NO 22 2 min 0,000 mm 1,6 UV-I 431 W/m 3,5 C 15,2 C 14,5 km/h (3 Bft) 100,00 %
26.09.2018 15:50 16,2 C 15,6 C 15,6 C 45 % 1033,3 hPa 0,0 l/m 8,6 km/h (2 Bft) O-NO 59 2 min 0,000 mm 1,5 UV-I 428 W/m 4,3 C 15,1 C 14,5 km/h (3 Bft) 100,00 %
26.09.2018 15:52 16,3 C 15,6 C 15,6 C 43 % 1033,3 hPa 0,0 l/m 7,0 km/h (2 Bft) O-NO 66 2 min 0,000 mm 1,5 UV-I 425 W/m 3,7 C 16,0 C 12,9 km/h (3 Bft) 97,87 %
26.09.2018 15:54 16,2 C 15,6 C 15,6 C 43 % 1033,3 hPa 0,0 l/m 3,6 km/h (1 Bft) O-SO 117 2 min 0,000 mm 1,5 UV-I 416 W/m 3,6 C 16,2 C 4,8 km/h (1 Bft) 100,00 %
26.09.2018 15:56 16,2 C 15,6 C 15,0 C 42 % 1033,2 hPa 0,0 l/m 2,0 km/h (1 Bft) O-SO 116 2 min 0,000 mm 1,4 UV-I 395 W/m 3,3 C 16,2 C 3,2 km/h (1 Bft) 97,87 %
26.09.2018 15:58 16,2 C 15,6 C 15,0 C 42 % 1033,2 hPa 0,0 l/m 1,8 km/h (1 Bft) O-SO 116 2 min 0,000 mm 1,4 UV-I 400 W/m 3,3 C 16,2 C 3,2 km/h (1 Bft) 95,74 %
26.09.2018 16:00 16,1 C 15,6 C 15,0 C 41 % 1033,2 hPa 0,0 l/m 2,3 km/h (1 Bft) O-SO 118 2 min 0,304 mm 1,4 UV-I 399 W/m 2,8 C 16,1 C 3,2 km/h (1 Bft) 100,00 %
26.09.2018 16:02 16,0 C 15,6 C 15,0 C 43 % 1033,2 hPa 0,0 l/m 2,6 km/h (1 Bft) O-SO 114 2 min 0,000 mm 1,4 UV-I 398 W/m 3,4 C 16,0 C 6,4 km/h (2 Bft) 100,00 %
26.09.2018 16:04 16,2 C 15,6 C 15,0 C 43 % 1033,1 hPa 0,0 l/m 5,6 km/h (1 Bft) N 355 2 min 0,000 mm 1,4 UV-I 395 W/m 3,6 C 16,2 C 9,7 km/h (2 Bft) 100,00 %
26.09.2018 16:06 16,3 C 16,1 C 15,0 C 41 % 1033,1 hPa 0,0 l/m 4,1 km/h (1 Bft) N 9 2 min 0,000 mm 1,3 UV-I 389 W/m 3,0 C 16,3 C 6,4 km/h (2 Bft) 97,87 %
26.09.2018 16:08 16,3 C 15,6 C 15,0 C 43 % 1033,0 hPa 0,0 l/m 4,3 km/h (1 Bft) N-NO 26 2 min 0,000 mm 1,3 UV-I 384 W/m 3,7 C 16,3 C 8,0 km/h (2 Bft) 100,00 %
26.09.2018 16:10 16,4 C 16,1 C 14,4 C 42 % 1032,9 hPa 0,0 l/m 3,2 km/h (1 Bft) N 355 2 min 0,000 mm 1,3 UV-I 379 W/m 3,5 C 16,4 C 6,4 km/h (2 Bft) 95,74 %
26.09.2018 16:12 16,5 C 15,6 C 14,4 C 42 % 1032,9 hPa 0,0 l/m 5,7 km/h (1 Bft) O 80 2 min 0,000 mm 1,3 UV-I 373 W/m 3,5 C 16,5 C 12,9 km/h (3 Bft) 97,87 %
26.09.2018 16:14 16,5 C 15,6 C 14,4 C 41 % 1032,9 hPa 0,0 l/m 8,1 km/h (2 Bft) O-SO 108 2 min 0,000 mm 1,2 UV-I 368 W/m 3,2 C 15,6 C 11,3 km/h (2 Bft) 100,00 %
26.09.2018 16:16 16,6 C 16,1 C 15,0 C 41 % 1032,9 hPa 0,0 l/m 5,8 km/h (2 Bft) O-SO 105 2 min 0,000 mm 1,2 UV-I 362 W/m 3,3 C 16,6 C 9,7 km/h (2 Bft) 100,00 %
26.09.2018 16:18 16,6 C 16,1 C 15,0 C 40 % 1032,9 hPa 0,0 l/m 4,4 km/h (1 Bft) O-SO 107 2 min 0,000 mm 1,2 UV-I 359 W/m 2,9 C 16,6 C 6,4 km/h (2 Bft) 100,00 %
26.09.2018 16:20 16,6 C 16,1 C 15,0 C 41 % 1032,9 hPa 0,0 l/m 3,3 km/h (1 Bft) O-SO 103 2 min 0,000 mm 1,2 UV-I 358 W/m 3,3 C 16,6 C 4,8 km/h (1 Bft) 97,87 %
26.09.2018 16:22 16,4 C 16,1 C 14,4 C 41 % 1032,9 hPa 0,0 l/m 0,8 km/h (0 Bft) O-SO 103 2 min 0,000 mm 1,1 UV-I 354 W/m 3,1 C 16,4 C 3,2 km/h (1 Bft) 97,87 %
26.09.2018 16:24 16,5 C 16,1 C 14,4 C 43 % 1032,8 hPa 0,0 l/m 1,9 km/h (1 Bft) O-SO 103 2 min 0,000 mm 1,1 UV-I 351 W/m 3,9 C 16,5 C 3,2 km/h (1 Bft) 100,00 %
26.09.2018 16:26 16,6 C 16,1 C 14,4 C 41 % 1032,8 hPa 0,0 l/m 3,8 km/h (1 Bft) N-NO 19 2 min 0,000 mm 1,1 UV-I 346 W/m 3,3 C 16,6 C 4,8 km/h (1 Bft) 100,00 %
26.09.2018 16:28 16,6 C 16,1 C 14,4 C 41 % 1032,8 hPa 0,0 l/m 2,5 km/h (1 Bft) N-NO 19 2 min 0,000 mm 1,1 UV-I 339 W/m 3,3 C 16,6 C 4,8 km/h (1 Bft) 100,00 %
26.09.2018 16:30 16,6 C 16,1 C 14,4 C 42 % 1032,8 hPa 0,0 l/m 2,8 km/h (1 Bft) NO 49 2 min 0,000 mm 1,0 UV-I 340 W/m 3,6 C 16,6 C 4,8 km/h (1 Bft) 100,00 %
26.09.2018 16:32 16,6 C 16,1 C 14,4 C 41 % 1032,8 hPa 0,0 l/m 3,5 km/h (1 Bft) O 97 2 min 0,000 mm 1,0 UV-I 330 W/m 3,3 C 16,6 C 6,4 km/h (2 Bft) 97,37 %
26.09.2018 16:34 16,4 C 16,1 C 14,4 C 40 % 1032,8 hPa 0,0 l/m 3,8 km/h (1 Bft) SO 128 2 min 0,000 mm 1,0 UV-I 322 W/m 2,8 C 16,4 C 6,4 km/h (2 Bft) 97,87 %
26.09.2018 16:36 16,4 C 16,1 C 14,4 C 41 % 1032,8 hPa 0,0 l/m 4,2 km/h (1 Bft) O-SO 108 2 min 0,000 mm 0,9 UV-I 326 W/m 3,1 C 16,4 C 6,4 km/h (2 Bft) 96,00 %
26.09.2018 16:38 16,5 C 16,1 C 14,4 C 42 % 1032,7 hPa 0,0 l/m 3,8 km/h (1 Bft) SO 136 2 min 0,000 mm 0,9 UV-I 319 W/m 3,5 C 16,5 C 6,4 km/h (2 Bft) 97,92 %
26.09.2018 16:40 16,4 C 16,1 C 14,4 C 42 % 1032,7 hPa 0,0 l/m 4,2 km/h (1 Bft) S-SO 155 2 min 0,000 mm 0,9 UV-I 319 W/m 3,5 C 16,4 C 8,0 km/h (2 Bft) 97,87 %
26.09.2018 16:42 16,3 C 16,1 C 14,4 C 40 % 1032,7 hPa 0,0 l/m 1,7 km/h (1 Bft) S-SO 155 2 min 0,000 mm 0,9 UV-I 317 W/m 2,7 C 16,3 C 3,2 km/h (1 Bft) 94,00 %
26.09.2018 16:44 16,2 C 16,1 C 14,4 C 42 % 1032,7 hPa 0,0 l/m 2,9 km/h (1 Bft) N-NO 17 2 min 0,000 mm 0,9 UV-I 313 W/m 3,3 C 16,2 C 4,8 km/h (1 Bft) 93,62 %
26.09.2018 16:46 16,3 C 16,1 C 14,4 C 43 % 1032,8 hPa 0,0 l/m 3,3 km/h (1 Bft) NO 51 2 min 0,000 mm 0,8 UV-I 316 W/m 3,7 C 16,3 C 4,8 km/h (1 Bft) 93,62 %
26.09.2018 16:48 16,5 C 16,1 C 15,0 C 45 % 1032,8 hPa 0,0 l/m 3,3 km/h (1 Bft) NO 54 2 min 0,000 mm 0,8 UV-I 315 W/m 4,5 C 16,5 C 4,8 km/h (1 Bft) 96,00 %
26.09.2018 16:50 16,6 C 16,1 C 15,0 C 42 % 1032,8 hPa 0,0 l/m 5,8 km/h (2 Bft) O 93 2 min 0,000 mm 0,8 UV-I 313 W/m 3,6 C 16,6 C 8,0 km/h (2 Bft) 95,74 %
26.09.2018 16:52 16,6 C 16,1 C 15,0 C 42 % 1032,8 hPa 0,0 l/m 4,7 km/h (1 Bft) O-NO 65 2 min 0,000 mm 0,7 UV-I 309 W/m 3,6 C 16,6 C 8,0 km/h (2 Bft) 94,29 %
26.09.2018 16:54 16,5 C 16,1 C 15,0 C 42 % 1032,8 hPa 0,0 l/m 3,7 km/h (1 Bft) O 82 2 min 0,000 mm 0,7 UV-I 304 W/m 3,5 C 16,5 C 6,4 km/h (2 Bft) 94,23 %
26.09.2018 16:56 16,5 C 16,1 C 15,0 C 42 % 1032,7 hPa 0,0 l/m 3,1 km/h (1 Bft) O 84 2 min 0,000 mm 0,7 UV-I 287 W/m 3,5 C 16,5 C 4,8 km/h (1 Bft) 95,74 %
26.09.2018 16:58 16,4 C 16,1 C 14,4 C 41 % 1032,7 hPa 0,0 l/m 2,6 km/h (1 Bft) O 90 2 min 0,000 mm 0,7 UV-I 287 W/m 3,1 C 16,4 C 4,8 km/h (1 Bft) 97,87 %
26.09.2018 17:00 16,5 C 16,1 C 14,4 C 44 % 1032,8 hPa 0,0 l/m 1,9 km/h (1 Bft) O 90 2 min 0,204 mm 0,6 UV-I 282 W/m 4,2 C 16,5 C 3,2 km/h (1 Bft) 97,87 %
26.09.2018 17:02 16,7 C 16,1 C 14,4 C 40 % 1032,7 hPa 0,0 l/m 0,0 km/h (0 Bft) O 90 2 min 0,000 mm 0,6 UV-I 271 W/m 3,0 C 16,7 C 1,6 km/h (1 Bft) 95,74 %
26.09.2018 17:04 16,7 C 16,1 C 14,4 C 42 % 1032,7 hPa 0,0 l/m 4,1 km/h (1 Bft) O-NO 69 2 min 0,000 mm 0,6 UV-I 269 W/m 3,7 C 16,7 C 6,4 km/h (2 Bft) 94,00 %
26.09.2018 17:06 16,6 C 16,1 C 14,4 C 41 % 1032,8 hPa 0,0 l/m 4,1 km/h (1 Bft) O-NO 69 2 min 0,000 mm 0,5 UV-I 239 W/m 3,3 C 16,6 C 4,8 km/h (1 Bft) 97,37 %
26.09.2018 17:08 16,5 C 16,1 C 14,4 C 45 % 1032,8 hPa 0,0 l/m 3,7 km/h (1 Bft) O-NO 72 2 min 0,000 mm 0,5 UV-I 215 W/m 4,5 C 16,5 C 4,8 km/h (1 Bft) 97,87 %
26.09.2018 17:10 16,4 C 16,1 C 13,9 C 44 % 1032,7 hPa 0,0 l/m 2,6 km/h (1 Bft) O-NO 71 2 min 0,000 mm 0,5 UV-I 180 W/m 4,1 C 16,4 C 3,2 km/h (1 Bft) 97,87 %
26.09.2018 17:12 16,4 C 16,1 C 13,9 C 44 % 1032,8 hPa 0,0 l/m 2,4 km/h (1 Bft) O-NO 71 2 min 0,000 mm 0,5 UV-I 177 W/m 4,1 C 16,4 C 4,8 km/h (1 Bft) 98,00 %
26.09.2018 17:14 16,4 C 16,1 C 13,9 C 41 % 1032,7 hPa 0,0 l/m 1,6 km/h (1 Bft) O-NO 71 2 min 0,000 mm 0,3 UV-I 157 W/m 3,1 C 16,4 C 3,2 km/h (1 Bft) 100,00 %
26.09.2018 17:16 16,3 C 16,1 C 13,3 C 43 % 1032,8 hPa 0,0 l/m 1,2 km/h (1 Bft) O-NO 71 2 min 0,000 mm 0,0 UV-I 150 W/m 3,7 C 16,3 C 3,2 km/h (1 Bft) 100,00 %
26.09.2018 17:18 16,3 C 16,1 C 13,3 C 42 % 1032,7 hPa 0,0 l/m 1,2 km/h (1 Bft) O-NO 71 2 min 0,000 mm 0,0 UV-I 176 W/m 3,4 C 16,3 C 3,2 km/h (1 Bft) 100,00 %
26.09.2018 17:20 16,4 C 16,1 C 13,3 C 43 % 1032,8 hPa 0,0 l/m 1,6 km/h (1 Bft) O-NO 71 2 min 0,000 mm 0,0 UV-I 176 W/m 3,8 C 16,4 C 3,2 km/h (1 Bft) 100,00 %
26.09.2018 17:22 16,6 C 16,1 C 12,8 C 41 % 1032,7 hPa 0,0 l/m 1,6 km/h (1 Bft) O-NO 71 2 min 0,000 mm 0,0 UV-I 170 W/m 3,3 C 16,6 C 3,2 km/h (1 Bft) 100,00 %
26.09.2018 17:24 16,6 C 16,1 C 12,8 C 40 % 1032,7 hPa 0,0 l/m 1,3 km/h (1 Bft) O-NO 71 2 min 0,000 mm 0,0 UV-I 185 W/m 2,9 C 16,6 C 3,2 km/h (1 Bft) 100,00 %
26.09.2018 17:26 16,6 C 16,1 C 12,8 C 41 % 1032,7 hPa 0,0 l/m 1,0 km/h (0 Bft) O-NO 71 2 min 0,000 mm 0,0 UV-I 182 W/m 3,3 C 16,6 C 3,2 km/h (1 Bft) 100,00 %
26.09.2018 17:28 16,4 C 16,1 C 12,8 C 41 % 1032,7 hPa 0,0 l/m 1,4 km/h (1 Bft) O-NO 71 2 min 0,000 mm 0,0 UV-I 149 W/m 3,1 C 16,4 C 3,2 km/h (1 Bft) 100,00 %
26.09.2018 17:30 16,3 C 16,1 C 12,8 C 43 % 1032,7 hPa 0,0 l/m 2,0 km/h (1 Bft) O-NO 71 2 min 0,000 mm 0,0 UV-I 176 W/m 3,7 C 16,3 C 3,2 km/h (1 Bft) 100,00 %
26.09.2018 17:32 16,2 C 16,1 C 12,8 C 43 % 1032,7 hPa 0,0 l/m 2,1 km/h (1 Bft) O-NO 71 2 min 0,000 mm 0,0 UV-I 169 W/m 3,6 C 16,2 C 3,2 km/h (1 Bft) 100,00 %
26.09.2018 17:34 16,1 C 16,1 C 13,3 C 43 % 1032,7 hPa 0,0 l/m 1,9 km/h (1 Bft) O-NO 71 2 min 0,000 mm 0,0 UV-I 134 W/m 3,5 C 16,1 C 3,2 km/h (1 Bft) 97,87 %
26.09.2018 17:36 16,1 C 16,1 C 12,8 C 42 % 1032,7 hPa 0,0 l/m 1,4 km/h (1 Bft) O-NO 71 0 min 0,000 mm 0,0 UV-I 111 W/m 3,2 C 16,1 C 1,6 km/h (1 Bft) 100,00 %
26.09.2018 17:38 16,1 C 16,1 C 12,8 C 42 % 1032,6 hPa 0,0 l/m 1,0 km/h (0 Bft) O-NO 71 0 min 0,000 mm 0,0 UV-I 96 W/m 3,2 C 16,1 C 1,6 km/h (1 Bft) 95,74 %
26.09.2018 17:40 16,1 C 16,1 C 12,8 C 42 % 1032,6 hPa 0,0 l/m 0,1 km/h (0 Bft) O-NO 71 0 min 0,000 mm 0,0 UV-I 93 W/m 3,2 C 16,1 C 1,6 km/h (1 Bft) 97,87 %
26.09.2018 17:42 15,9 C 16,1 C 12,8 C 43 % 1032,6 hPa 0,0 l/m 0,0 km/h (0 Bft) O-NO 71 0 min 0,000 mm 0,0 UV-I 80 W/m 3,3 C 15,9 C 0,0 km/h (0 Bft) 100,00 %
26.09.2018 17:44 15,8 C 16,1 C 12,2 C 43 % 1032,5 hPa 0,0 l/m 0,1 km/h (0 Bft) O-NO 71 0 min 0,000 mm 0,0 UV-I 89 W/m 3,3 C 15,8 C 1,6 km/h (1 Bft) 100,00 %
26.09.2018 17:46 15,7 C 16,1 C 12,2 C 44 % 1032,5 hPa 0,0 l/m 0,0 km/h (0 Bft) O-NO 71 2 min 0,000 mm 0,0 UV-I 109 W/m 3,5 C 15,7 C 0,0 km/h (0 Bft) 100,00 %
26.09.2018 17:48 15,6 C 16,1 C 12,2 C 44 % 1032,5 hPa 0,0 l/m 0,0 km/h (0 Bft) O-NO 71 2 min 0,000 mm 0,0 UV-I 110 W/m 3,4 C 15,6 C 0,0 km/h (0 Bft) 98,00 %
26.09.2018 17:50 15,6 C 16,1 C 11,7 C 45 % 1032,6 hPa 0,0 l/m 0,0 km/h (0 Bft) O-NO 71 0 min 0,000 mm 0,0 UV-I 86 W/m 3,7 C 15,6 C 0,0 km/h (0 Bft) 100,00 %
26.09.2018 17:52 15,4 C 16,1 C 11,7 C 51 % 1032,5 hPa 0,0 l/m 0,2 km/h (0 Bft) O-NO 71 0 min 0,000 mm 0,0 UV-I 72 W/m 5,3 C 15,4 C 1,6 km/h (1 Bft) 100,00 %
26.09.2018 17:54 15,1 C 16,1 C 11,7 C 51 % 1032,6 hPa 0,0 l/m 0,8 km/h (0 Bft) O-NO 71 0 min 0,000 mm 0,0 UV-I 63 W/m 5,0 C 15,1 C 1,6 km/h (1 Bft) 100,00 %
26.09.2018 17:56 14,9 C 16,1 C 11,1 C 52 % 1032,6 hPa 0,0 l/m 1,0 km/h (0 Bft) O-NO 71 0 min 0,000 mm 0,0 UV-I 60 W/m 5,1 C 14,9 C 1,6 km/h (1 Bft) 97,87 %
26.09.2018 17:58 14,7 C 16,1 C 11,1 C 55 % 1032,6 hPa 0,0 l/m 0,9 km/h (0 Bft) O-NO 71 0 min 0,000 mm 0,0 UV-I 59 W/m 5,8 C 14,7 C 1,6 km/h (1 Bft) 93,62 %
26.09.2018 18:00 14,6 C 16,1 C 11,1 C 57 % 1032,6 hPa 0,0 l/m 0,3 km/h (0 Bft) O-NO 71 0 min 0,101 mm 0,0 UV-I 71 W/m 6,2 C 14,6 C 1,6 km/h (1 Bft) 96,00 %
26.09.2018 18:02 14,4 C 16,1 C 11,1 C 59 % 1032,6 hPa 0,0 l/m 0,2 km/h (0 Bft) O-NO 71 2 min 0,000 mm 0,0 UV-I 85 W/m 6,5 C 14,4 C 1,6 km/h (1 Bft) 93,62 %
26.09.2018 18:04 14,2 C 16,1 C 11,1 C 60 % 1032,6 hPa 0,0 l/m 0,0 km/h (0 Bft) O-NO 71 0 min 0,000 mm 0,0 UV-I 65 W/m 6,5 C 14,2 C 0,0 km/h (0 Bft) 93,62 %
26.09.2018 18:06 14,1 C 16,1 C 10,6 C 61 % 1032,6 hPa 0,0 l/m 0,0 km/h (0 Bft) O-NO 71 0 min 0,000 mm 0,0 UV-I 53 W/m 6,7 C 14,1 C 0,0 km/h (0 Bft) 97,87 %
26.09.2018 18:08 14,1 C 16,1 C 10,6 C 60 % 1032,6 hPa 0,0 l/m 0,0 km/h (0 Bft) O-NO 71 0 min 0,000 mm 0,0 UV-I 55 W/m 6,5 C 14,1 C 0,0 km/h (0 Bft) 95,74 %
26.09.2018 18:10 14,2 C 16,1 C 10,0 C 62 % 1032,7 hPa 0,0 l/m 0,0 km/h (0 Bft) O-NO 71 2 min 0,000 mm 0,0 UV-I 73 W/m 7,0 C 14,2 C 0,0 km/h (0 Bft) 93,62 %
26.09.2018 18:12 13,9 C 16,1 C 10,0 C 63 % 1032,7 hPa 0,0 l/m 0,0 km/h (0 Bft) O-NO 71 2 min 0,000 mm 0,0 UV-I 81 W/m 7,0 C 13,9 C 0,0 km/h (0 Bft) 95,74 %
26.09.2018 18:14 13,7 C 16,1 C 10,0 C 62 % 1032,7 hPa 0,0 l/m 0,0 km/h (0 Bft) O-NO 71 2 min 0,000 mm 0,0 UV-I 81 W/m 6,6 C 13,7 C 0,0 km/h (0 Bft) 94,29 %
26.09.2018 18:16 13,5 C 16,1 C 10,0 C 63 % 1032,8 hPa 0,0 l/m 0,0 km/h (0 Bft) O-NO 71 2 min 0,000 mm 0,0 UV-I 76 W/m 6,6 C 13,5 C 0,0 km/h (0 Bft) 95,74 %
26.09.2018 18:18 13,3 C 16,1 C 10,0 C 62 % 1032,7 hPa 0,0 l/m 0,0 km/h (0 Bft) O-NO 71 2 min 0,000 mm 0,0 UV-I 70 W/m 6,2 C 13,3 C 0,0 km/h (0 Bft) 95,74 %
26.09.2018 18:20 13,2 C 16,1 C 10,0 C 63 % 1032,6 hPa 0,0 l/m 0,9 km/h (0 Bft) O-NO 74 2 min 0,000 mm 0,0 UV-I 58 W/m 6,3 C 13,2 C 1,6 km/h (1 Bft) 95,74 %
26.09.2018 18:22 13,0 C 16,1 C 10,0 C 65 % 1032,6 hPa 0,0 l/m 1,2 km/h (1 Bft) O-NO 74 0 min 0,000 mm 0,0 UV-I 40 W/m 6,6 C 13,0 C 1,6 km/h (1 Bft) 95,74 %
26.09.2018 18:24 12,8 C 16,1 C 9,4 C 65 % 1032,6 hPa 0,0 l/m 1,7 km/h (1 Bft) O-NO 74 0 min 0,000 mm 0,0 UV-I 33 W/m 6,4 C 12,8 C 3,2 km/h (1 Bft) 93,62 %
26.09.2018 18:26 12,6 C 16,1 C 9,4 C 67 % 1032,6 hPa 0,0 l/m 1,6 km/h (1 Bft) O-NO 74 0 min 0,000 mm 0,0 UV-I 29 W/m 6,6 C 12,6 C 3,2 km/h (1 Bft) 95,74 %
26.09.2018 18:28 12,4 C 16,1 C 8,9 C 68 % 1032,5 hPa 0,0 l/m 1,8 km/h (1 Bft) O-NO 74 0 min 0,000 mm 0,0 UV-I 26 W/m 6,7 C 12,4 C 3,2 km/h (1 Bft) 98,11 %
26.09.2018 18:30 12,2 C 16,1 C 8,9 C 70 % 1032,5 hPa 0,0 l/m 1,6 km/h (1 Bft) O-NO 74 0 min 0,000 mm 0,0 UV-I 24 W/m 6,9 C 12,2 C 3,2 km/h (1 Bft) 97,87 %
26.09.2018 18:32 11,9 C 16,1 C 8,9 C 70 % 1032,5 hPa 0,0 l/m 1,2 km/h (1 Bft) O-NO 74 0 min 0,000 mm 0,0 UV-I 23 W/m 6,6 C 11,9 C 1,6 km/h (1 Bft) 95,83 %
26.09.2018 18:34 11,8 C 16,1 C 8,9 C 72 % 1032,6 hPa 0,0 l/m 0,6 km/h (0 Bft) O-NO 74 0 min 0,000 mm 0,0 UV-I 21 W/m 6,9 C 11,8 C 1,6 km/h (1 Bft) 95,92 %
26.09.2018 18:36 11,6 C 16,1 C 8,3 C 72 % 1032,5 hPa 0,0 l/m 1,0 km/h (0 Bft) O-NO 74 0 min 0,000 mm 0,0 UV-I 19 W/m 6,7 C 11,6 C 1,6 km/h (1 Bft) 95,83 %
26.09.2018 18:38 11,3 C 16,1 C 8,3 C 73 % 1032,6 hPa 0,0 l/m 1,5 km/h (1 Bft) O-NO 74 2 min 0,000 mm 0,0 UV-I 18 W/m 6,6 C 11,3 C 3,2 km/h (1 Bft) 97,87 %
26.09.2018 18:40 11,2 C 16,1 C 8,3 C 74 % 1032,6 hPa 0,0 l/m 2,5 km/h (1 Bft) O-NO 74 2 min 0,000 mm 0,0 UV-I 17 W/m 6,7 C 11,2 C 3,2 km/h (1 Bft) 93,62 %
26.09.2018 18:42 11,0 C 16,1 C 8,3 C 74 % 1032,6 hPa 0,0 l/m 2,6 km/h (1 Bft) O-NO 74 2 min 0,000 mm 0,0 UV-I 14 W/m 6,5 C 11,0 C 3,2 km/h (1 Bft) 100,00 %
26.09.2018 18:44 10,9 C 16,1 C 8,3 C 74 % 1032,6 hPa 0,0 l/m 2,4 km/h (1 Bft) O-NO 74 0 min 0,000 mm 0,0 UV-I 13 W/m 6,5 C 10,9 C 3,2 km/h (1 Bft) 95,74 %
26.09.2018 18:46 10,9 C 16,1 C 8,3 C 71 % 1032,6 hPa 0,0 l/m 1,8 km/h (1 Bft) O-NO 74 0 min 0,000 mm 0,0 UV-I 11 W/m 5,9 C 10,9 C 3,2 km/h (1 Bft) 93,62 %
26.09.2018 18:48 11,1 C 16,1 C 7,8 C 70 % 1032,6 hPa 0,0 l/m 0,4 km/h (0 Bft) O-NO 74 0 min 0,000 mm 0,0 UV-I 10 W/m 5,8 C 11,1 C 1,6 km/h (1 Bft) 94,00 %
26.09.2018 18:50 11,2 C 16,1 C 7,8 C 69 % 1032,7 hPa 0,0 l/m 0,0 km/h (0 Bft) O-NO 74 0 min 0,000 mm 0,0 UV-I 8 W/m 5,7 C 11,2 C 0,0 km/h (0 Bft) 94,00 %
26.09.2018 18:52 11,3 C 16,1 C 7,8 C 70 % 1032,7 hPa 0,0 l/m 0,0 km/h (0 Bft) O-NO 74 0 min 0,000 mm 0,0 UV-I 7 W/m 6,0 C 11,3 C 0,0 km/h (0 Bft) 93,62 %
26.09.2018 18:54 11,3 C 16,1 C 7,2 C 68 % 1032,7 hPa 0,0 l/m 0,0 km/h (0 Bft) O-NO 74 0 min 0,000 mm 0,0 UV-I 7 W/m 5,6 C 11,3 C 0,0 km/h (0 Bft) 98,00 %
26.09.2018 18:56 11,2 C 16,1 C 7,2 C 68 % 1032,7 hPa 0,0 l/m 0,0 km/h (0 Bft) O-NO 74 0 min 0,000 mm 0,0 UV-I 5 W/m 5,5 C 11,2 C 0,0 km/h (0 Bft) 89,47 %
26.09.2018 18:58 11,1 C 16,1 C 7,2 C 70 % 1032,7 hPa 0,0 l/m 0,3 km/h (0 Bft) O-NO 74 0 min 0,000 mm 0,0 UV-I 5 W/m 5,8 C 11,1 C 1,6 km/h (1 Bft) 95,74 %
26.09.2018 19:00 10,7 C 16,1 C 7,2 C 71 % 1032,5 hPa 0,0 l/m 1,8 km/h (1 Bft) O-NO 75 0 min 0,000 mm 0,0 UV-I 5 W/m 5,7 C 10,7 C 3,2 km/h (1 Bft) 96,23 %
26.09.2018 19:02 10,2 C 16,1 C 7,2 C 73 % 1032,6 hPa 0,0 l/m 2,9 km/h (1 Bft) O 79 0 min 0,026 mm 0,0 UV-I 5 W/m 5,6 C 10,2 C 3,2 km/h (1 Bft) 91,49 %
26.09.2018 19:04 9,9 C 16,1 C 7,2 C 76 % 1032,7 hPa 0,0 l/m 3,5 km/h (1 Bft) O 80 0 min 0,000 mm 0,0 UV-I 5 W/m 5,9 C 9,9 C 4,8 km/h (1 Bft) 93,62 %
26.09.2018 19:06 9,9 C 16,1 C 7,2 C 77 % 1032,6 hPa 0,0 l/m 3,3 km/h (1 Bft) O 80 0 min 0,000 mm 0,0 UV-I 6 W/m 6,1 C 9,9 C 4,8 km/h (1 Bft) 97,87 %
26.09.2018 19:08 9,9 C 16,1 C 7,2 C 75 % 1032,6 hPa 0,0 l/m 2,7 km/h (1 Bft) O 80 0 min 0,000 mm 0,0 UV-I 0 W/m 5,7 C 9,9 C 3,2 km/h (1 Bft) 95,74 %
26.09.2018 19:10 10,1 C 16,1 C 7,2 C 73 % 1032,6 hPa 0,0 l/m 1,6 km/h (1 Bft) O 80 0 min 0,000 mm 0,0 UV-I 0 W/m 5,5 C 10,1 C 3,2 km/h (1 Bft) 97,92 %
26.09.2018 19:12 10,2 C 16,1 C 7,2 C 71 % 1032,6 hPa 0,0 l/m 1,0 km/h (0 Bft) O 80 0 min 0,000 mm 0,0 UV-I 5 W/m 5,2 C 10,2 C 1,6 km/h (1 Bft) 95,74 %
26.09.2018 19:14 10,3 C 16,1 C 7,2 C 71 % 1032,7 hPa 0,0 l/m 0,5 km/h (0 Bft) O 80 0 min 0,000 mm 0,0 UV-I 4 W/m 5,3 C 10,3 C 1,6 km/h (1 Bft) 95,74 %
26.09.2018 19:16 10,3 C 16,1 C 6,7 C 71 % 1032,7 hPa 0,0 l/m 0,0 km/h (0 Bft) O 80 0 min 0,000 mm 0,0 UV-I 0 W/m 5,3 C 10,3 C 1,6 km/h (1 Bft) 93,62 %
26.09.2018 19:18 10,3 C 16,1 C 6,7 C 71 % 1032,6 hPa 0,0 l/m 1,6 km/h (1 Bft) O 80 0 min 0,000 mm 0,0 UV-I 0 W/m 5,3 C 10,3 C 3,2 km/h (1 Bft) 91,49 %
26.09.2018 19:20 10,3 C 16,1 C 6,1 C 72 % 1032,7 hPa 0,0 l/m 1,8 km/h (1 Bft) O 80 0 min 0,000 mm 0,0 UV-I 0 W/m 5,5 C 10,3 C 3,2 km/h (1 Bft) 95,74 %
26.09.2018 19:22 10,2 C 16,1 C 6,1 C 73 % 1032,7 hPa 0,0 l/m 1,6 km/h (1 Bft) O 80 0 min 0,000 mm 0,0 UV-I 0 W/m 5,6 C 10,2 C 3,2 km/h (1 Bft) 95,74 %
26.09.2018 19:24 10,2 C 16,1 C 6,1 C 73 % 1032,7 hPa 0,0 l/m 1,6 km/h (1 Bft) O 80 0 min 0,000 mm 0,0 UV-I 0 W/m 5,6 C 10,2 C 3,2 km/h (1 Bft) 94,74 %
26.09.2018 19:26 10,2 C 16,1 C 6,1 C 73 % 1032,7 hPa 0,0 l/m 1,0 km/h (0 Bft) O 80 0 min 0,000 mm 0,0 UV-I 0 W/m 5,6 C 10,2 C 1,6 km/h (1 Bft) 96,00 %
26.09.2018 19:28 9,9 C 16,1 C 5,6 C 73 % 1032,8 hPa 0,0 l/m 1,3 km/h (1 Bft) O 80 0 min 0,000 mm 0,0 UV-I 0 W/m 5,3 C 9,9 C 3,2 km/h (1 Bft) 93,62 %
26.09.2018 19:30 9,7 C 16,1 C 5,6 C 74 % 1032,7 hPa 0,0 l/m 2,0 km/h (1 Bft) O 80 0 min 0,000 mm 0,0 UV-I 0 W/m 5,3 C 9,7 C 3,2 km/h (1 Bft) 96,00 %
26.09.2018 19:32 9,7 C 16,1 C 5,6 C 74 % 1032,7 hPa 0,0 l/m 2,5 km/h (1 Bft) O 80 0 min 0,000 mm 0,0 UV-I 0 W/m 5,3 C 9,7 C 3,2 km/h (1 Bft) 95,74 %
26.09.2018 19:34 9,6 C 16,1 C 5,6 C 74 % 1032,7 hPa 0,0 l/m 2,6 km/h (1 Bft) SO 144 0 min 0,000 mm 0,0 UV-I 0 W/m 5,2 C 9,6 C 3,2 km/h (1 Bft) 97,87 %
26.09.2018 19:36 9,5 C 16,1 C 5,6 C 74 % 1032,7 hPa 0,0 l/m 2,5 km/h (1 Bft) SO 144 0 min 0,000 mm 0,0 UV-I 0 W/m 5,1 C 9,5 C 3,2 km/h (1 Bft) 97,14 %
26.09.2018 19:38 9,2 C 16,1 C 5,0 C 75 % 1032,8 hPa 0,0 l/m 2,8 km/h (1 Bft) SO 144 0 min 0,000 mm 0,0 UV-I 0 W/m 5,0 C 9,2 C 3,2 km/h (1 Bft) 98,00 %
26.09.2018 19:40 9,1 C 16,1 C 5,0 C 76 % 1032,8 hPa 0,0 l/m 3,6 km/h (1 Bft) SO 144 0 min 0,000 mm 0,0 UV-I 0 W/m 5,1 C 9,1 C 4,8 km/h (1 Bft) 97,87 %
26.09.2018 19:42 8,9 C 16,1 C 5,6 C 76 % 1032,8 hPa 0,0 l/m 3,7 km/h (1 Bft) SO 144 0 min 0,000 mm 0,0 UV-I 0 W/m 4,9 C 8,9 C 4,8 km/h (1 Bft) 95,83 %
26.09.2018 19:44 8,9 C 16,1 C 5,6 C 77 % 1032,8 hPa 0,0 l/m 2,9 km/h (1 Bft) SO 144 0 min 0,000 mm 0,0 UV-I 0 W/m 5,1 C 8,9 C 3,2 km/h (1 Bft) 100,00 %
26.09.2018 19:46 9,1 C 16,1 C 5,6 C 77 % 1032,8 hPa 0,0 l/m 2,1 km/h (1 Bft) SO 144 0 min 0,000 mm 0,0 UV-I 0 W/m 5,3 C 9,1 C 3,2 km/h (1 Bft) 100,00 %
26.09.2018 19:48 9,2 C 16,1 C 5,6 C 77 % 1032,9 hPa 0,0 l/m 1,9 km/h (1 Bft) SO 144 0 min 0,000 mm 0,0 UV-I 0 W/m 5,4 C 9,2 C 3,2 km/h (1 Bft) 97,87 %
26.09.2018 19:50 9,2 C 16,1 C 5,6 C 77 % 1032,9 hPa 0,0 l/m 2,3 km/h (1 Bft) SO 144 0 min 0,000 mm 0,0 UV-I 0 W/m 5,4 C 9,2 C 3,2 km/h (1 Bft) 98,00 %
26.09.2018 19:52 9,3 C 16,1 C 5,6 C 77 % 1032,9 hPa 0,0 l/m 2,7 km/h (1 Bft) SO 144 0 min 0,000 mm 0,0 UV-I 0 W/m 5,5 C 9,3 C 4,8 km/h (1 Bft) 98,00 %
26.09.2018 19:54 9,4 C 16,1 C 5,6 C 76 % 1032,9 hPa 0,0 l/m 4,9 km/h (1 Bft) S-SO 159 0 min 0,000 mm 0,0 UV-I 0 W/m 5,4 C 9,4 C 6,4 km/h (2 Bft) 97,14 %
26.09.2018 19:56 9,4 C 16,1 C 5,6 C 75 % 1032,9 hPa 0,0 l/m 4,0 km/h (1 Bft) S-SO 159 0 min 0,000 mm 0,0 UV-I 0 W/m 5,2 C 9,4 C 6,4 km/h (2 Bft) 100,00 %
26.09.2018 19:58 9,1 C 16,1 C 5,6 C 76 % 1032,9 hPa 0,0 l/m 3,0 km/h (1 Bft) S-SO 159 0 min 0,000 mm 0,0 UV-I 0 W/m 5,1 C 9,1 C 6,4 km/h (2 Bft) 100,00 %
26.09.2018 20:00 9,0 C 16,1 C 5,6 C 76 % 1032,9 hPa 0,0 l/m 3,0 km/h (1 Bft) S-SO 159 0 min 0,000 mm 0,0 UV-I 0 W/m 5,0 C 9,0 C 3,2 km/h (1 Bft) 100,00 %
26.09.2018 20:02 9,1 C 16,1 C 5,6 C 75 % 1033,0 hPa 0,0 l/m 2,8 km/h (1 Bft) S-SO 159 0 min 0,000 mm 0,0 UV-I 0 W/m 4,9 C 9,1 C 3,2 km/h (1 Bft) 100,00 %
26.09.2018 20:04 9,2 C 16,1 C 5,6 C 76 % 1033,0 hPa 0,0 l/m 2,1 km/h (1 Bft) S-SO 159 0 min 0,000 mm 0,0 UV-I 0 W/m 5,2 C 9,2 C 3,2 km/h (1 Bft) 97,87 %
26.09.2018 20:06 9,2 C 16,1 C 5,6 C 76 % 1032,9 hPa 0,0 l/m 2,9 km/h (1 Bft) S-SO 159 0 min 0,000 mm 0,0 UV-I 0 W/m 5,2 C 9,2 C 3,2 km/h (1 Bft) 97,87 %
26.09.2018 20:08 9,3 C 16,1 C 5,6 C 75 % 1032,9 hPa 0,0 l/m 3,4 km/h (1 Bft) S 169 0 min 0,000 mm 0,0 UV-I 0 W/m 5,1 C 9,3 C 6,4 km/h (2 Bft) 97,87 %
26.09.2018 20:10 9,3 C 16,1 C 6,1 C 75 % 1033,0 hPa 0,0 l/m 5,0 km/h (1 Bft) S 190 0 min 0,000 mm 0,0 UV-I 0 W/m 5,1 C 9,3 C 6,4 km/h (2 Bft) 100,00 %
26.09.2018 20:12 9,3 C 16,1 C 6,1 C 76 % 1032,9 hPa 0,0 l/m 4,5 km/h (1 Bft) S 190 0 min 0,000 mm 0,0 UV-I 0 W/m 5,3 C 9,3 C 6,4 km/h (2 Bft) 97,87 %
26.09.2018 20:14 9,2 C 16,1 C 6,7 C 76 % 1033,0 hPa 0,0 l/m 4,6 km/h (1 Bft) S-SW 192 0 min 0,000 mm 0,0 UV-I 0 W/m 5,2 C 9,2 C 4,8 km/h (1 Bft) 100,00 %
26.09.2018 20:16 9,0 C 16,1 C 6,1 C 76 % 1032,9 hPa 0,0 l/m 4,1 km/h (1 Bft) S-SW 192 0 min 0,000 mm 0,0 UV-I 0 W/m 5,0 C 9,0 C 4,8 km/h (1 Bft) 100,00 %
26.09.2018 20:19 8,8 C 16,1 C 6,1 C 77 % 1033,0 hPa 0,0 l/m 3,9 km/h (1 Bft) S-SW 192 0 min 0,000 mm 0,0 UV-I 0 W/m 5,0 C 8,8 C 4,8 km/h (1 Bft) 98,59 %
26.09.2018 20:20 8,9 C 16,1 C 6,1 C 77 % 1033,0 hPa 0,0 l/m 4,3 km/h (1 Bft) S-SW 194 0 min 0,000 mm 0,0 UV-I 0 W/m 5,1 C 8,9 C 4,8 km/h (1 Bft) 100,00 %
26.09.2018 20:22 9,1 C 16,1 C 6,1 C 76 % 1033,0 hPa 0,0 l/m 4,8 km/h (1 Bft) S-SW 196 0 min 0,000 mm 0,0 UV-I 0 W/m 5,1 C 9,1 C 6,4 km/h (2 Bft) 100,00 %
26.09.2018 20:24 9,2 C 16,1 C 6,1 C 76 % 1033,0 hPa 0,0 l/m 4,9 km/h (1 Bft) S-SW 200 0 min 0,000 mm 0,0 UV-I 0 W/m 5,2 C 9,2 C 6,4 km/h (2 Bft) 97,87 %
26.09.2018 20:26 9,0 C 16,1 C 6,1 C 76 % 1033,0 hPa 0,0 l/m 5,4 km/h (1 Bft) S-SW 200 0 min 0,000 mm 0,0 UV-I 0 W/m 5,0 C 9,0 C 6,4 km/h (2 Bft) 93,62 %
26.09.2018 20:29 8,8 C 16,1 C 6,1 C 77 % 1033,0 hPa 0,0 l/m 5,5 km/h (1 Bft) S-SW 202 0 min 0,000 mm 0,0 UV-I 0 W/m 5,0 C 8,8 C 6,4 km/h (2 Bft) 98,63 %
26.09.2018 20:30 8,8 C 16,1 C 6,1 C 77 % 1033,1 hPa 0,0 l/m 5,6 km/h (1 Bft) S-SW 205 0 min 0,000 mm 0,0 UV-I 0 W/m 5,0 C 8,8 C 6,4 km/h (2 Bft) 100,00 %
26.09.2018 20:32 8,7 C 16,1 C 5,6 C 77 % 1033,0 hPa 0,0 l/m 5,6 km/h (1 Bft) S-SW 209 0 min 0,000 mm 0,0 UV-I 0 W/m 4,9 C 8,7 C 6,4 km/h (2 Bft) 95,74 %
26.09.2018 20:34 8,6 C 16,1 C 5,6 C 78 % 1033,0 hPa 0,0 l/m 5,3 km/h (1 Bft) S-SW 204 0 min 0,000 mm 0,0 UV-I 0 W/m 5,0 C 8,6 C 6,4 km/h (2 Bft) 100,00 %
26.09.2018 20:36 8,5 C 16,1 C 5,6 C 78 % 1033,0 hPa 0,0 l/m 5,4 km/h (1 Bft) S-SW 207 0 min 0,000 mm 0,0 UV-I 0 W/m 4,9 C 8,5 C 6,4 km/h (2 Bft) 97,87 %
26.09.2018 20:38 8,5 C 16,1 C 5,6 C 78 % 1033,1 hPa 0,0 l/m 4,8 km/h (1 Bft) S-SW 208 0 min 0,000 mm 0,0 UV-I 0 W/m 4,9 C 8,5 C 6,4 km/h (2 Bft) 97,87 %
26.09.2018 20:40 8,5 C 16,1 C 5,6 C 78 % 1033,1 hPa 0,0 l/m 4,2 km/h (1 Bft) S-SW 208 0 min 0,000 mm 0,0 UV-I 0 W/m 4,9 C 8,5 C 4,8 km/h (1 Bft) 97,87 %
26.09.2018 20:42 8,4 C 16,1 C 6,1 C 78 % 1033,1 hPa 0,0 l/m 4,0 km/h (1 Bft) S-SW 208 0 min 0,000 mm 0,0 UV-I 0 W/m 4,8 C 8,4 C 4,8 km/h (1 Bft) 97,87 %
26.09.2018 20:44 8,4 C 16,1 C 6,1 C 79 % 1033,2 hPa 0,0 l/m 4,7 km/h (1 Bft) S-SW 208 0 min 0,000 mm 0,0 UV-I 0 W/m 5,0 C 8,4 C 6,4 km/h (2 Bft) 96,23 %
26.09.2018 20:46 8,4 C 16,1 C 6,1 C 79 % 1033,2 hPa 0,0 l/m 5,1 km/h (1 Bft) S-SW 208 0 min 0,000 mm 0,0 UV-I 0 W/m 5,0 C 8,4 C 6,4 km/h (2 Bft) 97,87 %
26.09.2018 20:49 8,5 C 16,1 C 6,1 C 79 % 1033,3 hPa 0,0 l/m 4,2 km/h (1 Bft) S-SW 208 0 min 0,000 mm 0,0 UV-I 0 W/m 5,1 C 8,5 C 4,8 km/h (1 Bft) 98,59 %
26.09.2018 20:50 8,5 C 16,1 C 6,1 C 79 % 1033,3 hPa 0,0 l/m 3,9 km/h (1 Bft) S-SW 208 0 min 0,000 mm 0,0 UV-I 0 W/m 5,1 C 8,5 C 4,8 km/h (1 Bft) 95,65 %
26.09.2018 20:52 8,7 C 16,1 C 6,1 C 80 % 1033,3 hPa 0,0 l/m 4,0 km/h (1 Bft) S-SW 208 0 min 0,000 mm 0,0 UV-I 0 W/m 5,4 C 8,7 C 4,8 km/h (1 Bft) 97,87 %
26.09.2018 20:54 8,9 C 16,1 C 6,7 C 78 % 1033,4 hPa 0,0 l/m 4,7 km/h (1 Bft) S-SW 208 0 min 0,000 mm 0,0 UV-I 0 W/m 5,3 C 8,9 C 6,4 km/h (2 Bft) 97,87 %
26.09.2018 20:56 9,1 C 16,1 C 6,7 C 78 % 1033,4 hPa 0,0 l/m 4,4 km/h (1 Bft) S-SW 207 0 min 0,000 mm 0,0 UV-I 0 W/m 5,5 C 9,1 C 6,4 km/h (2 Bft) 97,87 %
26.09.2018 20:58 9,1 C 16,1 C 6,7 C 77 % 1033,4 hPa 0,0 l/m 4,7 km/h (1 Bft) S-SW 207 0 min 0,000 mm 0,0 UV-I 0 W/m 5,3 C 9,1 C 6,4 km/h (2 Bft) 97,87 %
26.09.2018 21:00 8,9 C 16,1 C 7,2 C 78 % 1033,4 hPa 0,0 l/m 4,9 km/h (1 Bft) S-SW 205 0 min 0,025 mm 0,0 UV-I 0 W/m 5,3 C 8,9 C 6,4 km/h (2 Bft) 97,87 %
26.09.2018 21:02 8,8 C 16,1 C 7,2 C 78 % 1033,4 hPa 0,0 l/m 5,7 km/h (1 Bft) S-SW 206 0 min 0,000 mm 0,0 UV-I 0 W/m 5,2 C 8,8 C 6,4 km/h (2 Bft) 100,00 %
26.09.2018 21:04 8,9 C 16,1 C 6,7 C 78 % 1033,5 hPa 0,0 l/m 5,7 km/h (1 Bft) S-SW 213 0 min 0,000 mm 0,0 UV-I 0 W/m 5,3 C 8,9 C 6,4 km/h (2 Bft) 100,00 %
26.09.2018 21:06 8,9 C 16,1 C 7,2 C 79 % 1033,4 hPa 0,0 l/m 6,1 km/h (2 Bft) S-SW 207 0 min 0,000 mm 0,0 UV-I 0 W/m 5,5 C 8,9 C 8,0 km/h (2 Bft) 96,77 %
26.09.2018 21:08 9,0 C 16,1 C 7,2 C 78 % 1033,4 hPa 0,0 l/m 6,4 km/h (2 Bft) S-SW 192 0 min 0,000 mm 0,0 UV-I 0 W/m 5,4 C 9,0 C 9,7 km/h (2 Bft) 100,00 %
26.09.2018 21:10 9,2 C 16,1 C 7,2 C 78 % 1033,4 hPa 0,0 l/m 6,0 km/h (2 Bft) S-SW 196 0 min 0,000 mm 0,0 UV-I 0 W/m 5,6 C 9,2 C 8,0 km/h (2 Bft) 100,00 %
26.09.2018 21:12 9,3 C 16,1 C 7,2 C 77 % 1033,4 hPa 0,0 l/m 6,3 km/h (2 Bft) S 191 0 min 0,000 mm 0,0 UV-I 0 W/m 5,5 C 9,3 C 8,0 km/h (2 Bft) 100,00 %
26.09.2018 21:14 9,4 C 16,1 C 7,2 C 76 % 1033,5 hPa 0,0 l/m 5,5 km/h (1 Bft) S 188 0 min 0,000 mm 0,0 UV-I 0 W/m 5,4 C 9,4 C 6,4 km/h (2 Bft) 97,87 %
26.09.2018 21:16 9,5 C 16,1 C 7,2 C 76 % 1033,5 hPa 0,0 l/m 5,5 km/h (1 Bft) S 188 0 min 0,000 mm 0,0 UV-I 0 W/m 5,5 C 9,5 C 6,4 km/h (2 Bft) 100,00 %
26.09.2018 21:18 9,4 C 16,1 C 7,2 C 76 % 1033,5 hPa 0,0 l/m 5,2 km/h (1 Bft) S 188 0 min 0,000 mm 0,0 UV-I 0 W/m 5,4 C 9,4 C 6,4 km/h (2 Bft) 100,00 %
26.09.2018 21:20 9,5 C 16,1 C 7,2 C 77 % 1033,5 hPa 0,0 l/m 4,5 km/h (1 Bft) S 188 0 min 0,000 mm 0,0 UV-I 0 W/m 5,7 C 9,5 C 6,4 km/h (2 Bft) 100,00 %
26.09.2018 21:22 9,6 C 16,1 C 7,2 C 77 % 1033,5 hPa 0,0 l/m 4,3 km/h (1 Bft) S 188 0 min 0,000 mm 0,0 UV-I 0 W/m 5,8 C 9,6 C 6,4 km/h (2 Bft) 98,08 %
26.09.2018 21:24 9,7 C 16,1 C 7,2 C 76 % 1033,5 hPa 0,0 l/m 4,0 km/h (1 Bft) S 189 0 min 0,000 mm 0,0 UV-I 0 W/m 5,7 C 9,7 C 6,4 km/h (2 Bft) 100,00 %
26.09.2018 21:26 9,7 C 16,1 C 7,8 C 76 % 1033,6 hPa 0,0 l/m 4,5 km/h (1 Bft) S-SW 196 0 min 0,000 mm 0,0 UV-I 0 W/m 5,7 C 9,7 C 6,4 km/h (2 Bft) 100,00 %
26.09.2018 21:28 9,7 C 15,6 C 7,8 C 77 % 1033,6 hPa 0,0 l/m 4,7 km/h (1 Bft) S-SW 198 0 min 0,000 mm 0,0 UV-I 0 W/m 5,9 C 9,7 C 6,4 km/h (2 Bft) 100,00 %
26.09.2018 21:30 9,6 C 15,6 C 7,8 C 77 % 1033,5 hPa 0,0 l/m 4,9 km/h (1 Bft) S-SW 205 0 min 0,000 mm 0,0 UV-I 0 W/m 5,8 C 9,6 C 6,4 km/h (2 Bft) 97,87 %
26.09.2018 21:32 9,6 C 15,6 C 7,8 C 78 % 1033,5 hPa 0,0 l/m 4,7 km/h (1 Bft) S-SW 199 0 min 0,000 mm 0,0 UV-I 0 W/m 6,0 C 9,6 C 6,4 km/h (2 Bft) 100,00 %
26.09.2018 21:34 9,6 C 15,6 C 7,8 C 78 % 1033,5 hPa 0,0 l/m 5,9 km/h (2 Bft) S-SW 209 0 min 0,000 mm 0,0 UV-I 0 W/m 6,0 C 9,6 C 8,0 km/h (2 Bft) 97,87 %
26.09.2018 21:36 9,6 C 15,6 C 7,8 C 78 % 1033,5 hPa 0,0 l/m 5,9 km/h (2 Bft) S-SW 212 0 min 0,000 mm 0,0 UV-I 0 W/m 6,0 C 9,6 C 8,0 km/h (2 Bft) 91,49 %
26.09.2018 21:38 9,6 C 15,6 C 7,8 C 78 % 1033,6 hPa 0,0 l/m 4,9 km/h (1 Bft) S-SW 212 0 min 0,000 mm 0,0 UV-I 0 W/m 6,0 C 9,6 C 8,0 km/h (2 Bft) 93,62 %
26.09.2018 21:40 9,4 C 15,6 C 7,8 C 79 % 1033,6 hPa 0,0 l/m 4,3 km/h (1 Bft) S-SW 211 0 min 0,000 mm 0,0 UV-I 0 W/m 5,9 C 9,4 C 6,4 km/h (2 Bft) 97,44 %
26.09.2018 21:42 9,3 C 15,6 C 7,8 C 79 % 1033,6 hPa 0,0 l/m 3,5 km/h (1 Bft) S-SW 211 0 min 0,000 mm 0,0 UV-I 0 W/m 5,8 C 9,3 C 4,8 km/h (1 Bft) 93,62 %
26.09.2018 21:44 9,3 C 15,6 C 7,8 C 79 % 1033,7 hPa 0,0 l/m 3,1 km/h (1 Bft) S-SW 211 0 min 0,000 mm 0,0 UV-I 0 W/m 5,8 C 9,3 C 4,8 km/h (1 Bft) 95,74 %
26.09.2018 21:46 9,2 C 15,6 C 7,8 C 80 % 1033,6 hPa 0,0 l/m 4,0 km/h (1 Bft) S-SW 211 0 min 0,000 mm 0,0 UV-I 0 W/m 5,9 C 9,2 C 6,4 km/h (2 Bft) 96,00 %
26.09.2018 21:48 9,1 C 15,6 C 7,8 C 80 % 1033,6 hPa 0,0 l/m 5,1 km/h (1 Bft) S-SW 205 0 min 0,000 mm 0,0 UV-I 0 W/m 5,8 C 9,1 C 6,4 km/h (2 Bft) 97,87 %
26.09.2018 21:50 8,9 C 15,6 C 7,8 C 81 % 1033,6 hPa 0,0 l/m 5,1 km/h (1 Bft) S-SW 194 0 min 0,000 mm 0,0 UV-I 0 W/m 5,8 C 8,9 C 6,4 km/h (2 Bft) 96,23 %
26.09.2018 21:52 9,1 C 15,6 C 7,8 C 81 % 1033,6 hPa 0,0 l/m 4,6 km/h (1 Bft) S-SW 197 0 min 0,000 mm 0,0 UV-I 0 W/m 6,0 C 9,1 C 6,4 km/h (2 Bft) 94,74 %
26.09.2018 21:54 9,1 C 15,6 C 7,8 C 81 % 1033,6 hPa 0,0 l/m 5,1 km/h (1 Bft) S-SW 194 0 min 0,000 mm 0,0 UV-I 0 W/m 6,0 C 9,1 C 6,4 km/h (2 Bft) 93,62 %
26.09.2018 21:56 9,1 C 15,6 C 7,8 C 81 % 1033,6 hPa 0,0 l/m 5,0 km/h (1 Bft) S-SW 194 0 min 0,000 mm 0,0 UV-I 0 W/m 6,0 C 9,1 C 6,4 km/h (2 Bft) 91,49 %
26.09.2018 21:58 8,9 C 15,6 C 7,2 C 81 % 1033,6 hPa 0,0 l/m 6,0 km/h (2 Bft) S-SW 194 0 min 0,000 mm 0,0 UV-I 0 W/m 5,8 C 8,9 C 8,0 km/h (2 Bft) 91,49 %
26.09.2018 22:00 8,9 C 15,6 C 7,2 C 82 % 1033,5 hPa 0,0 l/m 5,8 km/h (2 Bft) S-SW 202 0 min 0,000 mm 0,0 UV-I 0 W/m 6,0 C 8,9 C 8,0 km/h (2 Bft) 92,00 %
26.09.2018 22:02 9,1 C 15,6 C 7,8 C 82 % 1033,6 hPa 0,0 l/m 5,1 km/h (1 Bft) S 190 0 min 0,025 mm 0,0 UV-I 0 W/m 6,2 C 9,1 C 8,0 km/h (2 Bft) 93,62 %
26.09.2018 22:04 9,2 C 15,6 C 7,8 C 81 % 1033,5 hPa 0,0 l/m 4,8 km/h (1 Bft) S 190 0 min 0,000 mm 0,0 UV-I 0 W/m 6,1 C 9,2 C 8,0 km/h (2 Bft) 93,62 %
26.09.2018 22:06 9,2 C 15,6 C 7,8 C 81 % 1033,5 hPa 0,0 l/m 5,7 km/h (1 Bft) S-SW 197 0 min 0,000 mm 0,0 UV-I 0 W/m 6,1 C 9,2 C 6,4 km/h (2 Bft) 93,62 %
26.09.2018 22:09 9,2 C 15,6 C 7,8 C 81 % 1033,5 hPa 0,0 l/m 5,2 km/h (1 Bft) S-SW 202 0 min 0,000 mm 0,0 UV-I 0 W/m 6,1 C 9,2 C 6,4 km/h (2 Bft) 92,21 %
26.09.2018 22:10 9,1 C 15,6 C 7,8 C 81 % 1033,5 hPa 0,0 l/m 5,1 km/h (1 Bft) S 191 0 min 0,000 mm 0,0 UV-I 0 W/m 6,0 C 9,1 C 6,4 km/h (2 Bft) 90,91 %
26.09.2018 22:12 9,2 C 15,6 C 7,8 C 82 % 1033,5 hPa 0,0 l/m 5,2 km/h (1 Bft) S-SW 200 0 min 0,000 mm 0,0 UV-I 0 W/m 6,3 C 9,2 C 8,0 km/h (2 Bft) 91,49 %
26.09.2018 22:14 9,3 C 15,6 C 7,8 C 81 % 1033,5 hPa 0,0 l/m 5,0 km/h (1 Bft) S-SW 194 0 min 0,000 mm 0,0 UV-I 0 W/m 6,2 C 9,3 C 6,4 km/h (2 Bft) 95,83 %
26.09.2018 22:16 9,2 C 15,6 C 7,8 C 81 % 1033,5 hPa 0,0 l/m 5,2 km/h (1 Bft) S-SW 192 0 min 0,000 mm 0,0 UV-I 0 W/m 6,1 C 9,2 C 8,0 km/h (2 Bft) 97,14 %
26.09.2018 22:18 9,2 C 15,6 C 7,8 C 81 % 1033,5 hPa 0,0 l/m 5,5 km/h (1 Bft) S 190 0 min 0,000 mm 0,0 UV-I 0 W/m 6,1 C 9,2 C 8,0 km/h (2 Bft) 95,16 %
26.09.2018 22:20 9,2 C 15,6 C 7,8 C 82 % 1033,5 hPa 0,0 l/m 5,6 km/h (1 Bft) S-SW 204 0 min 0,000 mm 0,0 UV-I 0 W/m 6,3 C 9,2 C 8,0 km/h (2 Bft) 93,62 %
26.09.2018 22:22 9,2 C 15,6 C 7,8 C 82 % 1033,5 hPa 0,0 l/m 5,2 km/h (1 Bft) S-SW 200 0 min 0,000 mm 0,0 UV-I 0 W/m 6,3 C 9,2 C 6,4 km/h (2 Bft) 95,74 %
26.09.2018 22:24 9,2 C 15,6 C 7,8 C 82 % 1033,5 hPa 0,0 l/m 5,2 km/h (1 Bft) S-SW 196 0 min 0,000 mm 0,0 UV-I 0 W/m 6,3 C 9,2 C 8,0 km/h (2 Bft) 98,00 %
26.09.2018 22:26 9,2 C 15,6 C 7,8 C 82 % 1033,5 hPa 0,0 l/m 5,3 km/h (1 Bft) S 187 0 min 0,000 mm 0,0 UV-I 0 W/m 6,3 C 9,2 C 6,4 km/h (2 Bft) 89,36 %
26.09.2018 22:29 9,2 C 15,6 C 7,8 C 82 % 1033,5 hPa 0,0 l/m 5,4 km/h (1 Bft) S-SW 198 0 min 0,000 mm 0,0 UV-I 0 W/m 6,3 C 9,2 C 8,0 km/h (2 Bft) 94,29 %
26.09.2018 22:30 9,2 C 15,6 C 7,8 C 82 % 1033,5 hPa 0,0 l/m 4,9 km/h (1 Bft) S-SW 199 0 min 0,000 mm 0,0 UV-I 0 W/m 6,3 C 9,2 C 6,4 km/h (2 Bft) 100,00 %
26.09.2018 22:32 9,2 C 15,6 C 7,8 C 82 % 1033,5 hPa 0,0 l/m 5,3 km/h (1 Bft) S-SW 201 0 min 0,000 mm 0,0 UV-I 0 W/m 6,3 C 9,2 C 6,4 km/h (2 Bft) 95,74 %
26.09.2018 22:34 9,2 C 15,6 C 7,8 C 83 % 1033,5 hPa 0,0 l/m 6,0 km/h (2 Bft) S-SW 207 0 min 0,000 mm 0,0 UV-I 0 W/m 6,5 C 9,2 C 9,7 km/h (2 Bft) 97,87 %
26.09.2018 22:36 9,2 C 15,6 C 7,8 C 83 % 1033,5 hPa 0,0 l/m 4,6 km/h (1 Bft) S 191 0 min 0,000 mm 0,0 UV-I 0 W/m 6,5 C 9,2 C 6,4 km/h (2 Bft) 91,49 %
26.09.2018 22:38 9,2 C 15,6 C 7,8 C 83 % 1033,5 hPa 0,0 l/m 5,9 km/h (2 Bft) S-SW 196 0 min 0,000 mm 0,0 UV-I 0 W/m 6,5 C 9,2 C 9,7 km/h (2 Bft) 97,87 %
26.09.2018 22:40 9,2 C 15,6 C 7,8 C 83 % 1033,5 hPa 0,0 l/m 5,7 km/h (1 Bft) S-SW 195 0 min 0,000 mm 0,0 UV-I 0 W/m 6,5 C 9,2 C 8,0 km/h (2 Bft) 93,62 %
26.09.2018 22:42 9,1 C 15,6 C 7,8 C 83 % 1033,5 hPa 0,0 l/m 6,1 km/h (2 Bft) S-SW 193 0 min 0,000 mm 0,0 UV-I 0 W/m 6,4 C 9,1 C 8,0 km/h (2 Bft) 96,00 %
26.09.2018 22:44 9,1 C 15,6 C 7,2 C 84 % 1033,5 hPa 0,0 l/m 5,2 km/h (1 Bft) S-SW 198 0 min 0,000 mm 0,0 UV-I 0 W/m 6,5 C 9,1 C 8,0 km/h (2 Bft) 100,00 %
26.09.2018 22:46 9,1 C 15,6 C 7,2 C 84 % 1033,5 hPa 0,0 l/m 5,7 km/h (1 Bft) S-SW 198 0 min 0,000 mm 0,0 UV-I 0 W/m 6,5 C 9,1 C 8,0 km/h (2 Bft) 100,00 %
26.09.2018 22:48 9,1 C 15,6 C 7,2 C 84 % 1033,5 hPa 0,0 l/m 5,7 km/h (1 Bft) S-SW 205 0 min 0,000 mm 0,0 UV-I 0 W/m 6,5 C 9,1 C 6,4 km/h (2 Bft) 97,87 %
26.09.2018 22:50 9,1 C 15,6 C 7,2 C 84 % 1033,6 hPa 0,0 l/m 5,8 km/h (2 Bft) S-SW 205 0 min 0,000 mm 0,0 UV-I 0 W/m 6,5 C 9,1 C 9,7 km/h (2 Bft) 100,00 %
26.09.2018 22:52 9,1 C 15,6 C 7,2 C 84 % 1033,5 hPa 0,0 l/m 5,7 km/h (1 Bft) SW 214 0 min 0,000 mm 0,0 UV-I 0 W/m 6,5 C 9,1 C 8,0 km/h (2 Bft) 100,00 %
26.09.2018 22:54 9,1 C 15,6 C 7,2 C 84 % 1033,6 hPa 0,0 l/m 6,5 km/h (2 Bft) SW 225 0 min 0,000 mm 0,0 UV-I 0 W/m 6,5 C 9,1 C 8,0 km/h (2 Bft) 97,44 %
26.09.2018 22:56 9,1 C 15,6 C 7,2 C 84 % 1033,6 hPa 0,0 l/m 5,5 km/h (1 Bft) S-SW 209 0 min 0,000 mm 0,0 UV-I 0 W/m 6,5 C 9,1 C 6,4 km/h (2 Bft) 100,00 %
26.09.2018 22:58 9,0 C 15,6 C 7,2 C 84 % 1033,6 hPa 0,0 l/m 6,6 km/h (2 Bft) S-SW 210 0 min 0,000 mm 0,0 UV-I 0 W/m 6,4 C 8,9 C 9,7 km/h (2 Bft) 100,00 %
26.09.2018 23:00 8,9 C 15,6 C 7,2 C 85 % 1033,6 hPa 0,0 l/m 5,3 km/h (1 Bft) S-SW 213 0 min 0,000 mm 0,0 UV-I 0 W/m 6,5 C 8,9 C 6,4 km/h (2 Bft) 100,00 %
26.09.2018 23:02 8,9 C 15,6 C 7,2 C 85 % 1033,6 hPa 0,0 l/m 6,1 km/h (2 Bft) S-SW 202 0 min 0,026 mm 0,0 UV-I 0 W/m 6,5 C 8,9 C 8,0 km/h (2 Bft) 100,00 %
26.09.2018 23:04 8,9 C 15,6 C 7,2 C 85 % 1033,5 hPa 0,0 l/m 4,6 km/h (1 Bft) S-SW 201 0 min 0,000 mm 0,0 UV-I 0 W/m 6,5 C 8,9 C 6,4 km/h (2 Bft) 100,00 %
26.09.2018 23:06 8,8 C 15,6 C 7,2 C 85 % 1033,5 hPa 0,0 l/m 5,5 km/h (1 Bft) S-SW 193 0 min 0,000 mm 0,0 UV-I 0 W/m 6,4 C 8,8 C 6,4 km/h (2 Bft) 100,00 %
26.09.2018 23:09 8,8 C 15,6 C 7,2 C 85 % 1033,6 hPa 0,0 l/m 5,8 km/h (2 Bft) S-SW 213 0 min 0,000 mm 0,0 UV-I 0 W/m 6,4 C 8,8 C 8,0 km/h (2 Bft) 96,34 %
26.09.2018 23:10 8,9 C 15,6 C 7,2 C 85 % 1033,6 hPa 0,0 l/m 5,8 km/h (2 Bft) S-SW 208 0 min 0,000 mm 0,0 UV-I 0 W/m 6,5 C 8,9 C 6,4 km/h (2 Bft) 100,00 %
26.09.2018 23:12 8,9 C 15,6 C 7,2 C 85 % 1033,6 hPa 0,0 l/m 5,6 km/h (1 Bft) S-SW 205 0 min 0,000 mm 0,0 UV-I 0 W/m 6,5 C 8,9 C 8,0 km/h (2 Bft) 97,87 %
26.09.2018 23:14 8,8 C 15,6 C 7,2 C 85 % 1033,6 hPa 0,0 l/m 5,7 km/h (1 Bft) S-SW 205 0 min 0,000 mm 0,0 UV-I 0 W/m 6,4 C 8,8 C 8,0 km/h (2 Bft) 97,87 %
26.09.2018 23:16 8,8 C 15,6 C 7,2 C 85 % 1033,5 hPa 0,0 l/m 6,2 km/h (2 Bft) S-SW 193 0 min 0,000 mm 0,0 UV-I 0 W/m 6,4 C 8,8 C 9,7 km/h (2 Bft) 97,87 %
26.09.2018 23:19 8,8 C 15,6 C 7,2 C 86 % 1033,4 hPa 0,0 l/m 7,4 km/h (2 Bft) S-SW 203 0 min 0,000 mm 0,0 UV-I 0 W/m 6,6 C 8,0 C 12,9 km/h (3 Bft) 97,18 %
26.09.2018 23:20 8,9 C 15,6 C 7,2 C 86 % 1033,4 hPa 0,0 l/m 6,7 km/h (2 Bft) S-SW 212 0 min 0,000 mm 0,0 UV-I 0 W/m 6,7 C 8,7 C 8,0 km/h (2 Bft) 95,65 %
26.09.2018 23:22 8,9 C 15,6 C 7,2 C 86 % 1033,4 hPa 0,0 l/m 6,0 km/h (2 Bft) SW 216 0 min 0,000 mm 0,0 UV-I 0 W/m 6,7 C 8,9 C 8,0 km/h (2 Bft) 98,00 %
26.09.2018 23:24 8,9 C 15,6 C 7,2 C 86 % 1033,5 hPa 0,0 l/m 5,6 km/h (1 Bft) S-SW 207 0 min 0,000 mm 0,0 UV-I 0 W/m 6,7 C 8,9 C 8,0 km/h (2 Bft) 97,87 %
26.09.2018 23:26 8,8 C 15,6 C 7,2 C 86 % 1033,5 hPa 0,0 l/m 6,6 km/h (2 Bft) S-SW 213 0 min 0,000 mm 0,0 UV-I 0 W/m 6,6 C 8,7 C 9,7 km/h (2 Bft) 89,36 %
26.09.2018 23:28 8,8 C 15,6 C 6,7 C 86 % 1033,5 hPa 0,0 l/m 6,5 km/h (2 Bft) S-SW 212 0 min 0,000 mm 0,0 UV-I 0 W/m 6,6 C 8,7 C 8,0 km/h (2 Bft) 100,00 %
26.09.2018 23:30 8,7 C 15,6 C 7,2 C 86 % 1033,5 hPa 0,0 l/m 6,2 km/h (2 Bft) S-SW 212 0 min 0,000 mm 0,0 UV-I 0 W/m 6,5 C 8,7 C 9,7 km/h (2 Bft) 100,00 %
26.09.2018 23:32 8,6 C 15,6 C 7,2 C 86 % 1033,4 hPa 0,0 l/m 5,9 km/h (2 Bft) S-SW 204 0 min 0,000 mm 0,0 UV-I 0 W/m 6,4 C 8,6 C 8,0 km/h (2 Bft) 100,00 %
26.09.2018 23:34 8,6 C 15,6 C 7,2 C 86 % 1033,6 hPa 0,0 l/m 6,4 km/h (2 Bft) SW 221 0 min 0,000 mm 0,0 UV-I 0 W/m 6,4 C 8,6 C 8,0 km/h (2 Bft) 100,00 %
26.09.2018 23:36 8,6 C 15,6 C 6,7 C 86 % 1033,6 hPa 0,0 l/m 6,5 km/h (2 Bft) S-SW 207 0 min 0,000 mm 0,0 UV-I 0 W/m 6,4 C 8,5 C 8,0 km/h (2 Bft) 97,92 %
26.09.2018 23:39 8,4 C 15,6 C 6,7 C 86 % 1033,6 hPa 0,0 l/m 4,8 km/h (1 Bft) S-SW 208 0 min 0,000 mm 0,0 UV-I 0 W/m 6,2 C 8,4 C 8,0 km/h (2 Bft) 98,57 %
26.09.2018 23:40 8,4 C 15,6 C 6,7 C 86 % 1033,6 hPa 0,0 l/m 4,7 km/h (1 Bft) S-SW 207 0 min 0,000 mm 0,0 UV-I 0 W/m 6,2 C 8,4 C 6,4 km/h (2 Bft) 95,83 %
26.09.2018 23:42 8,4 C 15,6 C 6,7 C 87 % 1033,6 hPa 0,0 l/m 4,5 km/h (1 Bft) S-SW 208 0 min 0,000 mm 0,0 UV-I 0 W/m 6,4 C 8,4 C 6,4 km/h (2 Bft) 97,87 %
26.09.2018 23:44 8,4 C 15,6 C 6,7 C 87 % 1033,6 hPa 0,0 l/m 4,6 km/h (1 Bft) SW 221 0 min 0,000 mm 0,0 UV-I 0 W/m 6,4 C 8,4 C 6,4 km/h (2 Bft) 100,00 %
26.09.2018 23:46 8,4 C 15,6 C 6,7 C 87 % 1033,4 hPa 0,0 l/m 5,2 km/h (1 Bft) S-SW 209 0 min 0,000 mm 0,0 UV-I 0 W/m 6,4 C 8,4 C 6,4 km/h (2 Bft) 96,00 %
26.09.2018 23:48 8,4 C 15,6 C 6,7 C 87 % 1033,5 hPa 0,0 l/m 4,2 km/h (1 Bft) SW 223 0 min 0,000 mm 0,0 UV-I 0 W/m 6,4 C 8,4 C 6,4 km/h (2 Bft) 97,87 %
26.09.2018 23:50 8,4 C 15,6 C 6,7 C 87 % 1033,5 hPa 0,0 l/m 4,8 km/h (1 Bft) SW 217 0 min 0,000 mm 0,0 UV-I 0 W/m 6,4 C 8,4 C 6,4 km/h (2 Bft) 95,74 %
26.09.2018 23:52 8,3 C 15,6 C 6,1 C 87 % 1033,5 hPa 0,0 l/m 5,5 km/h (1 Bft) SW 215 0 min 0,000 mm 0,0 UV-I 0 W/m 6,3 C 8,3 C 8,0 km/h (2 Bft) 95,74 %
26.09.2018 23:54 8,1 C 15,6 C 6,1 C 87 % 1033,5 hPa 0,0 l/m 5,1 km/h (1 Bft) S-SW 208 0 min 0,000 mm 0,0 UV-I 0 W/m 6,1 C 8,1 C 6,4 km/h (2 Bft) 98,11 %
26.09.2018 23:56 7,9 C 15,6 C 6,1 C 87 % 1033,5 hPa 0,0 l/m 4,9 km/h (1 Bft) S-SW 213 0 min 0,000 mm 0,0 UV-I 0 W/m 5,9 C 7,9 C 6,4 km/h (2 Bft) 93,62 %
26.09.2018 23:58 7,9 C 15,6 C 6,1 C 88 % 1033,5 hPa 0,0 l/m 4,5 km/h (1 Bft) SW 215 0 min 0,000 mm 0,0 UV-I 0 W/m 6,0 C 7,9 C 6,4 km/h (2 Bft) 95,74 %
_ Min-Zeit 05:00 06:32 05:42 16:18 17:44 - 00:30 - - - - - - 05:00 06:42 00:30 05:00
Minimum _ 0,8 C 15,6 C -2,2 C 40 % 1032,5 hPa - 0,0 km/h (0 Bft) - - - - - - -0,5 C -2,3 C 0,0 km/h (0 Bft) 89,36 %
_ Max-Zeit 16:32 00:00 13:40 05:50 00:08 00:00 12:18 - - 08:15 13:02 12:52 12:52 18:10 17:02 09:56 00:22
Maximum _ 16,7 C 16,7 C 28,3 C 94 % 1039,1 hPa 0,0 l/m 13,6 km/h
O-NO (3 Bft)
- - 3 min 0,356 mm 3,2 UV-I 656 W/m 7,0 C 16,7 C 20,9 km/h
O-NO (4 Bft)
100,00 %
Durchschnitt _ 8,0 C 15,9 C 9,0 C 74 % 1035,4 hPa #0,0 l/m 4,9 km/h (1 Bft) O-NO - #10:54 h #2,591 mm 2,0 UV-I 365 W/m 3,0 C 7,6 C 7,6 km/h (2 Bft) 97,24 %